<?xml version="1.0" encoding="UTF-8" standalone="no" ?>
<gpx xmlns="http://www.topografix.com/GPX/1/1" xmlns:xsi="http://www.w3.org/2001/XMLSchema-instance" xsi:schemaLocation="http://www.topografix.com/GPX/1/1 http://www.topografix.com/GPX/1/1/gpx.xsd" version="1.1" creator="VisuGPX - https://www.visugpx.com">
  <metadata>
    <name>La Pierre percée depuis Pierre châtel 2021-10-26-01</name>
  </metadata>
  <trk>
    <name><![CDATA[2021-10-26-01]]></name>
    <trkseg>
      <trkpt lat="44.95722" lon="5.77262">
        <ele>994.8</ele>
        <time>2021-10-26T11:03:25Z</time>
      </trkpt>
      <trkpt lat="44.95723" lon="5.77262">
        <ele>993</ele>
        <time>2021-10-26T11:03:26Z</time>
      </trkpt>
      <trkpt lat="44.95725" lon="5.77263">
        <ele>988.1</ele>
        <time>2021-10-26T11:03:29Z</time>
      </trkpt>
      <trkpt lat="44.95725" lon="5.77267">
        <ele>978.3</ele>
        <time>2021-10-26T11:03:35Z</time>
      </trkpt>
      <trkpt lat="44.95723" lon="5.77268">
        <ele>975.6</ele>
        <time>2021-10-26T11:03:42Z</time>
      </trkpt>
      <trkpt lat="44.9572" lon="5.7727">
        <ele>975.5</ele>
        <time>2021-10-26T11:03:43Z</time>
      </trkpt>
      <trkpt lat="44.95717" lon="5.77271">
        <ele>975.4</ele>
        <time>2021-10-26T11:03:44Z</time>
      </trkpt>
      <trkpt lat="44.95712" lon="5.77273">
        <ele>974</ele>
        <time>2021-10-26T11:03:46Z</time>
      </trkpt>
      <trkpt lat="44.95724" lon="5.77264">
        <ele>974.8</ele>
        <time>2021-10-26T11:03:50Z</time>
      </trkpt>
      <trkpt lat="44.95727" lon="5.77264">
        <ele>974.6</ele>
        <time>2021-10-26T11:03:52Z</time>
      </trkpt>
      <trkpt lat="44.95726" lon="5.77262">
        <ele>974.3</ele>
        <time>2021-10-26T11:04:04Z</time>
      </trkpt>
      <trkpt lat="44.95724" lon="5.77263">
        <ele>974.3</ele>
        <time>2021-10-26T11:04:09Z</time>
      </trkpt>
      <trkpt lat="44.95724" lon="5.77266">
        <ele>974.3</ele>
        <time>2021-10-26T11:04:12Z</time>
      </trkpt>
      <trkpt lat="44.95725" lon="5.77269">
        <ele>974.1</ele>
        <time>2021-10-26T11:04:18Z</time>
      </trkpt>
      <trkpt lat="44.95726" lon="5.77271">
        <ele>974</ele>
        <time>2021-10-26T11:04:27Z</time>
      </trkpt>
      <trkpt lat="44.95725" lon="5.77273">
        <ele>974.7</ele>
        <time>2021-10-26T11:05:05Z</time>
      </trkpt>
      <trkpt lat="44.95724" lon="5.77271">
        <ele>975.4</ele>
        <time>2021-10-26T11:05:34Z</time>
      </trkpt>
      <trkpt lat="44.95726" lon="5.7727">
        <ele>975.4</ele>
        <time>2021-10-26T11:05:43Z</time>
      </trkpt>
      <trkpt lat="44.95725" lon="5.77272">
        <ele>976.2</ele>
        <time>2021-10-26T11:06:12Z</time>
      </trkpt>
      <trkpt lat="44.95723" lon="5.77274">
        <ele>975.3</ele>
        <time>2021-10-26T11:07:11Z</time>
      </trkpt>
      <trkpt lat="44.95725" lon="5.77273">
        <ele>975</ele>
        <time>2021-10-26T11:07:28Z</time>
      </trkpt>
      <trkpt lat="44.95727" lon="5.77271">
        <ele>975.6</ele>
        <time>2021-10-26T11:07:34Z</time>
      </trkpt>
      <trkpt lat="44.95728" lon="5.77269">
        <ele>975.8</ele>
        <time>2021-10-26T11:07:47Z</time>
      </trkpt>
      <trkpt lat="44.9573" lon="5.77268">
        <ele>975.6</ele>
        <time>2021-10-26T11:08:04Z</time>
      </trkpt>
      <trkpt lat="44.95732" lon="5.77269">
        <ele>975.6</ele>
        <time>2021-10-26T11:08:15Z</time>
      </trkpt>
      <trkpt lat="44.95733" lon="5.7727">
        <ele>975.4</ele>
        <time>2021-10-26T11:08:28Z</time>
      </trkpt>
      <trkpt lat="44.95732" lon="5.77268">
        <ele>976</ele>
        <time>2021-10-26T11:08:45Z</time>
      </trkpt>
      <trkpt lat="44.95732" lon="5.77264">
        <ele>975.9</ele>
        <time>2021-10-26T11:08:49Z</time>
      </trkpt>
      <trkpt lat="44.95732" lon="5.77261">
        <ele>976.2</ele>
        <time>2021-10-26T11:08:52Z</time>
      </trkpt>
      <trkpt lat="44.95733" lon="5.77258">
        <ele>976.4</ele>
        <time>2021-10-26T11:08:55Z</time>
      </trkpt>
      <trkpt lat="44.95733" lon="5.77255">
        <ele>976.6</ele>
        <time>2021-10-26T11:08:58Z</time>
      </trkpt>
      <trkpt lat="44.95734" lon="5.77252">
        <ele>976.7</ele>
        <time>2021-10-26T11:09:01Z</time>
      </trkpt>
      <trkpt lat="44.95734" lon="5.77249">
        <ele>976.8</ele>
        <time>2021-10-26T11:09:04Z</time>
      </trkpt>
      <trkpt lat="44.95735" lon="5.77246">
        <ele>977</ele>
        <time>2021-10-26T11:09:07Z</time>
      </trkpt>
      <trkpt lat="44.95736" lon="5.77243">
        <ele>977.4</ele>
        <time>2021-10-26T11:09:11Z</time>
      </trkpt>
      <trkpt lat="44.95736" lon="5.7724">
        <ele>977.6</ele>
        <time>2021-10-26T11:09:14Z</time>
      </trkpt>
      <trkpt lat="44.95736" lon="5.77237">
        <ele>977.8</ele>
        <time>2021-10-26T11:09:18Z</time>
      </trkpt>
      <trkpt lat="44.95737" lon="5.77234">
        <ele>977.9</ele>
        <time>2021-10-26T11:09:21Z</time>
      </trkpt>
      <trkpt lat="44.95737" lon="5.77232">
        <ele>978.3</ele>
        <time>2021-10-26T11:09:24Z</time>
      </trkpt>
      <trkpt lat="44.95737" lon="5.77228">
        <ele>978.9</ele>
        <time>2021-10-26T11:09:27Z</time>
      </trkpt>
      <trkpt lat="44.95738" lon="5.77225">
        <ele>979.3</ele>
        <time>2021-10-26T11:09:30Z</time>
      </trkpt>
      <trkpt lat="44.95738" lon="5.77221">
        <ele>979.5</ele>
        <time>2021-10-26T11:09:33Z</time>
      </trkpt>
      <trkpt lat="44.95739" lon="5.77219">
        <ele>979.4</ele>
        <time>2021-10-26T11:09:35Z</time>
      </trkpt>
      <trkpt lat="44.95739" lon="5.77216">
        <ele>979.9</ele>
        <time>2021-10-26T11:09:38Z</time>
      </trkpt>
      <trkpt lat="44.9574" lon="5.77213">
        <ele>980</ele>
        <time>2021-10-26T11:09:41Z</time>
      </trkpt>
      <trkpt lat="44.95742" lon="5.7721">
        <ele>980.5</ele>
        <time>2021-10-26T11:09:44Z</time>
      </trkpt>
      <trkpt lat="44.95743" lon="5.77207">
        <ele>980.8</ele>
        <time>2021-10-26T11:09:47Z</time>
      </trkpt>
      <trkpt lat="44.95745" lon="5.77205">
        <ele>980.6</ele>
        <time>2021-10-26T11:09:49Z</time>
      </trkpt>
      <trkpt lat="44.95747" lon="5.77203">
        <ele>980.8</ele>
        <time>2021-10-26T11:09:52Z</time>
      </trkpt>
      <trkpt lat="44.95749" lon="5.77201">
        <ele>980.9</ele>
        <time>2021-10-26T11:09:56Z</time>
      </trkpt>
      <trkpt lat="44.9575" lon="5.772">
        <ele>981.1</ele>
        <time>2021-10-26T11:10:00Z</time>
      </trkpt>
      <trkpt lat="44.95752" lon="5.77199">
        <ele>981.6</ele>
        <time>2021-10-26T11:10:03Z</time>
      </trkpt>
      <trkpt lat="44.95754" lon="5.77197">
        <ele>981.3</ele>
        <time>2021-10-26T11:10:06Z</time>
      </trkpt>
      <trkpt lat="44.95756" lon="5.77195">
        <ele>981.8</ele>
        <time>2021-10-26T11:10:09Z</time>
      </trkpt>
      <trkpt lat="44.95757" lon="5.77194">
        <ele>982.5</ele>
        <time>2021-10-26T11:10:12Z</time>
      </trkpt>
      <trkpt lat="44.95759" lon="5.77192">
        <ele>982.9</ele>
        <time>2021-10-26T11:10:15Z</time>
      </trkpt>
      <trkpt lat="44.95761" lon="5.77191">
        <ele>983.3</ele>
        <time>2021-10-26T11:10:19Z</time>
      </trkpt>
      <trkpt lat="44.95762" lon="5.7719">
        <ele>983.5</ele>
        <time>2021-10-26T11:10:22Z</time>
      </trkpt>
      <trkpt lat="44.95764" lon="5.77188">
        <ele>984.1</ele>
        <time>2021-10-26T11:10:26Z</time>
      </trkpt>
      <trkpt lat="44.95766" lon="5.77188">
        <ele>984.2</ele>
        <time>2021-10-26T11:10:28Z</time>
      </trkpt>
      <trkpt lat="44.95768" lon="5.77187">
        <ele>984.3</ele>
        <time>2021-10-26T11:10:30Z</time>
      </trkpt>
      <trkpt lat="44.9577" lon="5.77187">
        <ele>984.5</ele>
        <time>2021-10-26T11:10:33Z</time>
      </trkpt>
      <trkpt lat="44.95772" lon="5.77185">
        <ele>984.9</ele>
        <time>2021-10-26T11:10:40Z</time>
      </trkpt>
      <trkpt lat="44.95775" lon="5.77184">
        <ele>985.2</ele>
        <time>2021-10-26T11:10:43Z</time>
      </trkpt>
      <trkpt lat="44.95777" lon="5.77184">
        <ele>985.5</ele>
        <time>2021-10-26T11:10:46Z</time>
      </trkpt>
      <trkpt lat="44.95779" lon="5.77183">
        <ele>985.8</ele>
        <time>2021-10-26T11:10:48Z</time>
      </trkpt>
      <trkpt lat="44.95781" lon="5.77181">
        <ele>986.3</ele>
        <time>2021-10-26T11:10:50Z</time>
      </trkpt>
      <trkpt lat="44.95784" lon="5.77181">
        <ele>986.3</ele>
        <time>2021-10-26T11:10:53Z</time>
      </trkpt>
      <trkpt lat="44.95786" lon="5.77179">
        <ele>986.7</ele>
        <time>2021-10-26T11:10:55Z</time>
      </trkpt>
      <trkpt lat="44.95787" lon="5.77178">
        <ele>987.2</ele>
        <time>2021-10-26T11:10:57Z</time>
      </trkpt>
      <trkpt lat="44.95789" lon="5.77177">
        <ele>987.6</ele>
        <time>2021-10-26T11:10:59Z</time>
      </trkpt>
      <trkpt lat="44.95791" lon="5.77176">
        <ele>987.7</ele>
        <time>2021-10-26T11:11:02Z</time>
      </trkpt>
      <trkpt lat="44.95793" lon="5.77174">
        <ele>988</ele>
        <time>2021-10-26T11:11:06Z</time>
      </trkpt>
      <trkpt lat="44.95795" lon="5.77172">
        <ele>988.4</ele>
        <time>2021-10-26T11:11:08Z</time>
      </trkpt>
      <trkpt lat="44.95797" lon="5.77171">
        <ele>988.7</ele>
        <time>2021-10-26T11:11:11Z</time>
      </trkpt>
      <trkpt lat="44.958" lon="5.77169">
        <ele>989.3</ele>
        <time>2021-10-26T11:11:14Z</time>
      </trkpt>
      <trkpt lat="44.95802" lon="5.77168">
        <ele>989.4</ele>
        <time>2021-10-26T11:11:16Z</time>
      </trkpt>
      <trkpt lat="44.95804" lon="5.77167">
        <ele>989.9</ele>
        <time>2021-10-26T11:11:19Z</time>
      </trkpt>
      <trkpt lat="44.95807" lon="5.77166">
        <ele>989.8</ele>
        <time>2021-10-26T11:11:22Z</time>
      </trkpt>
      <trkpt lat="44.95809" lon="5.77165">
        <ele>989.9</ele>
        <time>2021-10-26T11:11:24Z</time>
      </trkpt>
      <trkpt lat="44.95811" lon="5.77164">
        <ele>990</ele>
        <time>2021-10-26T11:11:26Z</time>
      </trkpt>
      <trkpt lat="44.95813" lon="5.77162">
        <ele>990.4</ele>
        <time>2021-10-26T11:11:28Z</time>
      </trkpt>
      <trkpt lat="44.95814" lon="5.77162">
        <ele>990.9</ele>
        <time>2021-10-26T11:11:31Z</time>
      </trkpt>
      <trkpt lat="44.95816" lon="5.77161">
        <ele>991.3</ele>
        <time>2021-10-26T11:11:34Z</time>
      </trkpt>
      <trkpt lat="44.95819" lon="5.7716">
        <ele>991.6</ele>
        <time>2021-10-26T11:11:37Z</time>
      </trkpt>
      <trkpt lat="44.95821" lon="5.77159">
        <ele>991.7</ele>
        <time>2021-10-26T11:11:39Z</time>
      </trkpt>
      <trkpt lat="44.95823" lon="5.77158">
        <ele>991.8</ele>
        <time>2021-10-26T11:11:42Z</time>
      </trkpt>
      <trkpt lat="44.95825" lon="5.77157">
        <ele>992.3</ele>
        <time>2021-10-26T11:11:45Z</time>
      </trkpt>
      <trkpt lat="44.95827" lon="5.77155">
        <ele>993</ele>
        <time>2021-10-26T11:11:50Z</time>
      </trkpt>
      <trkpt lat="44.95829" lon="5.77153">
        <ele>993</ele>
        <time>2021-10-26T11:11:54Z</time>
      </trkpt>
      <trkpt lat="44.95831" lon="5.77152">
        <ele>993.2</ele>
        <time>2021-10-26T11:11:56Z</time>
      </trkpt>
      <trkpt lat="44.95834" lon="5.77152">
        <ele>993.5</ele>
        <time>2021-10-26T11:11:59Z</time>
      </trkpt>
      <trkpt lat="44.95835" lon="5.7715">
        <ele>994</ele>
        <time>2021-10-26T11:12:02Z</time>
      </trkpt>
      <trkpt lat="44.95837" lon="5.77149">
        <ele>994.2</ele>
        <time>2021-10-26T11:12:06Z</time>
      </trkpt>
      <trkpt lat="44.95838" lon="5.77148">
        <ele>994.3</ele>
        <time>2021-10-26T11:12:08Z</time>
      </trkpt>
      <trkpt lat="44.9584" lon="5.77147">
        <ele>994.3</ele>
        <time>2021-10-26T11:12:11Z</time>
      </trkpt>
      <trkpt lat="44.95843" lon="5.77146">
        <ele>994.5</ele>
        <time>2021-10-26T11:12:13Z</time>
      </trkpt>
      <trkpt lat="44.95845" lon="5.77144">
        <ele>994.8</ele>
        <time>2021-10-26T11:12:17Z</time>
      </trkpt>
      <trkpt lat="44.95846" lon="5.77142">
        <ele>995.3</ele>
        <time>2021-10-26T11:12:20Z</time>
      </trkpt>
      <trkpt lat="44.95848" lon="5.77141">
        <ele>996</ele>
        <time>2021-10-26T11:12:23Z</time>
      </trkpt>
      <trkpt lat="44.9585" lon="5.77139">
        <ele>996.3</ele>
        <time>2021-10-26T11:12:26Z</time>
      </trkpt>
      <trkpt lat="44.95853" lon="5.77138">
        <ele>997.4</ele>
        <time>2021-10-26T11:12:30Z</time>
      </trkpt>
      <trkpt lat="44.95854" lon="5.77136">
        <ele>997.5</ele>
        <time>2021-10-26T11:12:32Z</time>
      </trkpt>
      <trkpt lat="44.95856" lon="5.77133">
        <ele>997.7</ele>
        <time>2021-10-26T11:12:34Z</time>
      </trkpt>
      <trkpt lat="44.95858" lon="5.77131">
        <ele>997.6</ele>
        <time>2021-10-26T11:12:39Z</time>
      </trkpt>
      <trkpt lat="44.9586" lon="5.77131">
        <ele>997.9</ele>
        <time>2021-10-26T11:12:41Z</time>
      </trkpt>
      <trkpt lat="44.95863" lon="5.77131">
        <ele>998.3</ele>
        <time>2021-10-26T11:12:43Z</time>
      </trkpt>
      <trkpt lat="44.95865" lon="5.77131">
        <ele>998.5</ele>
        <time>2021-10-26T11:12:45Z</time>
      </trkpt>
      <trkpt lat="44.95868" lon="5.7713">
        <ele>998.8</ele>
        <time>2021-10-26T11:12:48Z</time>
      </trkpt>
      <trkpt lat="44.9587" lon="5.77131">
        <ele>998.5</ele>
        <time>2021-10-26T11:12:50Z</time>
      </trkpt>
      <trkpt lat="44.95872" lon="5.77131">
        <ele>999</ele>
        <time>2021-10-26T11:12:53Z</time>
      </trkpt>
      <trkpt lat="44.95874" lon="5.7713">
        <ele>999.4</ele>
        <time>2021-10-26T11:12:55Z</time>
      </trkpt>
      <trkpt lat="44.95876" lon="5.7713">
        <ele>999.5</ele>
        <time>2021-10-26T11:12:57Z</time>
      </trkpt>
      <trkpt lat="44.95878" lon="5.77131">
        <ele>999.6</ele>
        <time>2021-10-26T11:12:59Z</time>
      </trkpt>
      <trkpt lat="44.9588" lon="5.77133">
        <ele>999.9</ele>
        <time>2021-10-26T11:13:01Z</time>
      </trkpt>
      <trkpt lat="44.95882" lon="5.77132">
        <ele>1000</ele>
        <time>2021-10-26T11:13:04Z</time>
      </trkpt>
      <trkpt lat="44.95884" lon="5.77131">
        <ele>1000.4</ele>
        <time>2021-10-26T11:13:07Z</time>
      </trkpt>
      <trkpt lat="44.95887" lon="5.7713">
        <ele>1001</ele>
        <time>2021-10-26T11:13:10Z</time>
      </trkpt>
      <trkpt lat="44.95889" lon="5.7713">
        <ele>1000.9</ele>
        <time>2021-10-26T11:13:12Z</time>
      </trkpt>
      <trkpt lat="44.95891" lon="5.77129">
        <ele>1001.2</ele>
        <time>2021-10-26T11:13:14Z</time>
      </trkpt>
      <trkpt lat="44.95894" lon="5.77128">
        <ele>1001.2</ele>
        <time>2021-10-26T11:13:17Z</time>
      </trkpt>
      <trkpt lat="44.95896" lon="5.77128">
        <ele>1001.4</ele>
        <time>2021-10-26T11:13:20Z</time>
      </trkpt>
      <trkpt lat="44.95898" lon="5.77127">
        <ele>1001.7</ele>
        <time>2021-10-26T11:13:23Z</time>
      </trkpt>
      <trkpt lat="44.959" lon="5.77127">
        <ele>1001.8</ele>
        <time>2021-10-26T11:13:25Z</time>
      </trkpt>
      <trkpt lat="44.95902" lon="5.77127">
        <ele>1002.1</ele>
        <time>2021-10-26T11:13:27Z</time>
      </trkpt>
      <trkpt lat="44.95904" lon="5.77127">
        <ele>1002.5</ele>
        <time>2021-10-26T11:13:30Z</time>
      </trkpt>
      <trkpt lat="44.95905" lon="5.77124">
        <ele>1002.8</ele>
        <time>2021-10-26T11:13:33Z</time>
      </trkpt>
      <trkpt lat="44.95907" lon="5.77124">
        <ele>1003.3</ele>
        <time>2021-10-26T11:13:35Z</time>
      </trkpt>
      <trkpt lat="44.95909" lon="5.77123">
        <ele>1003.5</ele>
        <time>2021-10-26T11:13:38Z</time>
      </trkpt>
      <trkpt lat="44.95912" lon="5.77123">
        <ele>1003.4</ele>
        <time>2021-10-26T11:13:41Z</time>
      </trkpt>
      <trkpt lat="44.95914" lon="5.77122">
        <ele>1003.6</ele>
        <time>2021-10-26T11:13:43Z</time>
      </trkpt>
      <trkpt lat="44.95916" lon="5.77121">
        <ele>1003.6</ele>
        <time>2021-10-26T11:13:46Z</time>
      </trkpt>
      <trkpt lat="44.95918" lon="5.77119">
        <ele>1003.9</ele>
        <time>2021-10-26T11:13:49Z</time>
      </trkpt>
      <trkpt lat="44.95921" lon="5.77118">
        <ele>1004.4</ele>
        <time>2021-10-26T11:13:52Z</time>
      </trkpt>
      <trkpt lat="44.95923" lon="5.77119">
        <ele>1004.8</ele>
        <time>2021-10-26T11:13:55Z</time>
      </trkpt>
      <trkpt lat="44.95925" lon="5.7712">
        <ele>1004.9</ele>
        <time>2021-10-26T11:13:58Z</time>
      </trkpt>
      <trkpt lat="44.95927" lon="5.77119">
        <ele>1005.5</ele>
        <time>2021-10-26T11:14:01Z</time>
      </trkpt>
      <trkpt lat="44.95929" lon="5.77118">
        <ele>1005.5</ele>
        <time>2021-10-26T11:14:03Z</time>
      </trkpt>
      <trkpt lat="44.95931" lon="5.77119">
        <ele>1005.8</ele>
        <time>2021-10-26T11:14:06Z</time>
      </trkpt>
      <trkpt lat="44.95933" lon="5.77119">
        <ele>1006.4</ele>
        <time>2021-10-26T11:14:09Z</time>
      </trkpt>
      <trkpt lat="44.95935" lon="5.77118">
        <ele>1006.5</ele>
        <time>2021-10-26T11:14:12Z</time>
      </trkpt>
      <trkpt lat="44.95937" lon="5.77117">
        <ele>1006.8</ele>
        <time>2021-10-26T11:14:14Z</time>
      </trkpt>
      <trkpt lat="44.9594" lon="5.77115">
        <ele>1006.7</ele>
        <time>2021-10-26T11:14:16Z</time>
      </trkpt>
      <trkpt lat="44.95942" lon="5.77114">
        <ele>1006.9</ele>
        <time>2021-10-26T11:14:19Z</time>
      </trkpt>
      <trkpt lat="44.95945" lon="5.77112">
        <ele>1007</ele>
        <time>2021-10-26T11:14:22Z</time>
      </trkpt>
      <trkpt lat="44.95947" lon="5.77112">
        <ele>1007.3</ele>
        <time>2021-10-26T11:14:24Z</time>
      </trkpt>
      <trkpt lat="44.95949" lon="5.77111">
        <ele>1007.8</ele>
        <time>2021-10-26T11:14:27Z</time>
      </trkpt>
      <trkpt lat="44.95951" lon="5.7711">
        <ele>1008</ele>
        <time>2021-10-26T11:14:30Z</time>
      </trkpt>
      <trkpt lat="44.95953" lon="5.77109">
        <ele>1008.6</ele>
        <time>2021-10-26T11:14:32Z</time>
      </trkpt>
      <trkpt lat="44.95955" lon="5.77109">
        <ele>1009.1</ele>
        <time>2021-10-26T11:14:35Z</time>
      </trkpt>
      <trkpt lat="44.95957" lon="5.77108">
        <ele>1009.4</ele>
        <time>2021-10-26T11:14:38Z</time>
      </trkpt>
      <trkpt lat="44.95959" lon="5.77107">
        <ele>1009.6</ele>
        <time>2021-10-26T11:14:41Z</time>
      </trkpt>
      <trkpt lat="44.95962" lon="5.77106">
        <ele>1010</ele>
        <time>2021-10-26T11:14:44Z</time>
      </trkpt>
      <trkpt lat="44.95964" lon="5.77106">
        <ele>1010.5</ele>
        <time>2021-10-26T11:14:47Z</time>
      </trkpt>
      <trkpt lat="44.95965" lon="5.77106">
        <ele>1010.7</ele>
        <time>2021-10-26T11:14:49Z</time>
      </trkpt>
      <trkpt lat="44.95967" lon="5.77105">
        <ele>1011.2</ele>
        <time>2021-10-26T11:14:51Z</time>
      </trkpt>
      <trkpt lat="44.95969" lon="5.77105">
        <ele>1011.5</ele>
        <time>2021-10-26T11:14:54Z</time>
      </trkpt>
      <trkpt lat="44.95971" lon="5.77104">
        <ele>1011.5</ele>
        <time>2021-10-26T11:14:56Z</time>
      </trkpt>
      <trkpt lat="44.95974" lon="5.77104">
        <ele>1012</ele>
        <time>2021-10-26T11:14:59Z</time>
      </trkpt>
      <trkpt lat="44.95976" lon="5.77103">
        <ele>1011.8</ele>
        <time>2021-10-26T11:15:01Z</time>
      </trkpt>
      <trkpt lat="44.95978" lon="5.77102">
        <ele>1011.9</ele>
        <time>2021-10-26T11:15:04Z</time>
      </trkpt>
      <trkpt lat="44.9598" lon="5.77101">
        <ele>1011.8</ele>
        <time>2021-10-26T11:15:06Z</time>
      </trkpt>
      <trkpt lat="44.95983" lon="5.771">
        <ele>1012</ele>
        <time>2021-10-26T11:15:08Z</time>
      </trkpt>
      <trkpt lat="44.95984" lon="5.77099">
        <ele>1012.6</ele>
        <time>2021-10-26T11:15:10Z</time>
      </trkpt>
      <trkpt lat="44.95986" lon="5.77098">
        <ele>1012.9</ele>
        <time>2021-10-26T11:15:12Z</time>
      </trkpt>
      <trkpt lat="44.95988" lon="5.77097">
        <ele>1012.9</ele>
        <time>2021-10-26T11:15:14Z</time>
      </trkpt>
      <trkpt lat="44.9599" lon="5.77098">
        <ele>1013.3</ele>
        <time>2021-10-26T11:15:16Z</time>
      </trkpt>
      <trkpt lat="44.95991" lon="5.77096">
        <ele>1013.6</ele>
        <time>2021-10-26T11:15:19Z</time>
      </trkpt>
      <trkpt lat="44.95993" lon="5.77094">
        <ele>1013.8</ele>
        <time>2021-10-26T11:15:22Z</time>
      </trkpt>
      <trkpt lat="44.95995" lon="5.77093">
        <ele>1014.1</ele>
        <time>2021-10-26T11:15:25Z</time>
      </trkpt>
      <trkpt lat="44.95997" lon="5.77092">
        <ele>1014.5</ele>
        <time>2021-10-26T11:15:27Z</time>
      </trkpt>
      <trkpt lat="44.95999" lon="5.7709">
        <ele>1014.7</ele>
        <time>2021-10-26T11:15:29Z</time>
      </trkpt>
      <trkpt lat="44.96002" lon="5.7709">
        <ele>1014.6</ele>
        <time>2021-10-26T11:15:31Z</time>
      </trkpt>
      <trkpt lat="44.96004" lon="5.77089">
        <ele>1014.4</ele>
        <time>2021-10-26T11:15:33Z</time>
      </trkpt>
      <trkpt lat="44.96006" lon="5.77089">
        <ele>1014.5</ele>
        <time>2021-10-26T11:15:36Z</time>
      </trkpt>
      <trkpt lat="44.96008" lon="5.77088">
        <ele>1014.9</ele>
        <time>2021-10-26T11:15:39Z</time>
      </trkpt>
      <trkpt lat="44.9601" lon="5.77087">
        <ele>1015.1</ele>
        <time>2021-10-26T11:15:43Z</time>
      </trkpt>
      <trkpt lat="44.96013" lon="5.77086">
        <ele>1015.4</ele>
        <time>2021-10-26T11:15:45Z</time>
      </trkpt>
      <trkpt lat="44.96015" lon="5.77085">
        <ele>1015.7</ele>
        <time>2021-10-26T11:15:47Z</time>
      </trkpt>
      <trkpt lat="44.96017" lon="5.77084">
        <ele>1015.7</ele>
        <time>2021-10-26T11:15:49Z</time>
      </trkpt>
      <trkpt lat="44.96019" lon="5.77084">
        <ele>1016</ele>
        <time>2021-10-26T11:15:51Z</time>
      </trkpt>
      <trkpt lat="44.96022" lon="5.77084">
        <ele>1016.2</ele>
        <time>2021-10-26T11:15:54Z</time>
      </trkpt>
      <trkpt lat="44.96024" lon="5.77084">
        <ele>1016.1</ele>
        <time>2021-10-26T11:15:57Z</time>
      </trkpt>
      <trkpt lat="44.96026" lon="5.77082">
        <ele>1016.2</ele>
        <time>2021-10-26T11:15:59Z</time>
      </trkpt>
      <trkpt lat="44.96028" lon="5.77081">
        <ele>1016.4</ele>
        <time>2021-10-26T11:16:01Z</time>
      </trkpt>
      <trkpt lat="44.9603" lon="5.7708">
        <ele>1016.8</ele>
        <time>2021-10-26T11:16:04Z</time>
      </trkpt>
      <trkpt lat="44.96032" lon="5.77079">
        <ele>1016.3</ele>
        <time>2021-10-26T11:16:06Z</time>
      </trkpt>
      <trkpt lat="44.96034" lon="5.77077">
        <ele>1017.1</ele>
        <time>2021-10-26T11:16:08Z</time>
      </trkpt>
      <trkpt lat="44.96036" lon="5.77077">
        <ele>1017.2</ele>
        <time>2021-10-26T11:16:12Z</time>
      </trkpt>
      <trkpt lat="44.96039" lon="5.77075">
        <ele>1017.8</ele>
        <time>2021-10-26T11:16:15Z</time>
      </trkpt>
      <trkpt lat="44.96041" lon="5.77075">
        <ele>1017.9</ele>
        <time>2021-10-26T11:16:17Z</time>
      </trkpt>
      <trkpt lat="44.96043" lon="5.77075">
        <ele>1017.8</ele>
        <time>2021-10-26T11:16:20Z</time>
      </trkpt>
      <trkpt lat="44.96045" lon="5.77073">
        <ele>1017.8</ele>
        <time>2021-10-26T11:16:22Z</time>
      </trkpt>
      <trkpt lat="44.96048" lon="5.77072">
        <ele>1018.2</ele>
        <time>2021-10-26T11:16:25Z</time>
      </trkpt>
      <trkpt lat="44.9605" lon="5.7707">
        <ele>1018.2</ele>
        <time>2021-10-26T11:16:27Z</time>
      </trkpt>
      <trkpt lat="44.96052" lon="5.77069">
        <ele>1018.9</ele>
        <time>2021-10-26T11:16:30Z</time>
      </trkpt>
      <trkpt lat="44.96054" lon="5.77069">
        <ele>1018.6</ele>
        <time>2021-10-26T11:16:34Z</time>
      </trkpt>
      <trkpt lat="44.96056" lon="5.77066">
        <ele>1019.2</ele>
        <time>2021-10-26T11:16:37Z</time>
      </trkpt>
      <trkpt lat="44.96058" lon="5.77065">
        <ele>1019.4</ele>
        <time>2021-10-26T11:16:39Z</time>
      </trkpt>
      <trkpt lat="44.9606" lon="5.77064">
        <ele>1019.5</ele>
        <time>2021-10-26T11:16:42Z</time>
      </trkpt>
      <trkpt lat="44.96062" lon="5.77062">
        <ele>1019.7</ele>
        <time>2021-10-26T11:16:44Z</time>
      </trkpt>
      <trkpt lat="44.96064" lon="5.77061">
        <ele>1020</ele>
        <time>2021-10-26T11:16:47Z</time>
      </trkpt>
      <trkpt lat="44.96066" lon="5.77059">
        <ele>1019.9</ele>
        <time>2021-10-26T11:16:49Z</time>
      </trkpt>
      <trkpt lat="44.96069" lon="5.77058">
        <ele>1020.1</ele>
        <time>2021-10-26T11:16:52Z</time>
      </trkpt>
      <trkpt lat="44.96071" lon="5.77057">
        <ele>1020.2</ele>
        <time>2021-10-26T11:16:54Z</time>
      </trkpt>
      <trkpt lat="44.96073" lon="5.77056">
        <ele>1019.9</ele>
        <time>2021-10-26T11:16:56Z</time>
      </trkpt>
      <trkpt lat="44.96075" lon="5.77055">
        <ele>1020.2</ele>
        <time>2021-10-26T11:16:57Z</time>
      </trkpt>
      <trkpt lat="44.96077" lon="5.77054">
        <ele>1020.5</ele>
        <time>2021-10-26T11:17:00Z</time>
      </trkpt>
      <trkpt lat="44.96079" lon="5.77052">
        <ele>1021</ele>
        <time>2021-10-26T11:17:04Z</time>
      </trkpt>
      <trkpt lat="44.96081" lon="5.77051">
        <ele>1021.3</ele>
        <time>2021-10-26T11:17:06Z</time>
      </trkpt>
      <trkpt lat="44.96083" lon="5.77048">
        <ele>1021.6</ele>
        <time>2021-10-26T11:17:09Z</time>
      </trkpt>
      <trkpt lat="44.96083" lon="5.77046">
        <ele>1021.9</ele>
        <time>2021-10-26T11:17:12Z</time>
      </trkpt>
      <trkpt lat="44.96086" lon="5.77045">
        <ele>1022.2</ele>
        <time>2021-10-26T11:17:15Z</time>
      </trkpt>
      <trkpt lat="44.96089" lon="5.77043">
        <ele>1022.8</ele>
        <time>2021-10-26T11:17:19Z</time>
      </trkpt>
      <trkpt lat="44.96091" lon="5.77043">
        <ele>1023.2</ele>
        <time>2021-10-26T11:17:24Z</time>
      </trkpt>
      <trkpt lat="44.96093" lon="5.77044">
        <ele>1023</ele>
        <time>2021-10-26T11:17:26Z</time>
      </trkpt>
      <trkpt lat="44.96096" lon="5.77043">
        <ele>1023.4</ele>
        <time>2021-10-26T11:17:29Z</time>
      </trkpt>
      <trkpt lat="44.96098" lon="5.77042">
        <ele>1023.5</ele>
        <time>2021-10-26T11:17:31Z</time>
      </trkpt>
      <trkpt lat="44.961" lon="5.77041">
        <ele>1023.4</ele>
        <time>2021-10-26T11:17:34Z</time>
      </trkpt>
      <trkpt lat="44.96102" lon="5.7704">
        <ele>1023.8</ele>
        <time>2021-10-26T11:17:36Z</time>
      </trkpt>
      <trkpt lat="44.96104" lon="5.7704">
        <ele>1024.1</ele>
        <time>2021-10-26T11:17:39Z</time>
      </trkpt>
      <trkpt lat="44.96106" lon="5.77039">
        <ele>1024.3</ele>
        <time>2021-10-26T11:17:41Z</time>
      </trkpt>
      <trkpt lat="44.96108" lon="5.77038">
        <ele>1024.8</ele>
        <time>2021-10-26T11:17:43Z</time>
      </trkpt>
      <trkpt lat="44.9611" lon="5.77037">
        <ele>1025.2</ele>
        <time>2021-10-26T11:17:46Z</time>
      </trkpt>
      <trkpt lat="44.96112" lon="5.77036">
        <ele>1025.5</ele>
        <time>2021-10-26T11:17:49Z</time>
      </trkpt>
      <trkpt lat="44.96113" lon="5.77034">
        <ele>1025.7</ele>
        <time>2021-10-26T11:17:51Z</time>
      </trkpt>
      <trkpt lat="44.96115" lon="5.77033">
        <ele>1026.1</ele>
        <time>2021-10-26T11:17:55Z</time>
      </trkpt>
      <trkpt lat="44.96118" lon="5.77031">
        <ele>1026.4</ele>
        <time>2021-10-26T11:18:00Z</time>
      </trkpt>
      <trkpt lat="44.9612" lon="5.77028">
        <ele>1026.6</ele>
        <time>2021-10-26T11:18:03Z</time>
      </trkpt>
      <trkpt lat="44.96121" lon="5.77027">
        <ele>1026.9</ele>
        <time>2021-10-26T11:18:06Z</time>
      </trkpt>
      <trkpt lat="44.96123" lon="5.77025">
        <ele>1027</ele>
        <time>2021-10-26T11:18:08Z</time>
      </trkpt>
      <trkpt lat="44.96125" lon="5.77023">
        <ele>1027</ele>
        <time>2021-10-26T11:18:10Z</time>
      </trkpt>
      <trkpt lat="44.96127" lon="5.77021">
        <ele>1027.3</ele>
        <time>2021-10-26T11:18:12Z</time>
      </trkpt>
      <trkpt lat="44.96128" lon="5.7702">
        <ele>1027.6</ele>
        <time>2021-10-26T11:18:15Z</time>
      </trkpt>
      <trkpt lat="44.9613" lon="5.7702">
        <ele>1028.3</ele>
        <time>2021-10-26T11:18:18Z</time>
      </trkpt>
      <trkpt lat="44.96133" lon="5.7702">
        <ele>1028.4</ele>
        <time>2021-10-26T11:18:21Z</time>
      </trkpt>
      <trkpt lat="44.96135" lon="5.7702">
        <ele>1028.4</ele>
        <time>2021-10-26T11:18:24Z</time>
      </trkpt>
      <trkpt lat="44.96136" lon="5.77018">
        <ele>1028.3</ele>
        <time>2021-10-26T11:18:28Z</time>
      </trkpt>
      <trkpt lat="44.96138" lon="5.77017">
        <ele>1028.9</ele>
        <time>2021-10-26T11:18:31Z</time>
      </trkpt>
      <trkpt lat="44.9614" lon="5.77014">
        <ele>1029.2</ele>
        <time>2021-10-26T11:18:34Z</time>
      </trkpt>
      <trkpt lat="44.96141" lon="5.77012">
        <ele>1029.3</ele>
        <time>2021-10-26T11:18:36Z</time>
      </trkpt>
      <trkpt lat="44.96143" lon="5.77009">
        <ele>1029.4</ele>
        <time>2021-10-26T11:18:38Z</time>
      </trkpt>
      <trkpt lat="44.96144" lon="5.77005">
        <ele>1029.8</ele>
        <time>2021-10-26T11:18:41Z</time>
      </trkpt>
      <trkpt lat="44.96146" lon="5.77002">
        <ele>1029.8</ele>
        <time>2021-10-26T11:18:44Z</time>
      </trkpt>
      <trkpt lat="44.96148" lon="5.77001">
        <ele>1029.7</ele>
        <time>2021-10-26T11:18:47Z</time>
      </trkpt>
      <trkpt lat="44.9615" lon="5.76999">
        <ele>1030.1</ele>
        <time>2021-10-26T11:18:50Z</time>
      </trkpt>
      <trkpt lat="44.96152" lon="5.76997">
        <ele>1030.3</ele>
        <time>2021-10-26T11:18:53Z</time>
      </trkpt>
      <trkpt lat="44.96154" lon="5.76995">
        <ele>1030.8</ele>
        <time>2021-10-26T11:18:56Z</time>
      </trkpt>
      <trkpt lat="44.96155" lon="5.76992">
        <ele>1030.7</ele>
        <time>2021-10-26T11:18:59Z</time>
      </trkpt>
      <trkpt lat="44.96157" lon="5.76991">
        <ele>1030.9</ele>
        <time>2021-10-26T11:19:02Z</time>
      </trkpt>
      <trkpt lat="44.9616" lon="5.76989">
        <ele>1031.1</ele>
        <time>2021-10-26T11:19:07Z</time>
      </trkpt>
      <trkpt lat="44.96162" lon="5.76986">
        <ele>1031.3</ele>
        <time>2021-10-26T11:19:09Z</time>
      </trkpt>
      <trkpt lat="44.96164" lon="5.76985">
        <ele>1031.2</ele>
        <time>2021-10-26T11:19:11Z</time>
      </trkpt>
      <trkpt lat="44.96165" lon="5.76982">
        <ele>1031</ele>
        <time>2021-10-26T11:19:12Z</time>
      </trkpt>
      <trkpt lat="44.96167" lon="5.76981">
        <ele>1031.6</ele>
        <time>2021-10-26T11:19:14Z</time>
      </trkpt>
      <trkpt lat="44.96169" lon="5.76979">
        <ele>1031.6</ele>
        <time>2021-10-26T11:19:16Z</time>
      </trkpt>
      <trkpt lat="44.96171" lon="5.76978">
        <ele>1032.1</ele>
        <time>2021-10-26T11:19:19Z</time>
      </trkpt>
      <trkpt lat="44.96173" lon="5.76977">
        <ele>1032.1</ele>
        <time>2021-10-26T11:19:22Z</time>
      </trkpt>
      <trkpt lat="44.96175" lon="5.76976">
        <ele>1033</ele>
        <time>2021-10-26T11:19:25Z</time>
      </trkpt>
      <trkpt lat="44.96177" lon="5.76975">
        <ele>1032.8</ele>
        <time>2021-10-26T11:19:28Z</time>
      </trkpt>
      <trkpt lat="44.96179" lon="5.76973">
        <ele>1033</ele>
        <time>2021-10-26T11:19:31Z</time>
      </trkpt>
      <trkpt lat="44.9618" lon="5.7697">
        <ele>1033.3</ele>
        <time>2021-10-26T11:19:34Z</time>
      </trkpt>
      <trkpt lat="44.96182" lon="5.7697">
        <ele>1033.2</ele>
        <time>2021-10-26T11:19:37Z</time>
      </trkpt>
      <trkpt lat="44.96185" lon="5.76969">
        <ele>1033.1</ele>
        <time>2021-10-26T11:19:39Z</time>
      </trkpt>
      <trkpt lat="44.96187" lon="5.76967">
        <ele>1033.4</ele>
        <time>2021-10-26T11:19:41Z</time>
      </trkpt>
      <trkpt lat="44.96189" lon="5.76964">
        <ele>1033.3</ele>
        <time>2021-10-26T11:19:43Z</time>
      </trkpt>
      <trkpt lat="44.9619" lon="5.7696">
        <ele>1033.5</ele>
        <time>2021-10-26T11:19:45Z</time>
      </trkpt>
      <trkpt lat="44.96192" lon="5.76958">
        <ele>1033.9</ele>
        <time>2021-10-26T11:19:48Z</time>
      </trkpt>
      <trkpt lat="44.96194" lon="5.76955">
        <ele>1034</ele>
        <time>2021-10-26T11:19:51Z</time>
      </trkpt>
      <trkpt lat="44.96196" lon="5.76953">
        <ele>1034.2</ele>
        <time>2021-10-26T11:19:54Z</time>
      </trkpt>
      <trkpt lat="44.96198" lon="5.76951">
        <ele>1034.4</ele>
        <time>2021-10-26T11:19:56Z</time>
      </trkpt>
      <trkpt lat="44.96199" lon="5.76949">
        <ele>1034.4</ele>
        <time>2021-10-26T11:19:58Z</time>
      </trkpt>
      <trkpt lat="44.96201" lon="5.76947">
        <ele>1034.4</ele>
        <time>2021-10-26T11:20:01Z</time>
      </trkpt>
      <trkpt lat="44.96203" lon="5.76945">
        <ele>1034.9</ele>
        <time>2021-10-26T11:20:03Z</time>
      </trkpt>
      <trkpt lat="44.96204" lon="5.76943">
        <ele>1035.2</ele>
        <time>2021-10-26T11:20:05Z</time>
      </trkpt>
      <trkpt lat="44.96206" lon="5.76942">
        <ele>1035.1</ele>
        <time>2021-10-26T11:20:09Z</time>
      </trkpt>
      <trkpt lat="44.96208" lon="5.76941">
        <ele>1035</ele>
        <time>2021-10-26T11:20:12Z</time>
      </trkpt>
      <trkpt lat="44.9621" lon="5.76939">
        <ele>1035.3</ele>
        <time>2021-10-26T11:20:15Z</time>
      </trkpt>
      <trkpt lat="44.96212" lon="5.76937">
        <ele>1035.3</ele>
        <time>2021-10-26T11:20:17Z</time>
      </trkpt>
      <trkpt lat="44.96213" lon="5.76935">
        <ele>1035.5</ele>
        <time>2021-10-26T11:20:19Z</time>
      </trkpt>
      <trkpt lat="44.96214" lon="5.76933">
        <ele>1036.4</ele>
        <time>2021-10-26T11:20:23Z</time>
      </trkpt>
      <trkpt lat="44.96216" lon="5.7693">
        <ele>1036.7</ele>
        <time>2021-10-26T11:20:27Z</time>
      </trkpt>
      <trkpt lat="44.96218" lon="5.76928">
        <ele>1037</ele>
        <time>2021-10-26T11:20:30Z</time>
      </trkpt>
      <trkpt lat="44.96221" lon="5.76927">
        <ele>1037.3</ele>
        <time>2021-10-26T11:20:33Z</time>
      </trkpt>
      <trkpt lat="44.96222" lon="5.76925">
        <ele>1037.3</ele>
        <time>2021-10-26T11:20:35Z</time>
      </trkpt>
      <trkpt lat="44.96224" lon="5.76922">
        <ele>1037.5</ele>
        <time>2021-10-26T11:20:38Z</time>
      </trkpt>
      <trkpt lat="44.96225" lon="5.76919">
        <ele>1037.8</ele>
        <time>2021-10-26T11:20:41Z</time>
      </trkpt>
      <trkpt lat="44.96226" lon="5.76918">
        <ele>1038</ele>
        <time>2021-10-26T11:20:45Z</time>
      </trkpt>
      <trkpt lat="44.96228" lon="5.76916">
        <ele>1038.3</ele>
        <time>2021-10-26T11:20:49Z</time>
      </trkpt>
      <trkpt lat="44.96231" lon="5.76915">
        <ele>1038.6</ele>
        <time>2021-10-26T11:20:51Z</time>
      </trkpt>
      <trkpt lat="44.96234" lon="5.76915">
        <ele>1038.8</ele>
        <time>2021-10-26T11:20:53Z</time>
      </trkpt>
      <trkpt lat="44.96236" lon="5.76913">
        <ele>1038.8</ele>
        <time>2021-10-26T11:20:55Z</time>
      </trkpt>
      <trkpt lat="44.96238" lon="5.76911">
        <ele>1038.7</ele>
        <time>2021-10-26T11:20:56Z</time>
      </trkpt>
      <trkpt lat="44.9624" lon="5.7691">
        <ele>1038.6</ele>
        <time>2021-10-26T11:20:58Z</time>
      </trkpt>
      <trkpt lat="44.96243" lon="5.76909">
        <ele>1038.8</ele>
        <time>2021-10-26T11:21:01Z</time>
      </trkpt>
      <trkpt lat="44.96245" lon="5.76906">
        <ele>1039.4</ele>
        <time>2021-10-26T11:21:05Z</time>
      </trkpt>
      <trkpt lat="44.96247" lon="5.76905">
        <ele>1039.3</ele>
        <time>2021-10-26T11:21:09Z</time>
      </trkpt>
      <trkpt lat="44.96249" lon="5.76903">
        <ele>1039.7</ele>
        <time>2021-10-26T11:21:12Z</time>
      </trkpt>
      <trkpt lat="44.96252" lon="5.769">
        <ele>1039.9</ele>
        <time>2021-10-26T11:21:14Z</time>
      </trkpt>
      <trkpt lat="44.96253" lon="5.76898">
        <ele>1040.2</ele>
        <time>2021-10-26T11:21:15Z</time>
      </trkpt>
      <trkpt lat="44.96255" lon="5.76895">
        <ele>1040.5</ele>
        <time>2021-10-26T11:21:20Z</time>
      </trkpt>
      <trkpt lat="44.96257" lon="5.76894">
        <ele>1040.4</ele>
        <time>2021-10-26T11:21:25Z</time>
      </trkpt>
      <trkpt lat="44.96259" lon="5.76892">
        <ele>1040.2</ele>
        <time>2021-10-26T11:21:26Z</time>
      </trkpt>
      <trkpt lat="44.96262" lon="5.7689">
        <ele>1040.2</ele>
        <time>2021-10-26T11:21:28Z</time>
      </trkpt>
      <trkpt lat="44.96264" lon="5.76888">
        <ele>1040.9</ele>
        <time>2021-10-26T11:21:32Z</time>
      </trkpt>
      <trkpt lat="44.96265" lon="5.76887">
        <ele>1040.9</ele>
        <time>2021-10-26T11:21:41Z</time>
      </trkpt>
      <trkpt lat="44.96267" lon="5.76885">
        <ele>1041.2</ele>
        <time>2021-10-26T11:21:53Z</time>
      </trkpt>
      <trkpt lat="44.96269" lon="5.76885">
        <ele>1040.9</ele>
        <time>2021-10-26T11:21:59Z</time>
      </trkpt>
      <trkpt lat="44.96269" lon="5.76888">
        <ele>1041.2</ele>
        <time>2021-10-26T11:22:03Z</time>
      </trkpt>
      <trkpt lat="44.96269" lon="5.7689">
        <ele>1040.3</ele>
        <time>2021-10-26T11:22:19Z</time>
      </trkpt>
      <trkpt lat="44.96267" lon="5.76888">
        <ele>1040.8</ele>
        <time>2021-10-26T11:22:27Z</time>
      </trkpt>
      <trkpt lat="44.96268" lon="5.76886">
        <ele>1041.1</ele>
        <time>2021-10-26T11:22:33Z</time>
      </trkpt>
      <trkpt lat="44.9627" lon="5.76884">
        <ele>1040.1</ele>
        <time>2021-10-26T11:22:49Z</time>
      </trkpt>
      <trkpt lat="44.96272" lon="5.76884">
        <ele>1039.7</ele>
        <time>2021-10-26T11:23:01Z</time>
      </trkpt>
      <trkpt lat="44.96272" lon="5.76882">
        <ele>1040.6</ele>
        <time>2021-10-26T11:23:22Z</time>
      </trkpt>
      <trkpt lat="44.96271" lon="5.76884">
        <ele>1041.5</ele>
        <time>2021-10-26T11:24:55Z</time>
      </trkpt>
      <trkpt lat="44.96273" lon="5.76883">
        <ele>1041.3</ele>
        <time>2021-10-26T11:25:09Z</time>
      </trkpt>
      <trkpt lat="44.96271" lon="5.76884">
        <ele>1040.6</ele>
        <time>2021-10-26T11:25:13Z</time>
      </trkpt>
      <trkpt lat="44.96273" lon="5.76883">
        <ele>1041.5</ele>
        <time>2021-10-26T11:25:28Z</time>
      </trkpt>
      <trkpt lat="44.96274" lon="5.76881">
        <ele>1041.8</ele>
        <time>2021-10-26T11:25:32Z</time>
      </trkpt>
      <trkpt lat="44.96276" lon="5.7688">
        <ele>1041.9</ele>
        <time>2021-10-26T11:25:35Z</time>
      </trkpt>
      <trkpt lat="44.96278" lon="5.76878">
        <ele>1042.3</ele>
        <time>2021-10-26T11:25:39Z</time>
      </trkpt>
      <trkpt lat="44.9628" lon="5.76877">
        <ele>1042.3</ele>
        <time>2021-10-26T11:25:41Z</time>
      </trkpt>
      <trkpt lat="44.96282" lon="5.76876">
        <ele>1042.4</ele>
        <time>2021-10-26T11:25:44Z</time>
      </trkpt>
      <trkpt lat="44.96284" lon="5.76875">
        <ele>1043</ele>
        <time>2021-10-26T11:25:48Z</time>
      </trkpt>
      <trkpt lat="44.96285" lon="5.76873">
        <ele>1043.6</ele>
        <time>2021-10-26T11:25:52Z</time>
      </trkpt>
      <trkpt lat="44.96285" lon="5.76869">
        <ele>1043.9</ele>
        <time>2021-10-26T11:25:56Z</time>
      </trkpt>
      <trkpt lat="44.96286" lon="5.76867">
        <ele>1044.3</ele>
        <time>2021-10-26T11:25:59Z</time>
      </trkpt>
      <trkpt lat="44.96288" lon="5.76865">
        <ele>1043.9</ele>
        <time>2021-10-26T11:26:01Z</time>
      </trkpt>
      <trkpt lat="44.96289" lon="5.76862">
        <ele>1044.3</ele>
        <time>2021-10-26T11:26:03Z</time>
      </trkpt>
      <trkpt lat="44.96291" lon="5.76861">
        <ele>1044.5</ele>
        <time>2021-10-26T11:26:05Z</time>
      </trkpt>
      <trkpt lat="44.96293" lon="5.7686">
        <ele>1044.5</ele>
        <time>2021-10-26T11:26:08Z</time>
      </trkpt>
      <trkpt lat="44.96295" lon="5.7686">
        <ele>1044.6</ele>
        <time>2021-10-26T11:26:12Z</time>
      </trkpt>
      <trkpt lat="44.96297" lon="5.76859">
        <ele>1044.7</ele>
        <time>2021-10-26T11:26:15Z</time>
      </trkpt>
      <trkpt lat="44.96299" lon="5.76858">
        <ele>1044.8</ele>
        <time>2021-10-26T11:26:18Z</time>
      </trkpt>
      <trkpt lat="44.963" lon="5.76856">
        <ele>1045.2</ele>
        <time>2021-10-26T11:26:20Z</time>
      </trkpt>
      <trkpt lat="44.96302" lon="5.76853">
        <ele>1045.1</ele>
        <time>2021-10-26T11:26:23Z</time>
      </trkpt>
      <trkpt lat="44.96303" lon="5.76851">
        <ele>1045.2</ele>
        <time>2021-10-26T11:26:26Z</time>
      </trkpt>
      <trkpt lat="44.96304" lon="5.76849">
        <ele>1045.7</ele>
        <time>2021-10-26T11:26:29Z</time>
      </trkpt>
      <trkpt lat="44.96305" lon="5.76846">
        <ele>1046</ele>
        <time>2021-10-26T11:26:32Z</time>
      </trkpt>
      <trkpt lat="44.96307" lon="5.76845">
        <ele>1046</ele>
        <time>2021-10-26T11:26:36Z</time>
      </trkpt>
      <trkpt lat="44.96309" lon="5.76845">
        <ele>1046.4</ele>
        <time>2021-10-26T11:26:38Z</time>
      </trkpt>
      <trkpt lat="44.96311" lon="5.76843">
        <ele>1046.7</ele>
        <time>2021-10-26T11:26:40Z</time>
      </trkpt>
      <trkpt lat="44.96313" lon="5.76845">
        <ele>1047</ele>
        <time>2021-10-26T11:26:44Z</time>
      </trkpt>
      <trkpt lat="44.96315" lon="5.76845">
        <ele>1047.5</ele>
        <time>2021-10-26T11:26:47Z</time>
      </trkpt>
      <trkpt lat="44.96316" lon="5.76843">
        <ele>1047.7</ele>
        <time>2021-10-26T11:26:48Z</time>
      </trkpt>
      <trkpt lat="44.96318" lon="5.76841">
        <ele>1047.9</ele>
        <time>2021-10-26T11:26:51Z</time>
      </trkpt>
      <trkpt lat="44.9632" lon="5.7684">
        <ele>1047.9</ele>
        <time>2021-10-26T11:26:55Z</time>
      </trkpt>
      <trkpt lat="44.96322" lon="5.76838">
        <ele>1048.1</ele>
        <time>2021-10-26T11:26:57Z</time>
      </trkpt>
      <trkpt lat="44.96323" lon="5.76836">
        <ele>1048.3</ele>
        <time>2021-10-26T11:26:59Z</time>
      </trkpt>
      <trkpt lat="44.96324" lon="5.76835">
        <ele>1048.5</ele>
        <time>2021-10-26T11:27:01Z</time>
      </trkpt>
      <trkpt lat="44.96326" lon="5.76833">
        <ele>1048.6</ele>
        <time>2021-10-26T11:27:03Z</time>
      </trkpt>
      <trkpt lat="44.96328" lon="5.76831">
        <ele>1049.1</ele>
        <time>2021-10-26T11:27:05Z</time>
      </trkpt>
      <trkpt lat="44.9633" lon="5.76829">
        <ele>1049.7</ele>
        <time>2021-10-26T11:27:09Z</time>
      </trkpt>
      <trkpt lat="44.96333" lon="5.76828">
        <ele>1050</ele>
        <time>2021-10-26T11:27:12Z</time>
      </trkpt>
      <trkpt lat="44.96336" lon="5.76829">
        <ele>1050.2</ele>
        <time>2021-10-26T11:27:14Z</time>
      </trkpt>
      <trkpt lat="44.96337" lon="5.76827">
        <ele>1050.5</ele>
        <time>2021-10-26T11:27:16Z</time>
      </trkpt>
      <trkpt lat="44.96339" lon="5.76826">
        <ele>1050.8</ele>
        <time>2021-10-26T11:27:20Z</time>
      </trkpt>
      <trkpt lat="44.96341" lon="5.76825">
        <ele>1050.7</ele>
        <time>2021-10-26T11:27:23Z</time>
      </trkpt>
      <trkpt lat="44.96343" lon="5.76825">
        <ele>1051.1</ele>
        <time>2021-10-26T11:27:26Z</time>
      </trkpt>
      <trkpt lat="44.96346" lon="5.76825">
        <ele>1051.3</ele>
        <time>2021-10-26T11:27:29Z</time>
      </trkpt>
      <trkpt lat="44.96348" lon="5.76825">
        <ele>1051.7</ele>
        <time>2021-10-26T11:27:32Z</time>
      </trkpt>
      <trkpt lat="44.96351" lon="5.76821">
        <ele>1051.6</ele>
        <time>2021-10-26T11:27:34Z</time>
      </trkpt>
      <trkpt lat="44.96353" lon="5.76821">
        <ele>1052</ele>
        <time>2021-10-26T11:27:36Z</time>
      </trkpt>
      <trkpt lat="44.96355" lon="5.76821">
        <ele>1051.9</ele>
        <time>2021-10-26T11:27:40Z</time>
      </trkpt>
      <trkpt lat="44.96357" lon="5.7682">
        <ele>1051.9</ele>
        <time>2021-10-26T11:27:43Z</time>
      </trkpt>
      <trkpt lat="44.96359" lon="5.76822">
        <ele>1052.6</ele>
        <time>2021-10-26T11:27:46Z</time>
      </trkpt>
      <trkpt lat="44.9636" lon="5.76823">
        <ele>1052.7</ele>
        <time>2021-10-26T11:27:48Z</time>
      </trkpt>
      <trkpt lat="44.96363" lon="5.76824">
        <ele>1053.2</ele>
        <time>2021-10-26T11:27:51Z</time>
      </trkpt>
      <trkpt lat="44.96365" lon="5.76826">
        <ele>1053.4</ele>
        <time>2021-10-26T11:27:53Z</time>
      </trkpt>
      <trkpt lat="44.96367" lon="5.76827">
        <ele>1054.2</ele>
        <time>2021-10-26T11:27:57Z</time>
      </trkpt>
      <trkpt lat="44.96368" lon="5.76828">
        <ele>1054.5</ele>
        <time>2021-10-26T11:28:00Z</time>
      </trkpt>
      <trkpt lat="44.96371" lon="5.76827">
        <ele>1054.3</ele>
        <time>2021-10-26T11:28:03Z</time>
      </trkpt>
      <trkpt lat="44.96373" lon="5.76828">
        <ele>1054.9</ele>
        <time>2021-10-26T11:28:05Z</time>
      </trkpt>
      <trkpt lat="44.96375" lon="5.7683">
        <ele>1055</ele>
        <time>2021-10-26T11:28:08Z</time>
      </trkpt>
      <trkpt lat="44.96378" lon="5.76829">
        <ele>1055.2</ele>
        <time>2021-10-26T11:28:10Z</time>
      </trkpt>
      <trkpt lat="44.96379" lon="5.76828">
        <ele>1055.4</ele>
        <time>2021-10-26T11:28:12Z</time>
      </trkpt>
      <trkpt lat="44.96382" lon="5.76829">
        <ele>1056</ele>
        <time>2021-10-26T11:28:15Z</time>
      </trkpt>
      <trkpt lat="44.96384" lon="5.76829">
        <ele>1056.4</ele>
        <time>2021-10-26T11:28:17Z</time>
      </trkpt>
      <trkpt lat="44.96386" lon="5.7683">
        <ele>1056.8</ele>
        <time>2021-10-26T11:28:22Z</time>
      </trkpt>
      <trkpt lat="44.96388" lon="5.7683">
        <ele>1056.9</ele>
        <time>2021-10-26T11:28:24Z</time>
      </trkpt>
      <trkpt lat="44.9639" lon="5.76832">
        <ele>1057.7</ele>
        <time>2021-10-26T11:28:28Z</time>
      </trkpt>
      <trkpt lat="44.96393" lon="5.76833">
        <ele>1058</ele>
        <time>2021-10-26T11:28:32Z</time>
      </trkpt>
      <trkpt lat="44.96395" lon="5.76835">
        <ele>1058.2</ele>
        <time>2021-10-26T11:28:35Z</time>
      </trkpt>
      <trkpt lat="44.96397" lon="5.76836">
        <ele>1058.6</ele>
        <time>2021-10-26T11:28:39Z</time>
      </trkpt>
      <trkpt lat="44.964" lon="5.76835">
        <ele>1058.6</ele>
        <time>2021-10-26T11:28:43Z</time>
      </trkpt>
      <trkpt lat="44.96402" lon="5.76835">
        <ele>1058.8</ele>
        <time>2021-10-26T11:28:46Z</time>
      </trkpt>
      <trkpt lat="44.96404" lon="5.76834">
        <ele>1059.6</ele>
        <time>2021-10-26T11:28:49Z</time>
      </trkpt>
      <trkpt lat="44.96406" lon="5.76835">
        <ele>1060</ele>
        <time>2021-10-26T11:28:52Z</time>
      </trkpt>
      <trkpt lat="44.96408" lon="5.76834">
        <ele>1059.9</ele>
        <time>2021-10-26T11:28:56Z</time>
      </trkpt>
      <trkpt lat="44.9641" lon="5.76832">
        <ele>1060.5</ele>
        <time>2021-10-26T11:28:58Z</time>
      </trkpt>
      <trkpt lat="44.96411" lon="5.7683">
        <ele>1061.1</ele>
        <time>2021-10-26T11:29:01Z</time>
      </trkpt>
      <trkpt lat="44.96409" lon="5.76827">
        <ele>1061</ele>
        <time>2021-10-26T11:29:03Z</time>
      </trkpt>
      <trkpt lat="44.96406" lon="5.76817">
        <ele>1060</ele>
        <time>2021-10-26T11:29:07Z</time>
      </trkpt>
      <trkpt lat="44.96409" lon="5.76813">
        <ele>1061</ele>
        <time>2021-10-26T11:29:10Z</time>
      </trkpt>
      <trkpt lat="44.96415" lon="5.76817">
        <ele>1060</ele>
        <time>2021-10-26T11:29:13Z</time>
      </trkpt>
      <trkpt lat="44.96421" lon="5.76823">
        <ele>1061.6</ele>
        <time>2021-10-26T11:29:18Z</time>
      </trkpt>
      <trkpt lat="44.96422" lon="5.76821">
        <ele>1061.9</ele>
        <time>2021-10-26T11:29:21Z</time>
      </trkpt>
      <trkpt lat="44.96424" lon="5.7682">
        <ele>1062</ele>
        <time>2021-10-26T11:29:26Z</time>
      </trkpt>
      <trkpt lat="44.96426" lon="5.76817">
        <ele>1062.5</ele>
        <time>2021-10-26T11:29:30Z</time>
      </trkpt>
      <trkpt lat="44.96427" lon="5.76815">
        <ele>1062.8</ele>
        <time>2021-10-26T11:29:34Z</time>
      </trkpt>
      <trkpt lat="44.96429" lon="5.76814">
        <ele>1063.2</ele>
        <time>2021-10-26T11:29:37Z</time>
      </trkpt>
      <trkpt lat="44.96431" lon="5.76812">
        <ele>1064.4</ele>
        <time>2021-10-26T11:29:42Z</time>
      </trkpt>
      <trkpt lat="44.96433" lon="5.76811">
        <ele>1064.2</ele>
        <time>2021-10-26T11:29:45Z</time>
      </trkpt>
      <trkpt lat="44.96433" lon="5.76809">
        <ele>1064.3</ele>
        <time>2021-10-26T11:29:49Z</time>
      </trkpt>
      <trkpt lat="44.96435" lon="5.76808">
        <ele>1065.4</ele>
        <time>2021-10-26T11:29:53Z</time>
      </trkpt>
      <trkpt lat="44.96438" lon="5.76807">
        <ele>1066</ele>
        <time>2021-10-26T11:29:57Z</time>
      </trkpt>
      <trkpt lat="44.9644" lon="5.76807">
        <ele>1066</ele>
        <time>2021-10-26T11:29:59Z</time>
      </trkpt>
      <trkpt lat="44.96441" lon="5.76805">
        <ele>1066.8</ele>
        <time>2021-10-26T11:30:01Z</time>
      </trkpt>
      <trkpt lat="44.96443" lon="5.76802">
        <ele>1067.1</ele>
        <time>2021-10-26T11:30:03Z</time>
      </trkpt>
      <trkpt lat="44.96444" lon="5.76801">
        <ele>1067.3</ele>
        <time>2021-10-26T11:30:05Z</time>
      </trkpt>
      <trkpt lat="44.96446" lon="5.76799">
        <ele>1067.7</ele>
        <time>2021-10-26T11:30:07Z</time>
      </trkpt>
      <trkpt lat="44.96448" lon="5.76799">
        <ele>1068.4</ele>
        <time>2021-10-26T11:30:09Z</time>
      </trkpt>
      <trkpt lat="44.96451" lon="5.76796">
        <ele>1069</ele>
        <time>2021-10-26T11:30:12Z</time>
      </trkpt>
      <trkpt lat="44.96452" lon="5.76793">
        <ele>1069.2</ele>
        <time>2021-10-26T11:30:14Z</time>
      </trkpt>
      <trkpt lat="44.96454" lon="5.76791">
        <ele>1069.2</ele>
        <time>2021-10-26T11:30:16Z</time>
      </trkpt>
      <trkpt lat="44.96456" lon="5.76786">
        <ele>1069.3</ele>
        <time>2021-10-26T11:30:17Z</time>
      </trkpt>
      <trkpt lat="44.96458" lon="5.76783">
        <ele>1069.5</ele>
        <time>2021-10-26T11:30:18Z</time>
      </trkpt>
      <trkpt lat="44.9646" lon="5.7678">
        <ele>1069.7</ele>
        <time>2021-10-26T11:30:19Z</time>
      </trkpt>
      <trkpt lat="44.96461" lon="5.76778">
        <ele>1069.8</ele>
        <time>2021-10-26T11:30:20Z</time>
      </trkpt>
      <trkpt lat="44.96463" lon="5.76775">
        <ele>1069.8</ele>
        <time>2021-10-26T11:30:21Z</time>
      </trkpt>
      <trkpt lat="44.96465" lon="5.76772">
        <ele>1069.8</ele>
        <time>2021-10-26T11:30:23Z</time>
      </trkpt>
      <trkpt lat="44.96467" lon="5.7677">
        <ele>1069.9</ele>
        <time>2021-10-26T11:30:25Z</time>
      </trkpt>
      <trkpt lat="44.96468" lon="5.76768">
        <ele>1069.8</ele>
        <time>2021-10-26T11:30:28Z</time>
      </trkpt>
      <trkpt lat="44.9647" lon="5.76766">
        <ele>1069.6</ele>
        <time>2021-10-26T11:30:31Z</time>
      </trkpt>
      <trkpt lat="44.96472" lon="5.76765">
        <ele>1069.4</ele>
        <time>2021-10-26T11:30:34Z</time>
      </trkpt>
      <trkpt lat="44.96474" lon="5.76764">
        <ele>1069.7</ele>
        <time>2021-10-26T11:30:39Z</time>
      </trkpt>
      <trkpt lat="44.96475" lon="5.76762">
        <ele>1069.2</ele>
        <time>2021-10-26T11:30:47Z</time>
      </trkpt>
      <trkpt lat="44.96477" lon="5.76761">
        <ele>1068.4</ele>
        <time>2021-10-26T11:30:54Z</time>
      </trkpt>
      <trkpt lat="44.96478" lon="5.76759">
        <ele>1069.9</ele>
        <time>2021-10-26T11:30:58Z</time>
      </trkpt>
      <trkpt lat="44.96479" lon="5.76756">
        <ele>1070.4</ele>
        <time>2021-10-26T11:31:02Z</time>
      </trkpt>
      <trkpt lat="44.9648" lon="5.76754">
        <ele>1070.5</ele>
        <time>2021-10-26T11:31:05Z</time>
      </trkpt>
      <trkpt lat="44.96482" lon="5.76753">
        <ele>1071.2</ele>
        <time>2021-10-26T11:31:08Z</time>
      </trkpt>
      <trkpt lat="44.96483" lon="5.76751">
        <ele>1071.4</ele>
        <time>2021-10-26T11:31:13Z</time>
      </trkpt>
      <trkpt lat="44.96485" lon="5.76749">
        <ele>1071.4</ele>
        <time>2021-10-26T11:31:16Z</time>
      </trkpt>
      <trkpt lat="44.96485" lon="5.76747">
        <ele>1071.6</ele>
        <time>2021-10-26T11:31:21Z</time>
      </trkpt>
      <trkpt lat="44.96487" lon="5.76745">
        <ele>1072.1</ele>
        <time>2021-10-26T11:31:26Z</time>
      </trkpt>
      <trkpt lat="44.96489" lon="5.76745">
        <ele>1073.3</ele>
        <time>2021-10-26T11:31:33Z</time>
      </trkpt>
      <trkpt lat="44.9649" lon="5.76746">
        <ele>1073.6</ele>
        <time>2021-10-26T11:31:37Z</time>
      </trkpt>
      <trkpt lat="44.96492" lon="5.76747">
        <ele>1073.8</ele>
        <time>2021-10-26T11:31:41Z</time>
      </trkpt>
      <trkpt lat="44.96495" lon="5.76748">
        <ele>1073.5</ele>
        <time>2021-10-26T11:31:45Z</time>
      </trkpt>
      <trkpt lat="44.96497" lon="5.76747">
        <ele>1073.8</ele>
        <time>2021-10-26T11:31:47Z</time>
      </trkpt>
      <trkpt lat="44.96499" lon="5.76747">
        <ele>1074.4</ele>
        <time>2021-10-26T11:31:50Z</time>
      </trkpt>
      <trkpt lat="44.96501" lon="5.76747">
        <ele>1075.1</ele>
        <time>2021-10-26T11:31:53Z</time>
      </trkpt>
      <trkpt lat="44.96503" lon="5.76748">
        <ele>1075.4</ele>
        <time>2021-10-26T11:31:57Z</time>
      </trkpt>
      <trkpt lat="44.96506" lon="5.76749">
        <ele>1075.9</ele>
        <time>2021-10-26T11:32:01Z</time>
      </trkpt>
      <trkpt lat="44.96509" lon="5.76748">
        <ele>1076.5</ele>
        <time>2021-10-26T11:32:04Z</time>
      </trkpt>
      <trkpt lat="44.96511" lon="5.76749">
        <ele>1076.8</ele>
        <time>2021-10-26T11:32:07Z</time>
      </trkpt>
      <trkpt lat="44.96513" lon="5.7675">
        <ele>1077.1</ele>
        <time>2021-10-26T11:32:10Z</time>
      </trkpt>
      <trkpt lat="44.96516" lon="5.76749">
        <ele>1077.6</ele>
        <time>2021-10-26T11:32:13Z</time>
      </trkpt>
      <trkpt lat="44.96518" lon="5.76749">
        <ele>1077.9</ele>
        <time>2021-10-26T11:32:16Z</time>
      </trkpt>
      <trkpt lat="44.9652" lon="5.76748">
        <ele>1078.5</ele>
        <time>2021-10-26T11:32:19Z</time>
      </trkpt>
      <trkpt lat="44.96522" lon="5.76748">
        <ele>1078.8</ele>
        <time>2021-10-26T11:32:22Z</time>
      </trkpt>
      <trkpt lat="44.96524" lon="5.76747">
        <ele>1078.9</ele>
        <time>2021-10-26T11:32:24Z</time>
      </trkpt>
      <trkpt lat="44.96526" lon="5.76747">
        <ele>1078.9</ele>
        <time>2021-10-26T11:32:27Z</time>
      </trkpt>
      <trkpt lat="44.96529" lon="5.76747">
        <ele>1079.3</ele>
        <time>2021-10-26T11:32:31Z</time>
      </trkpt>
      <trkpt lat="44.96531" lon="5.76748">
        <ele>1079.4</ele>
        <time>2021-10-26T11:32:34Z</time>
      </trkpt>
      <trkpt lat="44.96533" lon="5.76749">
        <ele>1079.8</ele>
        <time>2021-10-26T11:32:37Z</time>
      </trkpt>
      <trkpt lat="44.96535" lon="5.76749">
        <ele>1080.4</ele>
        <time>2021-10-26T11:32:39Z</time>
      </trkpt>
      <trkpt lat="44.96537" lon="5.76749">
        <ele>1080.3</ele>
        <time>2021-10-26T11:32:41Z</time>
      </trkpt>
      <trkpt lat="44.96539" lon="5.76749">
        <ele>1080.9</ele>
        <time>2021-10-26T11:32:44Z</time>
      </trkpt>
      <trkpt lat="44.96541" lon="5.76749">
        <ele>1081.3</ele>
        <time>2021-10-26T11:32:47Z</time>
      </trkpt>
      <trkpt lat="44.96544" lon="5.76749">
        <ele>1081.4</ele>
        <time>2021-10-26T11:32:50Z</time>
      </trkpt>
      <trkpt lat="44.96546" lon="5.7675">
        <ele>1082.3</ele>
        <time>2021-10-26T11:32:54Z</time>
      </trkpt>
      <trkpt lat="44.96548" lon="5.76749">
        <ele>1082.4</ele>
        <time>2021-10-26T11:32:56Z</time>
      </trkpt>
      <trkpt lat="44.96549" lon="5.76749">
        <ele>1082.8</ele>
        <time>2021-10-26T11:32:59Z</time>
      </trkpt>
      <trkpt lat="44.96552" lon="5.76749">
        <ele>1082.8</ele>
        <time>2021-10-26T11:33:02Z</time>
      </trkpt>
      <trkpt lat="44.96554" lon="5.7675">
        <ele>1083.7</ele>
        <time>2021-10-26T11:33:06Z</time>
      </trkpt>
      <trkpt lat="44.96556" lon="5.76749">
        <ele>1083.9</ele>
        <time>2021-10-26T11:33:09Z</time>
      </trkpt>
      <trkpt lat="44.96558" lon="5.7675">
        <ele>1083.9</ele>
        <time>2021-10-26T11:33:12Z</time>
      </trkpt>
      <trkpt lat="44.9656" lon="5.7675">
        <ele>1084.3</ele>
        <time>2021-10-26T11:33:16Z</time>
      </trkpt>
      <trkpt lat="44.96562" lon="5.76749">
        <ele>1084.7</ele>
        <time>2021-10-26T11:33:20Z</time>
      </trkpt>
      <trkpt lat="44.96564" lon="5.76748">
        <ele>1085.2</ele>
        <time>2021-10-26T11:33:23Z</time>
      </trkpt>
      <trkpt lat="44.96566" lon="5.76746">
        <ele>1085.7</ele>
        <time>2021-10-26T11:33:26Z</time>
      </trkpt>
      <trkpt lat="44.96568" lon="5.76746">
        <ele>1086</ele>
        <time>2021-10-26T11:33:30Z</time>
      </trkpt>
      <trkpt lat="44.9657" lon="5.76746">
        <ele>1086.2</ele>
        <time>2021-10-26T11:33:34Z</time>
      </trkpt>
      <trkpt lat="44.96572" lon="5.76746">
        <ele>1086.4</ele>
        <time>2021-10-26T11:33:37Z</time>
      </trkpt>
      <trkpt lat="44.96573" lon="5.76744">
        <ele>1086.8</ele>
        <time>2021-10-26T11:33:40Z</time>
      </trkpt>
      <trkpt lat="44.96575" lon="5.76743">
        <ele>1087</ele>
        <time>2021-10-26T11:33:44Z</time>
      </trkpt>
      <trkpt lat="44.96577" lon="5.76741">
        <ele>1088.3</ele>
        <time>2021-10-26T11:33:49Z</time>
      </trkpt>
      <trkpt lat="44.96578" lon="5.76739">
        <ele>1088.8</ele>
        <time>2021-10-26T11:33:52Z</time>
      </trkpt>
      <trkpt lat="44.9658" lon="5.76738">
        <ele>1089.3</ele>
        <time>2021-10-26T11:33:56Z</time>
      </trkpt>
      <trkpt lat="44.96582" lon="5.76736">
        <ele>1089.1</ele>
        <time>2021-10-26T11:33:59Z</time>
      </trkpt>
      <trkpt lat="44.96584" lon="5.76735">
        <ele>1089.7</ele>
        <time>2021-10-26T11:34:02Z</time>
      </trkpt>
      <trkpt lat="44.96584" lon="5.76732">
        <ele>1090</ele>
        <time>2021-10-26T11:34:05Z</time>
      </trkpt>
      <trkpt lat="44.96586" lon="5.76729">
        <ele>1090.3</ele>
        <time>2021-10-26T11:34:08Z</time>
      </trkpt>
      <trkpt lat="44.96587" lon="5.76727">
        <ele>1090.4</ele>
        <time>2021-10-26T11:34:11Z</time>
      </trkpt>
      <trkpt lat="44.96588" lon="5.76724">
        <ele>1090.6</ele>
        <time>2021-10-26T11:34:15Z</time>
      </trkpt>
      <trkpt lat="44.9659" lon="5.76721">
        <ele>1090.6</ele>
        <time>2021-10-26T11:34:17Z</time>
      </trkpt>
      <trkpt lat="44.96591" lon="5.76719">
        <ele>1090.2</ele>
        <time>2021-10-26T11:34:19Z</time>
      </trkpt>
      <trkpt lat="44.96593" lon="5.76718">
        <ele>1089.9</ele>
        <time>2021-10-26T11:34:22Z</time>
      </trkpt>
      <trkpt lat="44.96595" lon="5.76715">
        <ele>1090.3</ele>
        <time>2021-10-26T11:34:24Z</time>
      </trkpt>
      <trkpt lat="44.96597" lon="5.76713">
        <ele>1090.1</ele>
        <time>2021-10-26T11:34:27Z</time>
      </trkpt>
      <trkpt lat="44.96599" lon="5.7671">
        <ele>1089.6</ele>
        <time>2021-10-26T11:34:29Z</time>
      </trkpt>
      <trkpt lat="44.966" lon="5.76707">
        <ele>1089.9</ele>
        <time>2021-10-26T11:34:33Z</time>
      </trkpt>
      <trkpt lat="44.96602" lon="5.76706">
        <ele>1090</ele>
        <time>2021-10-26T11:34:36Z</time>
      </trkpt>
      <trkpt lat="44.96604" lon="5.76704">
        <ele>1090.2</ele>
        <time>2021-10-26T11:34:39Z</time>
      </trkpt>
      <trkpt lat="44.96605" lon="5.76702">
        <ele>1090.2</ele>
        <time>2021-10-26T11:34:42Z</time>
      </trkpt>
      <trkpt lat="44.96606" lon="5.767">
        <ele>1090.3</ele>
        <time>2021-10-26T11:34:44Z</time>
      </trkpt>
      <trkpt lat="44.96608" lon="5.76697">
        <ele>1090.5</ele>
        <time>2021-10-26T11:34:47Z</time>
      </trkpt>
      <trkpt lat="44.96609" lon="5.76695">
        <ele>1090.2</ele>
        <time>2021-10-26T11:34:49Z</time>
      </trkpt>
      <trkpt lat="44.9661" lon="5.76692">
        <ele>1090.8</ele>
        <time>2021-10-26T11:34:51Z</time>
      </trkpt>
      <trkpt lat="44.96612" lon="5.76688">
        <ele>1090.9</ele>
        <time>2021-10-26T11:34:53Z</time>
      </trkpt>
      <trkpt lat="44.96614" lon="5.76685">
        <ele>1090.7</ele>
        <time>2021-10-26T11:34:55Z</time>
      </trkpt>
      <trkpt lat="44.96614" lon="5.76682">
        <ele>1090.7</ele>
        <time>2021-10-26T11:34:56Z</time>
      </trkpt>
      <trkpt lat="44.96616" lon="5.76681">
        <ele>1090.8</ele>
        <time>2021-10-26T11:34:57Z</time>
      </trkpt>
      <trkpt lat="44.96617" lon="5.76678">
        <ele>1090.7</ele>
        <time>2021-10-26T11:34:58Z</time>
      </trkpt>
      <trkpt lat="44.96618" lon="5.76675">
        <ele>1090.7</ele>
        <time>2021-10-26T11:35:00Z</time>
      </trkpt>
      <trkpt lat="44.96619" lon="5.76672">
        <ele>1090.9</ele>
        <time>2021-10-26T11:35:02Z</time>
      </trkpt>
      <trkpt lat="44.9662" lon="5.76669">
        <ele>1091.1</ele>
        <time>2021-10-26T11:35:04Z</time>
      </trkpt>
      <trkpt lat="44.96622" lon="5.76666">
        <ele>1091.2</ele>
        <time>2021-10-26T11:35:06Z</time>
      </trkpt>
      <trkpt lat="44.96623" lon="5.76664">
        <ele>1091.1</ele>
        <time>2021-10-26T11:35:08Z</time>
      </trkpt>
      <trkpt lat="44.96626" lon="5.76663">
        <ele>1091.4</ele>
        <time>2021-10-26T11:35:11Z</time>
      </trkpt>
      <trkpt lat="44.96628" lon="5.76663">
        <ele>1091.3</ele>
        <time>2021-10-26T11:35:13Z</time>
      </trkpt>
      <trkpt lat="44.9663" lon="5.76661">
        <ele>1091.3</ele>
        <time>2021-10-26T11:35:17Z</time>
      </trkpt>
      <trkpt lat="44.96632" lon="5.7666">
        <ele>1091.5</ele>
        <time>2021-10-26T11:35:19Z</time>
      </trkpt>
      <trkpt lat="44.96635" lon="5.76658">
        <ele>1091.1</ele>
        <time>2021-10-26T11:35:21Z</time>
      </trkpt>
      <trkpt lat="44.96637" lon="5.76658">
        <ele>1090.7</ele>
        <time>2021-10-26T11:35:24Z</time>
      </trkpt>
      <trkpt lat="44.96639" lon="5.76657">
        <ele>1091.1</ele>
        <time>2021-10-26T11:35:26Z</time>
      </trkpt>
      <trkpt lat="44.96641" lon="5.76656">
        <ele>1091.1</ele>
        <time>2021-10-26T11:35:29Z</time>
      </trkpt>
      <trkpt lat="44.96643" lon="5.76655">
        <ele>1091.2</ele>
        <time>2021-10-26T11:35:31Z</time>
      </trkpt>
      <trkpt lat="44.96645" lon="5.76654">
        <ele>1090.9</ele>
        <time>2021-10-26T11:35:33Z</time>
      </trkpt>
      <trkpt lat="44.96647" lon="5.76653">
        <ele>1091</ele>
        <time>2021-10-26T11:35:36Z</time>
      </trkpt>
      <trkpt lat="44.96649" lon="5.76655">
        <ele>1091.1</ele>
        <time>2021-10-26T11:35:39Z</time>
      </trkpt>
      <trkpt lat="44.96651" lon="5.76653">
        <ele>1091.2</ele>
        <time>2021-10-26T11:35:42Z</time>
      </trkpt>
      <trkpt lat="44.96653" lon="5.76655">
        <ele>1091.4</ele>
        <time>2021-10-26T11:35:44Z</time>
      </trkpt>
      <trkpt lat="44.96655" lon="5.76657">
        <ele>1091.3</ele>
        <time>2021-10-26T11:35:46Z</time>
      </trkpt>
      <trkpt lat="44.96657" lon="5.76657">
        <ele>1091.5</ele>
        <time>2021-10-26T11:35:48Z</time>
      </trkpt>
      <trkpt lat="44.96659" lon="5.76656">
        <ele>1091.1</ele>
        <time>2021-10-26T11:35:50Z</time>
      </trkpt>
      <trkpt lat="44.96662" lon="5.76656">
        <ele>1091.3</ele>
        <time>2021-10-26T11:35:53Z</time>
      </trkpt>
      <trkpt lat="44.96664" lon="5.76656">
        <ele>1091.1</ele>
        <time>2021-10-26T11:35:57Z</time>
      </trkpt>
      <trkpt lat="44.96667" lon="5.76657">
        <ele>1090.9</ele>
        <time>2021-10-26T11:36:00Z</time>
      </trkpt>
      <trkpt lat="44.96669" lon="5.76656">
        <ele>1091.4</ele>
        <time>2021-10-26T11:36:02Z</time>
      </trkpt>
      <trkpt lat="44.96671" lon="5.76654">
        <ele>1091.3</ele>
        <time>2021-10-26T11:36:05Z</time>
      </trkpt>
      <trkpt lat="44.96673" lon="5.76655">
        <ele>1091.7</ele>
        <time>2021-10-26T11:36:09Z</time>
      </trkpt>
      <trkpt lat="44.96675" lon="5.76656">
        <ele>1092</ele>
        <time>2021-10-26T11:36:12Z</time>
      </trkpt>
      <trkpt lat="44.96676" lon="5.76657">
        <ele>1092.2</ele>
        <time>2021-10-26T11:36:14Z</time>
      </trkpt>
      <trkpt lat="44.96678" lon="5.76659">
        <ele>1092.2</ele>
        <time>2021-10-26T11:36:16Z</time>
      </trkpt>
      <trkpt lat="44.96681" lon="5.76658">
        <ele>1092.2</ele>
        <time>2021-10-26T11:36:18Z</time>
      </trkpt>
      <trkpt lat="44.96683" lon="5.76657">
        <ele>1092.1</ele>
        <time>2021-10-26T11:36:20Z</time>
      </trkpt>
      <trkpt lat="44.96686" lon="5.76655">
        <ele>1092.2</ele>
        <time>2021-10-26T11:36:23Z</time>
      </trkpt>
      <trkpt lat="44.96688" lon="5.76657">
        <ele>1092.2</ele>
        <time>2021-10-26T11:36:24Z</time>
      </trkpt>
      <trkpt lat="44.9669" lon="5.76656">
        <ele>1092.5</ele>
        <time>2021-10-26T11:36:27Z</time>
      </trkpt>
      <trkpt lat="44.96693" lon="5.76656">
        <ele>1092.3</ele>
        <time>2021-10-26T11:36:30Z</time>
      </trkpt>
      <trkpt lat="44.96694" lon="5.76658">
        <ele>1092.7</ele>
        <time>2021-10-26T11:36:32Z</time>
      </trkpt>
      <trkpt lat="44.96697" lon="5.7666">
        <ele>1092.9</ele>
        <time>2021-10-26T11:36:34Z</time>
      </trkpt>
      <trkpt lat="44.96699" lon="5.7666">
        <ele>1092.9</ele>
        <time>2021-10-26T11:36:37Z</time>
      </trkpt>
      <trkpt lat="44.96701" lon="5.76662">
        <ele>1092.8</ele>
        <time>2021-10-26T11:36:39Z</time>
      </trkpt>
      <trkpt lat="44.96702" lon="5.76664">
        <ele>1092.9</ele>
        <time>2021-10-26T11:36:41Z</time>
      </trkpt>
      <trkpt lat="44.96704" lon="5.76666">
        <ele>1093.1</ele>
        <time>2021-10-26T11:36:43Z</time>
      </trkpt>
      <trkpt lat="44.96706" lon="5.76668">
        <ele>1093.3</ele>
        <time>2021-10-26T11:36:45Z</time>
      </trkpt>
      <trkpt lat="44.96708" lon="5.76669">
        <ele>1093.5</ele>
        <time>2021-10-26T11:36:47Z</time>
      </trkpt>
      <trkpt lat="44.96711" lon="5.76668">
        <ele>1093.6</ele>
        <time>2021-10-26T11:36:49Z</time>
      </trkpt>
      <trkpt lat="44.96713" lon="5.76669">
        <ele>1093.7</ele>
        <time>2021-10-26T11:36:51Z</time>
      </trkpt>
      <trkpt lat="44.96715" lon="5.76671">
        <ele>1093.9</ele>
        <time>2021-10-26T11:36:54Z</time>
      </trkpt>
      <trkpt lat="44.96716" lon="5.76673">
        <ele>1093.9</ele>
        <time>2021-10-26T11:36:56Z</time>
      </trkpt>
      <trkpt lat="44.96718" lon="5.76676">
        <ele>1094</ele>
        <time>2021-10-26T11:36:58Z</time>
      </trkpt>
      <trkpt lat="44.9672" lon="5.76677">
        <ele>1093.9</ele>
        <time>2021-10-26T11:37:00Z</time>
      </trkpt>
      <trkpt lat="44.96722" lon="5.76678">
        <ele>1094.4</ele>
        <time>2021-10-26T11:37:03Z</time>
      </trkpt>
      <trkpt lat="44.96724" lon="5.7668">
        <ele>1094.5</ele>
        <time>2021-10-26T11:37:05Z</time>
      </trkpt>
      <trkpt lat="44.96726" lon="5.76679">
        <ele>1094.7</ele>
        <time>2021-10-26T11:37:06Z</time>
      </trkpt>
      <trkpt lat="44.96728" lon="5.76682">
        <ele>1095.1</ele>
        <time>2021-10-26T11:37:09Z</time>
      </trkpt>
      <trkpt lat="44.9673" lon="5.76684">
        <ele>1095.3</ele>
        <time>2021-10-26T11:37:12Z</time>
      </trkpt>
      <trkpt lat="44.96731" lon="5.76687">
        <ele>1095.5</ele>
        <time>2021-10-26T11:37:15Z</time>
      </trkpt>
      <trkpt lat="44.96733" lon="5.76688">
        <ele>1095.9</ele>
        <time>2021-10-26T11:37:17Z</time>
      </trkpt>
      <trkpt lat="44.96735" lon="5.76689">
        <ele>1096.1</ele>
        <time>2021-10-26T11:37:19Z</time>
      </trkpt>
      <trkpt lat="44.96736" lon="5.76692">
        <ele>1096.5</ele>
        <time>2021-10-26T11:37:22Z</time>
      </trkpt>
      <trkpt lat="44.96738" lon="5.76693">
        <ele>1096.7</ele>
        <time>2021-10-26T11:37:24Z</time>
      </trkpt>
      <trkpt lat="44.96739" lon="5.76697">
        <ele>1096.7</ele>
        <time>2021-10-26T11:37:27Z</time>
      </trkpt>
      <trkpt lat="44.96739" lon="5.76699">
        <ele>1096.8</ele>
        <time>2021-10-26T11:37:30Z</time>
      </trkpt>
      <trkpt lat="44.96741" lon="5.76701">
        <ele>1097</ele>
        <time>2021-10-26T11:37:32Z</time>
      </trkpt>
      <trkpt lat="44.96743" lon="5.76703">
        <ele>1097.1</ele>
        <time>2021-10-26T11:37:34Z</time>
      </trkpt>
      <trkpt lat="44.96743" lon="5.76705">
        <ele>1097.3</ele>
        <time>2021-10-26T11:37:36Z</time>
      </trkpt>
      <trkpt lat="44.96744" lon="5.76708">
        <ele>1097.2</ele>
        <time>2021-10-26T11:37:38Z</time>
      </trkpt>
      <trkpt lat="44.96745" lon="5.7671">
        <ele>1097.4</ele>
        <time>2021-10-26T11:37:41Z</time>
      </trkpt>
      <trkpt lat="44.96747" lon="5.76712">
        <ele>1097</ele>
        <time>2021-10-26T11:37:44Z</time>
      </trkpt>
      <trkpt lat="44.96749" lon="5.76715">
        <ele>1098.1</ele>
        <time>2021-10-26T11:37:47Z</time>
      </trkpt>
      <trkpt lat="44.96749" lon="5.76719">
        <ele>1099</ele>
        <time>2021-10-26T11:37:50Z</time>
      </trkpt>
      <trkpt lat="44.96751" lon="5.76722">
        <ele>1099</ele>
        <time>2021-10-26T11:37:54Z</time>
      </trkpt>
      <trkpt lat="44.9675" lon="5.76727">
        <ele>1100</ele>
        <time>2021-10-26T11:37:57Z</time>
      </trkpt>
      <trkpt lat="44.96749" lon="5.7673">
        <ele>1100.2</ele>
        <time>2021-10-26T11:37:59Z</time>
      </trkpt>
      <trkpt lat="44.9675" lon="5.76733">
        <ele>1100.5</ele>
        <time>2021-10-26T11:38:03Z</time>
      </trkpt>
      <trkpt lat="44.96752" lon="5.76734">
        <ele>1100.6</ele>
        <time>2021-10-26T11:38:07Z</time>
      </trkpt>
      <trkpt lat="44.96754" lon="5.76736">
        <ele>1101</ele>
        <time>2021-10-26T11:38:11Z</time>
      </trkpt>
      <trkpt lat="44.96755" lon="5.76736">
        <ele>1101.1</ele>
        <time>2021-10-26T11:38:14Z</time>
      </trkpt>
      <trkpt lat="44.96757" lon="5.76736">
        <ele>1101.4</ele>
        <time>2021-10-26T11:38:19Z</time>
      </trkpt>
      <trkpt lat="44.9676" lon="5.76736">
        <ele>1101.6</ele>
        <time>2021-10-26T11:38:23Z</time>
      </trkpt>
      <trkpt lat="44.96762" lon="5.76737">
        <ele>1102.4</ele>
        <time>2021-10-26T11:38:27Z</time>
      </trkpt>
      <trkpt lat="44.96764" lon="5.76737">
        <ele>1102.8</ele>
        <time>2021-10-26T11:38:31Z</time>
      </trkpt>
      <trkpt lat="44.96766" lon="5.76735">
        <ele>1103.3</ele>
        <time>2021-10-26T11:38:36Z</time>
      </trkpt>
      <trkpt lat="44.96767" lon="5.76735">
        <ele>1104.4</ele>
        <time>2021-10-26T11:39:10Z</time>
      </trkpt>
      <trkpt lat="44.96769" lon="5.76736">
        <ele>1103.5</ele>
        <time>2021-10-26T11:39:27Z</time>
      </trkpt>
      <trkpt lat="44.96769" lon="5.76739">
        <ele>1104.2</ele>
        <time>2021-10-26T11:39:38Z</time>
      </trkpt>
      <trkpt lat="44.96768" lon="5.76741">
        <ele>1104.4</ele>
        <time>2021-10-26T11:39:55Z</time>
      </trkpt>
      <trkpt lat="44.96766" lon="5.7674">
        <ele>1104.5</ele>
        <time>2021-10-26T11:40:00Z</time>
      </trkpt>
      <trkpt lat="44.96764" lon="5.76738">
        <ele>1103.4</ele>
        <time>2021-10-26T11:40:07Z</time>
      </trkpt>
      <trkpt lat="44.96763" lon="5.76736">
        <ele>1103.3</ele>
        <time>2021-10-26T11:40:10Z</time>
      </trkpt>
      <trkpt lat="44.96762" lon="5.76734">
        <ele>1103.4</ele>
        <time>2021-10-26T11:40:18Z</time>
      </trkpt>
      <trkpt lat="44.96762" lon="5.76731">
        <ele>1103.5</ele>
        <time>2021-10-26T11:40:29Z</time>
      </trkpt>
      <trkpt lat="44.96762" lon="5.76728">
        <ele>1103</ele>
        <time>2021-10-26T11:40:47Z</time>
      </trkpt>
      <trkpt lat="44.96763" lon="5.76726">
        <ele>1103.3</ele>
        <time>2021-10-26T11:40:51Z</time>
      </trkpt>
      <trkpt lat="44.96763" lon="5.76723">
        <ele>1103.5</ele>
        <time>2021-10-26T11:40:54Z</time>
      </trkpt>
      <trkpt lat="44.96763" lon="5.7672">
        <ele>1104.1</ele>
        <time>2021-10-26T11:40:57Z</time>
      </trkpt>
      <trkpt lat="44.96763" lon="5.76718">
        <ele>1104.5</ele>
        <time>2021-10-26T11:41:00Z</time>
      </trkpt>
      <trkpt lat="44.96761" lon="5.76716">
        <ele>1105.8</ele>
        <time>2021-10-26T11:41:17Z</time>
      </trkpt>
      <trkpt lat="44.9676" lon="5.76714">
        <ele>1105.8</ele>
        <time>2021-10-26T11:42:06Z</time>
      </trkpt>
      <trkpt lat="44.96762" lon="5.76713">
        <ele>1105.7</ele>
        <time>2021-10-26T11:42:17Z</time>
      </trkpt>
      <trkpt lat="44.96764" lon="5.76714">
        <ele>1106.6</ele>
        <time>2021-10-26T11:42:27Z</time>
      </trkpt>
      <trkpt lat="44.96766" lon="5.76714">
        <ele>1106.6</ele>
        <time>2021-10-26T11:42:54Z</time>
      </trkpt>
      <trkpt lat="44.96767" lon="5.76713">
        <ele>1106.9</ele>
        <time>2021-10-26T11:43:03Z</time>
      </trkpt>
      <trkpt lat="44.96765" lon="5.76713">
        <ele>1106.1</ele>
        <time>2021-10-26T11:44:01Z</time>
      </trkpt>
      <trkpt lat="44.96764" lon="5.76711">
        <ele>1106.3</ele>
        <time>2021-10-26T11:44:04Z</time>
      </trkpt>
      <trkpt lat="44.96763" lon="5.76708">
        <ele>1106.4</ele>
        <time>2021-10-26T11:44:08Z</time>
      </trkpt>
      <trkpt lat="44.96762" lon="5.76705">
        <ele>1106.7</ele>
        <time>2021-10-26T11:44:11Z</time>
      </trkpt>
      <trkpt lat="44.96761" lon="5.76703">
        <ele>1107.2</ele>
        <time>2021-10-26T11:44:15Z</time>
      </trkpt>
      <trkpt lat="44.96759" lon="5.76701">
        <ele>1107.7</ele>
        <time>2021-10-26T11:44:19Z</time>
      </trkpt>
      <trkpt lat="44.96759" lon="5.76698">
        <ele>1107.9</ele>
        <time>2021-10-26T11:44:23Z</time>
      </trkpt>
      <trkpt lat="44.96758" lon="5.76695">
        <ele>1108.3</ele>
        <time>2021-10-26T11:44:27Z</time>
      </trkpt>
      <trkpt lat="44.96757" lon="5.76692">
        <ele>1108.9</ele>
        <time>2021-10-26T11:44:31Z</time>
      </trkpt>
      <trkpt lat="44.96756" lon="5.76688">
        <ele>1109.2</ele>
        <time>2021-10-26T11:44:34Z</time>
      </trkpt>
      <trkpt lat="44.96756" lon="5.76686">
        <ele>1109.5</ele>
        <time>2021-10-26T11:44:37Z</time>
      </trkpt>
      <trkpt lat="44.96756" lon="5.76683">
        <ele>1109.3</ele>
        <time>2021-10-26T11:44:40Z</time>
      </trkpt>
      <trkpt lat="44.96756" lon="5.76679">
        <ele>1109.9</ele>
        <time>2021-10-26T11:44:44Z</time>
      </trkpt>
      <trkpt lat="44.96755" lon="5.76677">
        <ele>1110.6</ele>
        <time>2021-10-26T11:44:47Z</time>
      </trkpt>
      <trkpt lat="44.96756" lon="5.76674">
        <ele>1110.9</ele>
        <time>2021-10-26T11:44:50Z</time>
      </trkpt>
      <trkpt lat="44.96756" lon="5.76671">
        <ele>1111.5</ele>
        <time>2021-10-26T11:44:53Z</time>
      </trkpt>
      <trkpt lat="44.96757" lon="5.76667">
        <ele>1111.6</ele>
        <time>2021-10-26T11:44:57Z</time>
      </trkpt>
      <trkpt lat="44.96757" lon="5.76665">
        <ele>1111.8</ele>
        <time>2021-10-26T11:45:00Z</time>
      </trkpt>
      <trkpt lat="44.96758" lon="5.76662">
        <ele>1112.1</ele>
        <time>2021-10-26T11:45:03Z</time>
      </trkpt>
      <trkpt lat="44.96759" lon="5.76658">
        <ele>1112.3</ele>
        <time>2021-10-26T11:45:06Z</time>
      </trkpt>
      <trkpt lat="44.9676" lon="5.76655">
        <ele>1112.6</ele>
        <time>2021-10-26T11:45:09Z</time>
      </trkpt>
      <trkpt lat="44.96761" lon="5.76651">
        <ele>1113.3</ele>
        <time>2021-10-26T11:45:12Z</time>
      </trkpt>
      <trkpt lat="44.96761" lon="5.76649">
        <ele>1113.8</ele>
        <time>2021-10-26T11:45:15Z</time>
      </trkpt>
      <trkpt lat="44.96762" lon="5.76647">
        <ele>1114.6</ele>
        <time>2021-10-26T11:45:20Z</time>
      </trkpt>
      <trkpt lat="44.96763" lon="5.76644">
        <ele>1114.9</ele>
        <time>2021-10-26T11:45:24Z</time>
      </trkpt>
      <trkpt lat="44.96764" lon="5.76641">
        <ele>1116.1</ele>
        <time>2021-10-26T11:45:28Z</time>
      </trkpt>
      <trkpt lat="44.96766" lon="5.76639">
        <ele>1115.9</ele>
        <time>2021-10-26T11:45:33Z</time>
      </trkpt>
      <trkpt lat="44.96767" lon="5.76636">
        <ele>1116.3</ele>
        <time>2021-10-26T11:45:41Z</time>
      </trkpt>
      <trkpt lat="44.96769" lon="5.76635">
        <ele>1116.9</ele>
        <time>2021-10-26T11:45:46Z</time>
      </trkpt>
      <trkpt lat="44.96771" lon="5.76633">
        <ele>1117.6</ele>
        <time>2021-10-26T11:45:51Z</time>
      </trkpt>
      <trkpt lat="44.96772" lon="5.76631">
        <ele>1118.4</ele>
        <time>2021-10-26T11:45:55Z</time>
      </trkpt>
      <trkpt lat="44.96774" lon="5.76629">
        <ele>1118.9</ele>
        <time>2021-10-26T11:46:01Z</time>
      </trkpt>
      <trkpt lat="44.96775" lon="5.76627">
        <ele>1119</ele>
        <time>2021-10-26T11:46:03Z</time>
      </trkpt>
      <trkpt lat="44.96777" lon="5.76626">
        <ele>1119.5</ele>
        <time>2021-10-26T11:46:07Z</time>
      </trkpt>
      <trkpt lat="44.96779" lon="5.76624">
        <ele>1119.7</ele>
        <time>2021-10-26T11:46:10Z</time>
      </trkpt>
      <trkpt lat="44.9678" lon="5.76621">
        <ele>1120.9</ele>
        <time>2021-10-26T11:46:14Z</time>
      </trkpt>
      <trkpt lat="44.96782" lon="5.7662">
        <ele>1121</ele>
        <time>2021-10-26T11:46:18Z</time>
      </trkpt>
      <trkpt lat="44.96783" lon="5.76617">
        <ele>1121.7</ele>
        <time>2021-10-26T11:46:22Z</time>
      </trkpt>
      <trkpt lat="44.96784" lon="5.76615">
        <ele>1122.5</ele>
        <time>2021-10-26T11:46:26Z</time>
      </trkpt>
      <trkpt lat="44.96785" lon="5.76612">
        <ele>1122.7</ele>
        <time>2021-10-26T11:46:30Z</time>
      </trkpt>
      <trkpt lat="44.96787" lon="5.7661">
        <ele>1123.7</ele>
        <time>2021-10-26T11:46:38Z</time>
      </trkpt>
      <trkpt lat="44.96788" lon="5.76608">
        <ele>1124.3</ele>
        <time>2021-10-26T11:46:41Z</time>
      </trkpt>
      <trkpt lat="44.96791" lon="5.76608">
        <ele>1124.5</ele>
        <time>2021-10-26T11:46:45Z</time>
      </trkpt>
      <trkpt lat="44.96792" lon="5.76606">
        <ele>1124.8</ele>
        <time>2021-10-26T11:46:47Z</time>
      </trkpt>
      <trkpt lat="44.96793" lon="5.76604">
        <ele>1125</ele>
        <time>2021-10-26T11:46:49Z</time>
      </trkpt>
      <trkpt lat="44.96794" lon="5.76601">
        <ele>1125.5</ele>
        <time>2021-10-26T11:46:52Z</time>
      </trkpt>
      <trkpt lat="44.96796" lon="5.76601">
        <ele>1126.3</ele>
        <time>2021-10-26T11:46:57Z</time>
      </trkpt>
      <trkpt lat="44.96799" lon="5.766">
        <ele>1126.7</ele>
        <time>2021-10-26T11:47:04Z</time>
      </trkpt>
      <trkpt lat="44.968" lon="5.76597">
        <ele>1127.2</ele>
        <time>2021-10-26T11:47:08Z</time>
      </trkpt>
      <trkpt lat="44.96801" lon="5.76596">
        <ele>1127.5</ele>
        <time>2021-10-26T11:47:12Z</time>
      </trkpt>
      <trkpt lat="44.96804" lon="5.76594">
        <ele>1127.9</ele>
        <time>2021-10-26T11:47:16Z</time>
      </trkpt>
      <trkpt lat="44.96805" lon="5.76593">
        <ele>1128.1</ele>
        <time>2021-10-26T11:47:18Z</time>
      </trkpt>
      <trkpt lat="44.96805" lon="5.76589">
        <ele>1128.1</ele>
        <time>2021-10-26T11:47:20Z</time>
      </trkpt>
      <trkpt lat="44.96808" lon="5.76586">
        <ele>1129.1</ele>
        <time>2021-10-26T11:47:24Z</time>
      </trkpt>
      <trkpt lat="44.96809" lon="5.76583">
        <ele>1129</ele>
        <time>2021-10-26T11:47:25Z</time>
      </trkpt>
      <trkpt lat="44.9681" lon="5.7658">
        <ele>1129.6</ele>
        <time>2021-10-26T11:47:29Z</time>
      </trkpt>
      <trkpt lat="44.96811" lon="5.76578">
        <ele>1129.7</ele>
        <time>2021-10-26T11:47:32Z</time>
      </trkpt>
      <trkpt lat="44.96813" lon="5.76576">
        <ele>1130.1</ele>
        <time>2021-10-26T11:47:34Z</time>
      </trkpt>
      <trkpt lat="44.96815" lon="5.76575">
        <ele>1130.3</ele>
        <time>2021-10-26T11:47:38Z</time>
      </trkpt>
      <trkpt lat="44.96817" lon="5.76573">
        <ele>1131.3</ele>
        <time>2021-10-26T11:47:44Z</time>
      </trkpt>
      <trkpt lat="44.96819" lon="5.76573">
        <ele>1131.9</ele>
        <time>2021-10-26T11:47:48Z</time>
      </trkpt>
      <trkpt lat="44.9682" lon="5.76572">
        <ele>1132.6</ele>
        <time>2021-10-26T11:47:51Z</time>
      </trkpt>
      <trkpt lat="44.96821" lon="5.76569">
        <ele>1132.5</ele>
        <time>2021-10-26T11:47:52Z</time>
      </trkpt>
      <trkpt lat="44.96823" lon="5.76567">
        <ele>1133.1</ele>
        <time>2021-10-26T11:47:58Z</time>
      </trkpt>
      <trkpt lat="44.96825" lon="5.76564">
        <ele>1133.4</ele>
        <time>2021-10-26T11:48:01Z</time>
      </trkpt>
      <trkpt lat="44.96826" lon="5.76562">
        <ele>1134</ele>
        <time>2021-10-26T11:48:04Z</time>
      </trkpt>
      <trkpt lat="44.96828" lon="5.7656">
        <ele>1134.2</ele>
        <time>2021-10-26T11:48:06Z</time>
      </trkpt>
      <trkpt lat="44.96829" lon="5.76557">
        <ele>1134.7</ele>
        <time>2021-10-26T11:48:09Z</time>
      </trkpt>
      <trkpt lat="44.9683" lon="5.76555">
        <ele>1135</ele>
        <time>2021-10-26T11:48:13Z</time>
      </trkpt>
      <trkpt lat="44.96831" lon="5.76552">
        <ele>1135.1</ele>
        <time>2021-10-26T11:48:16Z</time>
      </trkpt>
      <trkpt lat="44.96832" lon="5.76549">
        <ele>1136.1</ele>
        <time>2021-10-26T11:48:19Z</time>
      </trkpt>
      <trkpt lat="44.96833" lon="5.76546">
        <ele>1136</ele>
        <time>2021-10-26T11:48:25Z</time>
      </trkpt>
      <trkpt lat="44.96835" lon="5.76546">
        <ele>1136.3</ele>
        <time>2021-10-26T11:48:29Z</time>
      </trkpt>
      <trkpt lat="44.96837" lon="5.76545">
        <ele>1136.8</ele>
        <time>2021-10-26T11:48:35Z</time>
      </trkpt>
      <trkpt lat="44.96839" lon="5.76542">
        <ele>1137.3</ele>
        <time>2021-10-26T11:48:39Z</time>
      </trkpt>
      <trkpt lat="44.9684" lon="5.76539">
        <ele>1138.1</ele>
        <time>2021-10-26T11:48:45Z</time>
      </trkpt>
      <trkpt lat="44.9684" lon="5.76537">
        <ele>1138.7</ele>
        <time>2021-10-26T11:48:48Z</time>
      </trkpt>
      <trkpt lat="44.96841" lon="5.76534">
        <ele>1138.8</ele>
        <time>2021-10-26T11:48:51Z</time>
      </trkpt>
      <trkpt lat="44.96841" lon="5.76531">
        <ele>1139.5</ele>
        <time>2021-10-26T11:48:54Z</time>
      </trkpt>
      <trkpt lat="44.96842" lon="5.76528">
        <ele>1139.5</ele>
        <time>2021-10-26T11:48:58Z</time>
      </trkpt>
      <trkpt lat="44.96844" lon="5.76526">
        <ele>1139.7</ele>
        <time>2021-10-26T11:49:03Z</time>
      </trkpt>
      <trkpt lat="44.96845" lon="5.76524">
        <ele>1140.9</ele>
        <time>2021-10-26T11:49:08Z</time>
      </trkpt>
      <trkpt lat="44.96847" lon="5.76523">
        <ele>1141.4</ele>
        <time>2021-10-26T11:49:11Z</time>
      </trkpt>
      <trkpt lat="44.96849" lon="5.76522">
        <ele>1141.1</ele>
        <time>2021-10-26T11:49:14Z</time>
      </trkpt>
      <trkpt lat="44.9685" lon="5.7652">
        <ele>1141.4</ele>
        <time>2021-10-26T11:49:17Z</time>
      </trkpt>
      <trkpt lat="44.96853" lon="5.76519">
        <ele>1142.3</ele>
        <time>2021-10-26T11:49:23Z</time>
      </trkpt>
      <trkpt lat="44.96854" lon="5.76517">
        <ele>1142.3</ele>
        <time>2021-10-26T11:49:25Z</time>
      </trkpt>
      <trkpt lat="44.96855" lon="5.76515">
        <ele>1142.8</ele>
        <time>2021-10-26T11:49:29Z</time>
      </trkpt>
      <trkpt lat="44.96857" lon="5.76514">
        <ele>1143.3</ele>
        <time>2021-10-26T11:49:32Z</time>
      </trkpt>
      <trkpt lat="44.96859" lon="5.76514">
        <ele>1144</ele>
        <time>2021-10-26T11:49:37Z</time>
      </trkpt>
      <trkpt lat="44.96862" lon="5.76514">
        <ele>1144</ele>
        <time>2021-10-26T11:49:40Z</time>
      </trkpt>
      <trkpt lat="44.96864" lon="5.76514">
        <ele>1143.7</ele>
        <time>2021-10-26T11:49:44Z</time>
      </trkpt>
      <trkpt lat="44.96866" lon="5.76513">
        <ele>1144.2</ele>
        <time>2021-10-26T11:49:47Z</time>
      </trkpt>
      <trkpt lat="44.96868" lon="5.76514">
        <ele>1144.6</ele>
        <time>2021-10-26T11:49:49Z</time>
      </trkpt>
      <trkpt lat="44.9687" lon="5.76513">
        <ele>1144.8</ele>
        <time>2021-10-26T11:49:52Z</time>
      </trkpt>
      <trkpt lat="44.96872" lon="5.76513">
        <ele>1144.7</ele>
        <time>2021-10-26T11:49:54Z</time>
      </trkpt>
      <trkpt lat="44.96874" lon="5.76513">
        <ele>1145.3</ele>
        <time>2021-10-26T11:49:57Z</time>
      </trkpt>
      <trkpt lat="44.96876" lon="5.76512">
        <ele>1145.7</ele>
        <time>2021-10-26T11:49:59Z</time>
      </trkpt>
      <trkpt lat="44.96878" lon="5.76511">
        <ele>1146.1</ele>
        <time>2021-10-26T11:50:02Z</time>
      </trkpt>
      <trkpt lat="44.9688" lon="5.7651">
        <ele>1146.6</ele>
        <time>2021-10-26T11:50:04Z</time>
      </trkpt>
      <trkpt lat="44.96882" lon="5.76508">
        <ele>1146.7</ele>
        <time>2021-10-26T11:50:07Z</time>
      </trkpt>
      <trkpt lat="44.96884" lon="5.76507">
        <ele>1147.1</ele>
        <time>2021-10-26T11:50:09Z</time>
      </trkpt>
      <trkpt lat="44.96886" lon="5.76506">
        <ele>1147.4</ele>
        <time>2021-10-26T11:50:12Z</time>
      </trkpt>
      <trkpt lat="44.96888" lon="5.76504">
        <ele>1148.2</ele>
        <time>2021-10-26T11:50:15Z</time>
      </trkpt>
      <trkpt lat="44.9689" lon="5.76504">
        <ele>1148.5</ele>
        <time>2021-10-26T11:50:20Z</time>
      </trkpt>
      <trkpt lat="44.96892" lon="5.76503">
        <ele>1148.8</ele>
        <time>2021-10-26T11:50:23Z</time>
      </trkpt>
      <trkpt lat="44.96894" lon="5.76501">
        <ele>1149.5</ele>
        <time>2021-10-26T11:50:28Z</time>
      </trkpt>
      <trkpt lat="44.96895" lon="5.76499">
        <ele>1149.1</ele>
        <time>2021-10-26T11:50:31Z</time>
      </trkpt>
      <trkpt lat="44.96896" lon="5.76497">
        <ele>1149.7</ele>
        <time>2021-10-26T11:50:35Z</time>
      </trkpt>
      <trkpt lat="44.96897" lon="5.76496">
        <ele>1150.3</ele>
        <time>2021-10-26T11:50:40Z</time>
      </trkpt>
      <trkpt lat="44.969" lon="5.76495">
        <ele>1150.6</ele>
        <time>2021-10-26T11:50:44Z</time>
      </trkpt>
      <trkpt lat="44.96902" lon="5.76494">
        <ele>1151.3</ele>
        <time>2021-10-26T11:50:47Z</time>
      </trkpt>
      <trkpt lat="44.96904" lon="5.76492">
        <ele>1151.7</ele>
        <time>2021-10-26T11:50:51Z</time>
      </trkpt>
      <trkpt lat="44.96906" lon="5.76491">
        <ele>1151.9</ele>
        <time>2021-10-26T11:50:54Z</time>
      </trkpt>
      <trkpt lat="44.96908" lon="5.7649">
        <ele>1152.6</ele>
        <time>2021-10-26T11:50:57Z</time>
      </trkpt>
      <trkpt lat="44.96909" lon="5.76488">
        <ele>1152.8</ele>
        <time>2021-10-26T11:51:00Z</time>
      </trkpt>
      <trkpt lat="44.9691" lon="5.76486">
        <ele>1152.9</ele>
        <time>2021-10-26T11:51:01Z</time>
      </trkpt>
      <trkpt lat="44.96912" lon="5.76485">
        <ele>1153.8</ele>
        <time>2021-10-26T11:51:04Z</time>
      </trkpt>
      <trkpt lat="44.96914" lon="5.76483">
        <ele>1154.4</ele>
        <time>2021-10-26T11:51:09Z</time>
      </trkpt>
      <trkpt lat="44.96915" lon="5.76482">
        <ele>1154.1</ele>
        <time>2021-10-26T11:51:11Z</time>
      </trkpt>
      <trkpt lat="44.96918" lon="5.76481">
        <ele>1154.6</ele>
        <time>2021-10-26T11:51:14Z</time>
      </trkpt>
      <trkpt lat="44.96919" lon="5.7648">
        <ele>1155</ele>
        <time>2021-10-26T11:51:17Z</time>
      </trkpt>
      <trkpt lat="44.96921" lon="5.76478">
        <ele>1155.3</ele>
        <time>2021-10-26T11:51:19Z</time>
      </trkpt>
      <trkpt lat="44.96923" lon="5.76476">
        <ele>1154.8</ele>
        <time>2021-10-26T11:51:22Z</time>
      </trkpt>
      <trkpt lat="44.96925" lon="5.76474">
        <ele>1155.1</ele>
        <time>2021-10-26T11:51:25Z</time>
      </trkpt>
      <trkpt lat="44.96927" lon="5.76472">
        <ele>1155.3</ele>
        <time>2021-10-26T11:51:28Z</time>
      </trkpt>
      <trkpt lat="44.96929" lon="5.76472">
        <ele>1155.4</ele>
        <time>2021-10-26T11:51:31Z</time>
      </trkpt>
      <trkpt lat="44.96931" lon="5.7647">
        <ele>1155.2</ele>
        <time>2021-10-26T11:51:35Z</time>
      </trkpt>
      <trkpt lat="44.96933" lon="5.76469">
        <ele>1155.6</ele>
        <time>2021-10-26T11:51:38Z</time>
      </trkpt>
      <trkpt lat="44.96935" lon="5.76468">
        <ele>1155.3</ele>
        <time>2021-10-26T11:51:41Z</time>
      </trkpt>
      <trkpt lat="44.96936" lon="5.76467">
        <ele>1155.4</ele>
        <time>2021-10-26T11:51:43Z</time>
      </trkpt>
      <trkpt lat="44.96938" lon="5.76465">
        <ele>1155.2</ele>
        <time>2021-10-26T11:51:45Z</time>
      </trkpt>
      <trkpt lat="44.9694" lon="5.76463">
        <ele>1155</ele>
        <time>2021-10-26T11:51:48Z</time>
      </trkpt>
      <trkpt lat="44.96941" lon="5.76462">
        <ele>1155.1</ele>
        <time>2021-10-26T11:51:50Z</time>
      </trkpt>
      <trkpt lat="44.96943" lon="5.7646">
        <ele>1155.3</ele>
        <time>2021-10-26T11:51:54Z</time>
      </trkpt>
      <trkpt lat="44.96945" lon="5.76457">
        <ele>1155.4</ele>
        <time>2021-10-26T11:51:57Z</time>
      </trkpt>
      <trkpt lat="44.96946" lon="5.76455">
        <ele>1155.6</ele>
        <time>2021-10-26T11:52:00Z</time>
      </trkpt>
      <trkpt lat="44.96947" lon="5.76453">
        <ele>1155.7</ele>
        <time>2021-10-26T11:52:04Z</time>
      </trkpt>
      <trkpt lat="44.96947" lon="5.7645">
        <ele>1155.7</ele>
        <time>2021-10-26T11:52:07Z</time>
      </trkpt>
      <trkpt lat="44.96948" lon="5.76447">
        <ele>1155.5</ele>
        <time>2021-10-26T11:52:13Z</time>
      </trkpt>
      <trkpt lat="44.96949" lon="5.76446">
        <ele>1155.6</ele>
        <time>2021-10-26T11:52:16Z</time>
      </trkpt>
      <trkpt lat="44.96951" lon="5.76444">
        <ele>1155.5</ele>
        <time>2021-10-26T11:52:22Z</time>
      </trkpt>
      <trkpt lat="44.96951" lon="5.76441">
        <ele>1156.1</ele>
        <time>2021-10-26T11:52:26Z</time>
      </trkpt>
      <trkpt lat="44.96951" lon="5.76438">
        <ele>1155.8</ele>
        <time>2021-10-26T11:52:29Z</time>
      </trkpt>
      <trkpt lat="44.96952" lon="5.76435">
        <ele>1155.9</ele>
        <time>2021-10-26T11:52:32Z</time>
      </trkpt>
      <trkpt lat="44.96952" lon="5.76432">
        <ele>1156.4</ele>
        <time>2021-10-26T11:52:35Z</time>
      </trkpt>
      <trkpt lat="44.96952" lon="5.76429">
        <ele>1157.2</ele>
        <time>2021-10-26T11:52:42Z</time>
      </trkpt>
      <trkpt lat="44.96952" lon="5.76426">
        <ele>1157.7</ele>
        <time>2021-10-26T11:52:47Z</time>
      </trkpt>
      <trkpt lat="44.96952" lon="5.76423">
        <ele>1158.1</ele>
        <time>2021-10-26T11:52:49Z</time>
      </trkpt>
      <trkpt lat="44.96952" lon="5.76421">
        <ele>1158</ele>
        <time>2021-10-26T11:52:51Z</time>
      </trkpt>
      <trkpt lat="44.96952" lon="5.76418">
        <ele>1159.2</ele>
        <time>2021-10-26T11:52:54Z</time>
      </trkpt>
      <trkpt lat="44.96952" lon="5.76415">
        <ele>1159.2</ele>
        <time>2021-10-26T11:52:58Z</time>
      </trkpt>
      <trkpt lat="44.96952" lon="5.76412">
        <ele>1160.2</ele>
        <time>2021-10-26T11:53:03Z</time>
      </trkpt>
      <trkpt lat="44.9695" lon="5.7641">
        <ele>1161.2</ele>
        <time>2021-10-26T11:53:09Z</time>
      </trkpt>
      <trkpt lat="44.96949" lon="5.76408">
        <ele>1161.5</ele>
        <time>2021-10-26T11:53:12Z</time>
      </trkpt>
      <trkpt lat="44.96948" lon="5.76406">
        <ele>1161.5</ele>
        <time>2021-10-26T11:53:15Z</time>
      </trkpt>
      <trkpt lat="44.96948" lon="5.76402">
        <ele>1162.3</ele>
        <time>2021-10-26T11:53:19Z</time>
      </trkpt>
      <trkpt lat="44.96948" lon="5.76399">
        <ele>1162.8</ele>
        <time>2021-10-26T11:53:23Z</time>
      </trkpt>
      <trkpt lat="44.96948" lon="5.76396">
        <ele>1162.9</ele>
        <time>2021-10-26T11:53:27Z</time>
      </trkpt>
      <trkpt lat="44.96949" lon="5.76393">
        <ele>1163.6</ele>
        <time>2021-10-26T11:53:31Z</time>
      </trkpt>
      <trkpt lat="44.96949" lon="5.7639">
        <ele>1163.8</ele>
        <time>2021-10-26T11:53:34Z</time>
      </trkpt>
      <trkpt lat="44.9695" lon="5.76387">
        <ele>1164</ele>
        <time>2021-10-26T11:53:37Z</time>
      </trkpt>
      <trkpt lat="44.9695" lon="5.76384">
        <ele>1164.7</ele>
        <time>2021-10-26T11:53:40Z</time>
      </trkpt>
      <trkpt lat="44.96952" lon="5.7638">
        <ele>1165.4</ele>
        <time>2021-10-26T11:53:44Z</time>
      </trkpt>
      <trkpt lat="44.96952" lon="5.76377">
        <ele>1165.6</ele>
        <time>2021-10-26T11:53:47Z</time>
      </trkpt>
      <trkpt lat="44.96951" lon="5.76374">
        <ele>1165.7</ele>
        <time>2021-10-26T11:53:50Z</time>
      </trkpt>
      <trkpt lat="44.96951" lon="5.76371">
        <ele>1165.9</ele>
        <time>2021-10-26T11:53:52Z</time>
      </trkpt>
      <trkpt lat="44.96953" lon="5.76369">
        <ele>1165.5</ele>
        <time>2021-10-26T11:53:54Z</time>
      </trkpt>
      <trkpt lat="44.96953" lon="5.76366">
        <ele>1166.3</ele>
        <time>2021-10-26T11:54:00Z</time>
      </trkpt>
      <trkpt lat="44.96953" lon="5.76361">
        <ele>1166</ele>
        <time>2021-10-26T11:54:02Z</time>
      </trkpt>
      <trkpt lat="44.96953" lon="5.76358">
        <ele>1166.4</ele>
        <time>2021-10-26T11:54:04Z</time>
      </trkpt>
      <trkpt lat="44.96954" lon="5.76355">
        <ele>1166.6</ele>
        <time>2021-10-26T11:54:06Z</time>
      </trkpt>
      <trkpt lat="44.96953" lon="5.76351">
        <ele>1166.4</ele>
        <time>2021-10-26T11:54:08Z</time>
      </trkpt>
      <trkpt lat="44.96953" lon="5.76348">
        <ele>1166.7</ele>
        <time>2021-10-26T11:54:10Z</time>
      </trkpt>
      <trkpt lat="44.96954" lon="5.76345">
        <ele>1167.3</ele>
        <time>2021-10-26T11:54:14Z</time>
      </trkpt>
      <trkpt lat="44.96954" lon="5.76341">
        <ele>1167.7</ele>
        <time>2021-10-26T11:54:16Z</time>
      </trkpt>
      <trkpt lat="44.96954" lon="5.76339">
        <ele>1167.9</ele>
        <time>2021-10-26T11:54:20Z</time>
      </trkpt>
      <trkpt lat="44.96955" lon="5.76335">
        <ele>1168.3</ele>
        <time>2021-10-26T11:54:23Z</time>
      </trkpt>
      <trkpt lat="44.96956" lon="5.76332">
        <ele>1168.7</ele>
        <time>2021-10-26T11:54:25Z</time>
      </trkpt>
      <trkpt lat="44.96958" lon="5.76332">
        <ele>1168.4</ele>
        <time>2021-10-26T11:54:29Z</time>
      </trkpt>
      <trkpt lat="44.96958" lon="5.76321">
        <ele>1168</ele>
        <time>2021-10-26T11:54:36Z</time>
      </trkpt>
      <trkpt lat="44.96966" lon="5.7632">
        <ele>1168.6</ele>
        <time>2021-10-26T11:54:42Z</time>
      </trkpt>
      <trkpt lat="44.96968" lon="5.76319">
        <ele>1168.8</ele>
        <time>2021-10-26T11:54:43Z</time>
      </trkpt>
      <trkpt lat="44.9697" lon="5.76316">
        <ele>1169.1</ele>
        <time>2021-10-26T11:54:45Z</time>
      </trkpt>
      <trkpt lat="44.96971" lon="5.76318">
        <ele>1169.4</ele>
        <time>2021-10-26T11:54:48Z</time>
      </trkpt>
      <trkpt lat="44.96974" lon="5.7632">
        <ele>1169.9</ele>
        <time>2021-10-26T11:54:50Z</time>
      </trkpt>
      <trkpt lat="44.96976" lon="5.76321">
        <ele>1170.2</ele>
        <time>2021-10-26T11:54:54Z</time>
      </trkpt>
      <trkpt lat="44.96978" lon="5.76319">
        <ele>1170.4</ele>
        <time>2021-10-26T11:54:58Z</time>
      </trkpt>
      <trkpt lat="44.9698" lon="5.76319">
        <ele>1170.9</ele>
        <time>2021-10-26T11:55:02Z</time>
      </trkpt>
      <trkpt lat="44.96982" lon="5.7632">
        <ele>1171.6</ele>
        <time>2021-10-26T11:55:05Z</time>
      </trkpt>
      <trkpt lat="44.96984" lon="5.76321">
        <ele>1171.6</ele>
        <time>2021-10-26T11:55:09Z</time>
      </trkpt>
      <trkpt lat="44.96985" lon="5.7632">
        <ele>1172.1</ele>
        <time>2021-10-26T11:55:11Z</time>
      </trkpt>
      <trkpt lat="44.96987" lon="5.76316">
        <ele>1172.4</ele>
        <time>2021-10-26T11:55:13Z</time>
      </trkpt>
      <trkpt lat="44.96989" lon="5.76316">
        <ele>1173.2</ele>
        <time>2021-10-26T11:55:18Z</time>
      </trkpt>
      <trkpt lat="44.96991" lon="5.76314">
        <ele>1173.3</ele>
        <time>2021-10-26T11:55:22Z</time>
      </trkpt>
      <trkpt lat="44.96993" lon="5.76313">
        <ele>1173.2</ele>
        <time>2021-10-26T11:55:25Z</time>
      </trkpt>
      <trkpt lat="44.96994" lon="5.76312">
        <ele>1173.8</ele>
        <time>2021-10-26T11:55:28Z</time>
      </trkpt>
      <trkpt lat="44.96997" lon="5.76311">
        <ele>1174.5</ele>
        <time>2021-10-26T11:55:31Z</time>
      </trkpt>
      <trkpt lat="44.96998" lon="5.7631">
        <ele>1174.8</ele>
        <time>2021-10-26T11:55:33Z</time>
      </trkpt>
      <trkpt lat="44.97" lon="5.76309">
        <ele>1175.4</ele>
        <time>2021-10-26T11:55:37Z</time>
      </trkpt>
      <trkpt lat="44.97002" lon="5.7631">
        <ele>1175.8</ele>
        <time>2021-10-26T11:55:40Z</time>
      </trkpt>
      <trkpt lat="44.97004" lon="5.76309">
        <ele>1176</ele>
        <time>2021-10-26T11:55:43Z</time>
      </trkpt>
      <trkpt lat="44.97007" lon="5.76309">
        <ele>1176.2</ele>
        <time>2021-10-26T11:55:46Z</time>
      </trkpt>
      <trkpt lat="44.97009" lon="5.76308">
        <ele>1176.7</ele>
        <time>2021-10-26T11:55:49Z</time>
      </trkpt>
      <trkpt lat="44.97011" lon="5.76308">
        <ele>1177.1</ele>
        <time>2021-10-26T11:55:52Z</time>
      </trkpt>
      <trkpt lat="44.97013" lon="5.76307">
        <ele>1177.8</ele>
        <time>2021-10-26T11:55:55Z</time>
      </trkpt>
      <trkpt lat="44.97014" lon="5.76307">
        <ele>1177.6</ele>
        <time>2021-10-26T11:55:59Z</time>
      </trkpt>
      <trkpt lat="44.97017" lon="5.76307">
        <ele>1177.8</ele>
        <time>2021-10-26T11:56:02Z</time>
      </trkpt>
      <trkpt lat="44.97019" lon="5.76307">
        <ele>1178.1</ele>
        <time>2021-10-26T11:56:05Z</time>
      </trkpt>
      <trkpt lat="44.97021" lon="5.76307">
        <ele>1178.2</ele>
        <time>2021-10-26T11:56:09Z</time>
      </trkpt>
      <trkpt lat="44.97024" lon="5.76307">
        <ele>1178.5</ele>
        <time>2021-10-26T11:56:12Z</time>
      </trkpt>
      <trkpt lat="44.97026" lon="5.76305">
        <ele>1178.4</ele>
        <time>2021-10-26T11:56:15Z</time>
      </trkpt>
      <trkpt lat="44.97028" lon="5.76304">
        <ele>1178.8</ele>
        <time>2021-10-26T11:56:18Z</time>
      </trkpt>
      <trkpt lat="44.9703" lon="5.76303">
        <ele>1179.1</ele>
        <time>2021-10-26T11:56:21Z</time>
      </trkpt>
      <trkpt lat="44.97032" lon="5.76302">
        <ele>1180</ele>
        <time>2021-10-26T11:56:24Z</time>
      </trkpt>
      <trkpt lat="44.97034" lon="5.763">
        <ele>1180.2</ele>
        <time>2021-10-26T11:56:28Z</time>
      </trkpt>
      <trkpt lat="44.97036" lon="5.76299">
        <ele>1180.9</ele>
        <time>2021-10-26T11:56:31Z</time>
      </trkpt>
      <trkpt lat="44.97038" lon="5.76299">
        <ele>1181.1</ele>
        <time>2021-10-26T11:56:34Z</time>
      </trkpt>
      <trkpt lat="44.9704" lon="5.76298">
        <ele>1181.7</ele>
        <time>2021-10-26T11:56:36Z</time>
      </trkpt>
      <trkpt lat="44.97042" lon="5.76299">
        <ele>1181.8</ele>
        <time>2021-10-26T11:56:39Z</time>
      </trkpt>
      <trkpt lat="44.97045" lon="5.76299">
        <ele>1182.4</ele>
        <time>2021-10-26T11:56:42Z</time>
      </trkpt>
      <trkpt lat="44.97047" lon="5.76298">
        <ele>1183</ele>
        <time>2021-10-26T11:56:45Z</time>
      </trkpt>
      <trkpt lat="44.97049" lon="5.76298">
        <ele>1182.8</ele>
        <time>2021-10-26T11:56:48Z</time>
      </trkpt>
      <trkpt lat="44.97051" lon="5.76297">
        <ele>1183.3</ele>
        <time>2021-10-26T11:56:51Z</time>
      </trkpt>
      <trkpt lat="44.97053" lon="5.76296">
        <ele>1183.7</ele>
        <time>2021-10-26T11:56:54Z</time>
      </trkpt>
      <trkpt lat="44.97055" lon="5.76295">
        <ele>1184</ele>
        <time>2021-10-26T11:56:57Z</time>
      </trkpt>
      <trkpt lat="44.97057" lon="5.76295">
        <ele>1184.1</ele>
        <time>2021-10-26T11:57:00Z</time>
      </trkpt>
      <trkpt lat="44.97059" lon="5.76296">
        <ele>1184.5</ele>
        <time>2021-10-26T11:57:04Z</time>
      </trkpt>
      <trkpt lat="44.9706" lon="5.76293">
        <ele>1184.6</ele>
        <time>2021-10-26T11:57:07Z</time>
      </trkpt>
      <trkpt lat="44.97062" lon="5.76293">
        <ele>1185.1</ele>
        <time>2021-10-26T11:57:11Z</time>
      </trkpt>
      <trkpt lat="44.97064" lon="5.76291">
        <ele>1185.7</ele>
        <time>2021-10-26T11:57:13Z</time>
      </trkpt>
      <trkpt lat="44.97065" lon="5.76288">
        <ele>1185.5</ele>
        <time>2021-10-26T11:57:15Z</time>
      </trkpt>
      <trkpt lat="44.97067" lon="5.76288">
        <ele>1186.1</ele>
        <time>2021-10-26T11:57:19Z</time>
      </trkpt>
      <trkpt lat="44.9707" lon="5.76289">
        <ele>1186.6</ele>
        <time>2021-10-26T11:57:22Z</time>
      </trkpt>
      <trkpt lat="44.97072" lon="5.76288">
        <ele>1186.2</ele>
        <time>2021-10-26T11:57:25Z</time>
      </trkpt>
      <trkpt lat="44.97073" lon="5.76286">
        <ele>1186.6</ele>
        <time>2021-10-26T11:57:27Z</time>
      </trkpt>
      <trkpt lat="44.97075" lon="5.76284">
        <ele>1186.9</ele>
        <time>2021-10-26T11:57:31Z</time>
      </trkpt>
      <trkpt lat="44.97076" lon="5.76282">
        <ele>1187.5</ele>
        <time>2021-10-26T11:57:34Z</time>
      </trkpt>
      <trkpt lat="44.97078" lon="5.76281">
        <ele>1187.3</ele>
        <time>2021-10-26T11:57:37Z</time>
      </trkpt>
      <trkpt lat="44.9708" lon="5.76279">
        <ele>1187.8</ele>
        <time>2021-10-26T11:57:40Z</time>
      </trkpt>
      <trkpt lat="44.97081" lon="5.76277">
        <ele>1187.9</ele>
        <time>2021-10-26T11:57:42Z</time>
      </trkpt>
      <trkpt lat="44.97083" lon="5.76277">
        <ele>1188.5</ele>
        <time>2021-10-26T11:57:45Z</time>
      </trkpt>
      <trkpt lat="44.97085" lon="5.76276">
        <ele>1189.1</ele>
        <time>2021-10-26T11:57:47Z</time>
      </trkpt>
      <trkpt lat="44.97087" lon="5.76277">
        <ele>1189.1</ele>
        <time>2021-10-26T11:57:50Z</time>
      </trkpt>
      <trkpt lat="44.97089" lon="5.76277">
        <ele>1189.7</ele>
        <time>2021-10-26T11:57:54Z</time>
      </trkpt>
      <trkpt lat="44.9709" lon="5.76274">
        <ele>1190</ele>
        <time>2021-10-26T11:57:57Z</time>
      </trkpt>
      <trkpt lat="44.97091" lon="5.76272">
        <ele>1190.4</ele>
        <time>2021-10-26T11:57:59Z</time>
      </trkpt>
      <trkpt lat="44.97093" lon="5.7627">
        <ele>1190.9</ele>
        <time>2021-10-26T11:58:03Z</time>
      </trkpt>
      <trkpt lat="44.97096" lon="5.7627">
        <ele>1191</ele>
        <time>2021-10-26T11:58:06Z</time>
      </trkpt>
      <trkpt lat="44.97097" lon="5.76269">
        <ele>1191.2</ele>
        <time>2021-10-26T11:58:09Z</time>
      </trkpt>
      <trkpt lat="44.97099" lon="5.76268">
        <ele>1191.6</ele>
        <time>2021-10-26T11:58:13Z</time>
      </trkpt>
      <trkpt lat="44.97102" lon="5.76268">
        <ele>1191.9</ele>
        <time>2021-10-26T11:58:16Z</time>
      </trkpt>
      <trkpt lat="44.97103" lon="5.76265">
        <ele>1192.5</ele>
        <time>2021-10-26T11:58:19Z</time>
      </trkpt>
      <trkpt lat="44.97106" lon="5.76265">
        <ele>1191.9</ele>
        <time>2021-10-26T11:58:22Z</time>
      </trkpt>
      <trkpt lat="44.97107" lon="5.76263">
        <ele>1192.7</ele>
        <time>2021-10-26T11:58:25Z</time>
      </trkpt>
      <trkpt lat="44.9711" lon="5.76262">
        <ele>1193.3</ele>
        <time>2021-10-26T11:58:29Z</time>
      </trkpt>
      <trkpt lat="44.97112" lon="5.76262">
        <ele>1193.4</ele>
        <time>2021-10-26T11:58:32Z</time>
      </trkpt>
      <trkpt lat="44.97114" lon="5.76261">
        <ele>1194.1</ele>
        <time>2021-10-26T11:58:36Z</time>
      </trkpt>
      <trkpt lat="44.97115" lon="5.76258">
        <ele>1194.6</ele>
        <time>2021-10-26T11:58:39Z</time>
      </trkpt>
      <trkpt lat="44.97117" lon="5.76257">
        <ele>1194.5</ele>
        <time>2021-10-26T11:58:42Z</time>
      </trkpt>
      <trkpt lat="44.97119" lon="5.76256">
        <ele>1195</ele>
        <time>2021-10-26T11:58:45Z</time>
      </trkpt>
      <trkpt lat="44.97121" lon="5.76254">
        <ele>1195.5</ele>
        <time>2021-10-26T11:58:48Z</time>
      </trkpt>
      <trkpt lat="44.97123" lon="5.76252">
        <ele>1195.7</ele>
        <time>2021-10-26T11:58:51Z</time>
      </trkpt>
      <trkpt lat="44.97123" lon="5.7625">
        <ele>1196.1</ele>
        <time>2021-10-26T11:58:53Z</time>
      </trkpt>
      <trkpt lat="44.97125" lon="5.76247">
        <ele>1196.3</ele>
        <time>2021-10-26T11:58:55Z</time>
      </trkpt>
      <trkpt lat="44.97127" lon="5.76246">
        <ele>1196.6</ele>
        <time>2021-10-26T11:58:58Z</time>
      </trkpt>
      <trkpt lat="44.97129" lon="5.76244">
        <ele>1196.7</ele>
        <time>2021-10-26T11:59:01Z</time>
      </trkpt>
      <trkpt lat="44.97131" lon="5.76243">
        <ele>1196.8</ele>
        <time>2021-10-26T11:59:04Z</time>
      </trkpt>
      <trkpt lat="44.97133" lon="5.7624">
        <ele>1197.7</ele>
        <time>2021-10-26T11:59:08Z</time>
      </trkpt>
      <trkpt lat="44.97133" lon="5.76238">
        <ele>1197.9</ele>
        <time>2021-10-26T11:59:10Z</time>
      </trkpt>
      <trkpt lat="44.97134" lon="5.76236">
        <ele>1198</ele>
        <time>2021-10-26T11:59:12Z</time>
      </trkpt>
      <trkpt lat="44.97135" lon="5.76233">
        <ele>1197.9</ele>
        <time>2021-10-26T11:59:14Z</time>
      </trkpt>
      <trkpt lat="44.97137" lon="5.76231">
        <ele>1198.6</ele>
        <time>2021-10-26T11:59:17Z</time>
      </trkpt>
      <trkpt lat="44.97138" lon="5.7623">
        <ele>1198.9</ele>
        <time>2021-10-26T11:59:21Z</time>
      </trkpt>
      <trkpt lat="44.97139" lon="5.76227">
        <ele>1198.9</ele>
        <time>2021-10-26T11:59:23Z</time>
      </trkpt>
      <trkpt lat="44.9714" lon="5.76225">
        <ele>1199.4</ele>
        <time>2021-10-26T11:59:26Z</time>
      </trkpt>
      <trkpt lat="44.97141" lon="5.76223">
        <ele>1200.2</ele>
        <time>2021-10-26T11:59:30Z</time>
      </trkpt>
      <trkpt lat="44.97143" lon="5.76221">
        <ele>1200.8</ele>
        <time>2021-10-26T11:59:33Z</time>
      </trkpt>
      <trkpt lat="44.97145" lon="5.76221">
        <ele>1201.7</ele>
        <time>2021-10-26T11:59:38Z</time>
      </trkpt>
      <trkpt lat="44.97146" lon="5.76219">
        <ele>1202.3</ele>
        <time>2021-10-26T11:59:43Z</time>
      </trkpt>
      <trkpt lat="44.97148" lon="5.76217">
        <ele>1202.8</ele>
        <time>2021-10-26T11:59:49Z</time>
      </trkpt>
      <trkpt lat="44.9715" lon="5.76215">
        <ele>1202.8</ele>
        <time>2021-10-26T11:59:52Z</time>
      </trkpt>
      <trkpt lat="44.9715" lon="5.76211">
        <ele>1203.3</ele>
        <time>2021-10-26T11:59:54Z</time>
      </trkpt>
      <trkpt lat="44.97151" lon="5.76208">
        <ele>1203.6</ele>
        <time>2021-10-26T11:59:57Z</time>
      </trkpt>
      <trkpt lat="44.97151" lon="5.76204">
        <ele>1204.1</ele>
        <time>2021-10-26T12:00:00Z</time>
      </trkpt>
      <trkpt lat="44.97152" lon="5.76202">
        <ele>1204.4</ele>
        <time>2021-10-26T12:00:02Z</time>
      </trkpt>
      <trkpt lat="44.97154" lon="5.76199">
        <ele>1204.6</ele>
        <time>2021-10-26T12:00:05Z</time>
      </trkpt>
      <trkpt lat="44.97155" lon="5.76196">
        <ele>1204.8</ele>
        <time>2021-10-26T12:00:10Z</time>
      </trkpt>
      <trkpt lat="44.97156" lon="5.76194">
        <ele>1206</ele>
        <time>2021-10-26T12:00:17Z</time>
      </trkpt>
      <trkpt lat="44.97158" lon="5.76192">
        <ele>1206.5</ele>
        <time>2021-10-26T12:00:22Z</time>
      </trkpt>
      <trkpt lat="44.97159" lon="5.7619">
        <ele>1206.9</ele>
        <time>2021-10-26T12:00:26Z</time>
      </trkpt>
      <trkpt lat="44.97159" lon="5.76187">
        <ele>1207.1</ele>
        <time>2021-10-26T12:00:28Z</time>
      </trkpt>
      <trkpt lat="44.97159" lon="5.76184">
        <ele>1207</ele>
        <time>2021-10-26T12:00:31Z</time>
      </trkpt>
      <trkpt lat="44.9716" lon="5.76181">
        <ele>1207.2</ele>
        <time>2021-10-26T12:00:35Z</time>
      </trkpt>
      <trkpt lat="44.97162" lon="5.76178">
        <ele>1207.8</ele>
        <time>2021-10-26T12:00:40Z</time>
      </trkpt>
      <trkpt lat="44.97162" lon="5.76175">
        <ele>1207.8</ele>
        <time>2021-10-26T12:00:43Z</time>
      </trkpt>
      <trkpt lat="44.97162" lon="5.76172">
        <ele>1208</ele>
        <time>2021-10-26T12:00:46Z</time>
      </trkpt>
      <trkpt lat="44.97163" lon="5.7617">
        <ele>1208.7</ele>
        <time>2021-10-26T12:00:49Z</time>
      </trkpt>
      <trkpt lat="44.97164" lon="5.76167">
        <ele>1209.6</ele>
        <time>2021-10-26T12:00:53Z</time>
      </trkpt>
      <trkpt lat="44.97165" lon="5.76163">
        <ele>1210.1</ele>
        <time>2021-10-26T12:00:56Z</time>
      </trkpt>
      <trkpt lat="44.97166" lon="5.76161">
        <ele>1210.4</ele>
        <time>2021-10-26T12:00:59Z</time>
      </trkpt>
      <trkpt lat="44.97167" lon="5.76158">
        <ele>1210</ele>
        <time>2021-10-26T12:01:01Z</time>
      </trkpt>
      <trkpt lat="44.97169" lon="5.76156">
        <ele>1210.4</ele>
        <time>2021-10-26T12:01:03Z</time>
      </trkpt>
      <trkpt lat="44.9717" lon="5.76153">
        <ele>1210.4</ele>
        <time>2021-10-26T12:01:14Z</time>
      </trkpt>
      <trkpt lat="44.97171" lon="5.76153">
        <ele>1209.7</ele>
        <time>2021-10-26T12:01:28Z</time>
      </trkpt>
      <trkpt lat="44.97171" lon="5.7615">
        <ele>1209.5</ele>
        <time>2021-10-26T12:01:39Z</time>
      </trkpt>
      <trkpt lat="44.97169" lon="5.76147">
        <ele>1209.5</ele>
        <time>2021-10-26T12:01:55Z</time>
      </trkpt>
      <trkpt lat="44.97169" lon="5.76145">
        <ele>1210</ele>
        <time>2021-10-26T12:02:06Z</time>
      </trkpt>
      <trkpt lat="44.97171" lon="5.76145">
        <ele>1210.7</ele>
        <time>2021-10-26T12:02:14Z</time>
      </trkpt>
      <trkpt lat="44.97173" lon="5.76143">
        <ele>1210.6</ele>
        <time>2021-10-26T12:02:24Z</time>
      </trkpt>
      <trkpt lat="44.97173" lon="5.7614">
        <ele>1210</ele>
        <time>2021-10-26T12:02:27Z</time>
      </trkpt>
      <trkpt lat="44.97174" lon="5.76136">
        <ele>1210</ele>
        <time>2021-10-26T12:02:29Z</time>
      </trkpt>
      <trkpt lat="44.97174" lon="5.76133">
        <ele>1210.2</ele>
        <time>2021-10-26T12:02:32Z</time>
      </trkpt>
      <trkpt lat="44.97174" lon="5.7613">
        <ele>1210</ele>
        <time>2021-10-26T12:02:37Z</time>
      </trkpt>
      <trkpt lat="44.97175" lon="5.76127">
        <ele>1210.1</ele>
        <time>2021-10-26T12:02:44Z</time>
      </trkpt>
      <trkpt lat="44.97176" lon="5.76125">
        <ele>1210.2</ele>
        <time>2021-10-26T12:02:52Z</time>
      </trkpt>
      <trkpt lat="44.97178" lon="5.76125">
        <ele>1210.5</ele>
        <time>2021-10-26T12:03:12Z</time>
      </trkpt>
      <trkpt lat="44.9718" lon="5.76126">
        <ele>1209.7</ele>
        <time>2021-10-26T12:03:22Z</time>
      </trkpt>
      <trkpt lat="44.97181" lon="5.76128">
        <ele>1209.5</ele>
        <time>2021-10-26T12:03:30Z</time>
      </trkpt>
      <trkpt lat="44.97181" lon="5.76131">
        <ele>1209.4</ele>
        <time>2021-10-26T12:03:35Z</time>
      </trkpt>
      <trkpt lat="44.97182" lon="5.76134">
        <ele>1209.6</ele>
        <time>2021-10-26T12:03:44Z</time>
      </trkpt>
      <trkpt lat="44.97182" lon="5.76136">
        <ele>1209.6</ele>
        <time>2021-10-26T12:03:51Z</time>
      </trkpt>
      <trkpt lat="44.97182" lon="5.76139">
        <ele>1209.7</ele>
        <time>2021-10-26T12:03:55Z</time>
      </trkpt>
      <trkpt lat="44.97184" lon="5.7614">
        <ele>1208.2</ele>
        <time>2021-10-26T12:04:12Z</time>
      </trkpt>
      <trkpt lat="44.97184" lon="5.76142">
        <ele>1208.4</ele>
        <time>2021-10-26T12:04:27Z</time>
      </trkpt>
      <trkpt lat="44.97185" lon="5.76145">
        <ele>1210.2</ele>
        <time>2021-10-26T12:04:54Z</time>
      </trkpt>
      <trkpt lat="44.97183" lon="5.76143">
        <ele>1209.8</ele>
        <time>2021-10-26T12:05:31Z</time>
      </trkpt>
      <trkpt lat="44.97182" lon="5.76142">
        <ele>1209.5</ele>
        <time>2021-10-26T12:05:48Z</time>
      </trkpt>
      <trkpt lat="44.97181" lon="5.76144">
        <ele>1209.6</ele>
        <time>2021-10-26T12:06:19Z</time>
      </trkpt>
      <trkpt lat="44.97183" lon="5.76144">
        <ele>1209.7</ele>
        <time>2021-10-26T12:06:26Z</time>
      </trkpt>
      <trkpt lat="44.97185" lon="5.76146">
        <ele>1210.2</ele>
        <time>2021-10-26T12:06:48Z</time>
      </trkpt>
      <trkpt lat="44.97183" lon="5.76145">
        <ele>1210</ele>
        <time>2021-10-26T12:06:58Z</time>
      </trkpt>
      <trkpt lat="44.97181" lon="5.76144">
        <ele>1209.6</ele>
        <time>2021-10-26T12:07:01Z</time>
      </trkpt>
      <trkpt lat="44.97179" lon="5.76142">
        <ele>1209.8</ele>
        <time>2021-10-26T12:07:05Z</time>
      </trkpt>
      <trkpt lat="44.97178" lon="5.76139">
        <ele>1209.7</ele>
        <time>2021-10-26T12:07:10Z</time>
      </trkpt>
      <trkpt lat="44.97178" lon="5.76135">
        <ele>1210.5</ele>
        <time>2021-10-26T12:07:14Z</time>
      </trkpt>
      <trkpt lat="44.97178" lon="5.76132">
        <ele>1210.9</ele>
        <time>2021-10-26T12:07:17Z</time>
      </trkpt>
      <trkpt lat="44.97179" lon="5.76129">
        <ele>1211.3</ele>
        <time>2021-10-26T12:07:21Z</time>
      </trkpt>
      <trkpt lat="44.97178" lon="5.76126">
        <ele>1212.1</ele>
        <time>2021-10-26T12:07:26Z</time>
      </trkpt>
      <trkpt lat="44.97179" lon="5.76123">
        <ele>1212.6</ele>
        <time>2021-10-26T12:07:32Z</time>
      </trkpt>
      <trkpt lat="44.97181" lon="5.76121">
        <ele>1213</ele>
        <time>2021-10-26T12:07:36Z</time>
      </trkpt>
      <trkpt lat="44.97183" lon="5.7612">
        <ele>1213.2</ele>
        <time>2021-10-26T12:07:39Z</time>
      </trkpt>
      <trkpt lat="44.97185" lon="5.76119">
        <ele>1213</ele>
        <time>2021-10-26T12:07:42Z</time>
      </trkpt>
      <trkpt lat="44.97186" lon="5.76117">
        <ele>1213.2</ele>
        <time>2021-10-26T12:07:44Z</time>
      </trkpt>
      <trkpt lat="44.97187" lon="5.76114">
        <ele>1213.8</ele>
        <time>2021-10-26T12:07:47Z</time>
      </trkpt>
      <trkpt lat="44.97189" lon="5.76112">
        <ele>1214.4</ele>
        <time>2021-10-26T12:07:50Z</time>
      </trkpt>
      <trkpt lat="44.97191" lon="5.76109">
        <ele>1214.5</ele>
        <time>2021-10-26T12:07:52Z</time>
      </trkpt>
      <trkpt lat="44.97192" lon="5.76108">
        <ele>1214.7</ele>
        <time>2021-10-26T12:07:55Z</time>
      </trkpt>
      <trkpt lat="44.97193" lon="5.76104">
        <ele>1214.7</ele>
        <time>2021-10-26T12:07:57Z</time>
      </trkpt>
      <trkpt lat="44.97195" lon="5.76101">
        <ele>1214.9</ele>
        <time>2021-10-26T12:08:00Z</time>
      </trkpt>
      <trkpt lat="44.97196" lon="5.76098">
        <ele>1215.6</ele>
        <time>2021-10-26T12:08:03Z</time>
      </trkpt>
      <trkpt lat="44.97198" lon="5.76096">
        <ele>1215.7</ele>
        <time>2021-10-26T12:08:06Z</time>
      </trkpt>
      <trkpt lat="44.97199" lon="5.76095">
        <ele>1215.9</ele>
        <time>2021-10-26T12:08:09Z</time>
      </trkpt>
      <trkpt lat="44.97202" lon="5.76093">
        <ele>1216.3</ele>
        <time>2021-10-26T12:08:12Z</time>
      </trkpt>
      <trkpt lat="44.97203" lon="5.7609">
        <ele>1216.5</ele>
        <time>2021-10-26T12:08:15Z</time>
      </trkpt>
      <trkpt lat="44.97204" lon="5.76088">
        <ele>1216.6</ele>
        <time>2021-10-26T12:08:18Z</time>
      </trkpt>
      <trkpt lat="44.97206" lon="5.76087">
        <ele>1217.1</ele>
        <time>2021-10-26T12:08:22Z</time>
      </trkpt>
      <trkpt lat="44.97208" lon="5.76085">
        <ele>1217.4</ele>
        <time>2021-10-26T12:08:26Z</time>
      </trkpt>
      <trkpt lat="44.97209" lon="5.76082">
        <ele>1217.8</ele>
        <time>2021-10-26T12:08:28Z</time>
      </trkpt>
      <trkpt lat="44.9721" lon="5.76079">
        <ele>1218</ele>
        <time>2021-10-26T12:08:31Z</time>
      </trkpt>
      <trkpt lat="44.97212" lon="5.76077">
        <ele>1218.2</ele>
        <time>2021-10-26T12:08:34Z</time>
      </trkpt>
      <trkpt lat="44.97214" lon="5.76074">
        <ele>1218.5</ele>
        <time>2021-10-26T12:08:37Z</time>
      </trkpt>
      <trkpt lat="44.97215" lon="5.76071">
        <ele>1218.5</ele>
        <time>2021-10-26T12:08:40Z</time>
      </trkpt>
      <trkpt lat="44.97216" lon="5.76069">
        <ele>1218.7</ele>
        <time>2021-10-26T12:08:42Z</time>
      </trkpt>
      <trkpt lat="44.97218" lon="5.76067">
        <ele>1219.2</ele>
        <time>2021-10-26T12:08:45Z</time>
      </trkpt>
      <trkpt lat="44.97219" lon="5.76064">
        <ele>1219.6</ele>
        <time>2021-10-26T12:08:48Z</time>
      </trkpt>
      <trkpt lat="44.97221" lon="5.76063">
        <ele>1219.9</ele>
        <time>2021-10-26T12:08:52Z</time>
      </trkpt>
      <trkpt lat="44.97223" lon="5.76061">
        <ele>1220.3</ele>
        <time>2021-10-26T12:08:55Z</time>
      </trkpt>
      <trkpt lat="44.97224" lon="5.76059">
        <ele>1220.6</ele>
        <time>2021-10-26T12:08:58Z</time>
      </trkpt>
      <trkpt lat="44.97226" lon="5.76057">
        <ele>1220.8</ele>
        <time>2021-10-26T12:09:00Z</time>
      </trkpt>
      <trkpt lat="44.97227" lon="5.76056">
        <ele>1220.9</ele>
        <time>2021-10-26T12:09:02Z</time>
      </trkpt>
      <trkpt lat="44.97229" lon="5.76054">
        <ele>1220.8</ele>
        <time>2021-10-26T12:09:05Z</time>
      </trkpt>
      <trkpt lat="44.9723" lon="5.76052">
        <ele>1221.1</ele>
        <time>2021-10-26T12:09:08Z</time>
      </trkpt>
      <trkpt lat="44.97231" lon="5.76049">
        <ele>1221.2</ele>
        <time>2021-10-26T12:09:11Z</time>
      </trkpt>
      <trkpt lat="44.97233" lon="5.76048">
        <ele>1221.2</ele>
        <time>2021-10-26T12:09:13Z</time>
      </trkpt>
      <trkpt lat="44.97235" lon="5.76047">
        <ele>1221.5</ele>
        <time>2021-10-26T12:09:15Z</time>
      </trkpt>
      <trkpt lat="44.97237" lon="5.76046">
        <ele>1222.4</ele>
        <time>2021-10-26T12:09:19Z</time>
      </trkpt>
      <trkpt lat="44.97238" lon="5.76046">
        <ele>1222.5</ele>
        <time>2021-10-26T12:09:22Z</time>
      </trkpt>
      <trkpt lat="44.9724" lon="5.76044">
        <ele>1223.3</ele>
        <time>2021-10-26T12:09:26Z</time>
      </trkpt>
      <trkpt lat="44.97241" lon="5.76041">
        <ele>1223.7</ele>
        <time>2021-10-26T12:09:29Z</time>
      </trkpt>
      <trkpt lat="44.97243" lon="5.76038">
        <ele>1223.8</ele>
        <time>2021-10-26T12:09:31Z</time>
      </trkpt>
      <trkpt lat="44.97245" lon="5.76036">
        <ele>1224</ele>
        <time>2021-10-26T12:09:33Z</time>
      </trkpt>
      <trkpt lat="44.97247" lon="5.76036">
        <ele>1223.6</ele>
        <time>2021-10-26T12:09:36Z</time>
      </trkpt>
      <trkpt lat="44.97249" lon="5.76033">
        <ele>1223.6</ele>
        <time>2021-10-26T12:09:40Z</time>
      </trkpt>
      <trkpt lat="44.9725" lon="5.76032">
        <ele>1224.1</ele>
        <time>2021-10-26T12:09:42Z</time>
      </trkpt>
      <trkpt lat="44.97252" lon="5.76029">
        <ele>1224.5</ele>
        <time>2021-10-26T12:09:44Z</time>
      </trkpt>
      <trkpt lat="44.97254" lon="5.76028">
        <ele>1224.6</ele>
        <time>2021-10-26T12:09:47Z</time>
      </trkpt>
      <trkpt lat="44.97256" lon="5.76027">
        <ele>1224.9</ele>
        <time>2021-10-26T12:09:50Z</time>
      </trkpt>
      <trkpt lat="44.97259" lon="5.76026">
        <ele>1225.4</ele>
        <time>2021-10-26T12:09:52Z</time>
      </trkpt>
      <trkpt lat="44.97261" lon="5.76025">
        <ele>1225.5</ele>
        <time>2021-10-26T12:09:54Z</time>
      </trkpt>
      <trkpt lat="44.97263" lon="5.76024">
        <ele>1225.8</ele>
        <time>2021-10-26T12:09:57Z</time>
      </trkpt>
      <trkpt lat="44.97266" lon="5.76024">
        <ele>1225.7</ele>
        <time>2021-10-26T12:10:00Z</time>
      </trkpt>
      <trkpt lat="44.97268" lon="5.76023">
        <ele>1226.1</ele>
        <time>2021-10-26T12:10:03Z</time>
      </trkpt>
      <trkpt lat="44.9727" lon="5.76022">
        <ele>1226.4</ele>
        <time>2021-10-26T12:10:06Z</time>
      </trkpt>
      <trkpt lat="44.97272" lon="5.76022">
        <ele>1227.4</ele>
        <time>2021-10-26T12:10:09Z</time>
      </trkpt>
      <trkpt lat="44.97275" lon="5.76021">
        <ele>1228.1</ele>
        <time>2021-10-26T12:10:12Z</time>
      </trkpt>
      <trkpt lat="44.97277" lon="5.76022">
        <ele>1228</ele>
        <time>2021-10-26T12:10:14Z</time>
      </trkpt>
      <trkpt lat="44.97279" lon="5.76022">
        <ele>1227.9</ele>
        <time>2021-10-26T12:10:17Z</time>
      </trkpt>
      <trkpt lat="44.97282" lon="5.76023">
        <ele>1228.7</ele>
        <time>2021-10-26T12:10:21Z</time>
      </trkpt>
      <trkpt lat="44.97284" lon="5.76024">
        <ele>1228.5</ele>
        <time>2021-10-26T12:10:24Z</time>
      </trkpt>
      <trkpt lat="44.97286" lon="5.76024">
        <ele>1228.8</ele>
        <time>2021-10-26T12:10:27Z</time>
      </trkpt>
      <trkpt lat="44.97288" lon="5.76025">
        <ele>1229.1</ele>
        <time>2021-10-26T12:10:31Z</time>
      </trkpt>
      <trkpt lat="44.9729" lon="5.76026">
        <ele>1229.8</ele>
        <time>2021-10-26T12:10:34Z</time>
      </trkpt>
      <trkpt lat="44.97292" lon="5.76026">
        <ele>1230</ele>
        <time>2021-10-26T12:10:38Z</time>
      </trkpt>
      <trkpt lat="44.97294" lon="5.76026">
        <ele>1230.7</ele>
        <time>2021-10-26T12:10:42Z</time>
      </trkpt>
      <trkpt lat="44.97296" lon="5.76026">
        <ele>1231.2</ele>
        <time>2021-10-26T12:10:46Z</time>
      </trkpt>
      <trkpt lat="44.97298" lon="5.76025">
        <ele>1231.8</ele>
        <time>2021-10-26T12:10:49Z</time>
      </trkpt>
      <trkpt lat="44.973" lon="5.76025">
        <ele>1232.2</ele>
        <time>2021-10-26T12:10:52Z</time>
      </trkpt>
      <trkpt lat="44.97301" lon="5.76025">
        <ele>1232.4</ele>
        <time>2021-10-26T12:10:54Z</time>
      </trkpt>
      <trkpt lat="44.97303" lon="5.76026">
        <ele>1232.6</ele>
        <time>2021-10-26T12:10:57Z</time>
      </trkpt>
      <trkpt lat="44.97305" lon="5.76026">
        <ele>1232.6</ele>
        <time>2021-10-26T12:11:00Z</time>
      </trkpt>
      <trkpt lat="44.97307" lon="5.76027">
        <ele>1232.7</ele>
        <time>2021-10-26T12:11:03Z</time>
      </trkpt>
      <trkpt lat="44.97309" lon="5.76027">
        <ele>1233.5</ele>
        <time>2021-10-26T12:11:08Z</time>
      </trkpt>
      <trkpt lat="44.97311" lon="5.76028">
        <ele>1233.6</ele>
        <time>2021-10-26T12:11:12Z</time>
      </trkpt>
      <trkpt lat="44.97313" lon="5.76029">
        <ele>1233.8</ele>
        <time>2021-10-26T12:11:15Z</time>
      </trkpt>
      <trkpt lat="44.97315" lon="5.76029">
        <ele>1233.7</ele>
        <time>2021-10-26T12:11:18Z</time>
      </trkpt>
      <trkpt lat="44.97317" lon="5.7603">
        <ele>1234</ele>
        <time>2021-10-26T12:11:22Z</time>
      </trkpt>
      <trkpt lat="44.97319" lon="5.7603">
        <ele>1234.2</ele>
        <time>2021-10-26T12:11:26Z</time>
      </trkpt>
      <trkpt lat="44.97321" lon="5.76031">
        <ele>1234.8</ele>
        <time>2021-10-26T12:11:29Z</time>
      </trkpt>
      <trkpt lat="44.97323" lon="5.76032">
        <ele>1235.1</ele>
        <time>2021-10-26T12:11:32Z</time>
      </trkpt>
      <trkpt lat="44.97325" lon="5.76034">
        <ele>1235.7</ele>
        <time>2021-10-26T12:11:34Z</time>
      </trkpt>
      <trkpt lat="44.97327" lon="5.76034">
        <ele>1235.9</ele>
        <time>2021-10-26T12:11:36Z</time>
      </trkpt>
      <trkpt lat="44.97329" lon="5.76035">
        <ele>1236.2</ele>
        <time>2021-10-26T12:11:39Z</time>
      </trkpt>
      <trkpt lat="44.97332" lon="5.76035">
        <ele>1236.3</ele>
        <time>2021-10-26T12:11:42Z</time>
      </trkpt>
      <trkpt lat="44.97334" lon="5.76035">
        <ele>1236.3</ele>
        <time>2021-10-26T12:11:45Z</time>
      </trkpt>
      <trkpt lat="44.97336" lon="5.76035">
        <ele>1236.7</ele>
        <time>2021-10-26T12:11:47Z</time>
      </trkpt>
      <trkpt lat="44.97338" lon="5.76034">
        <ele>1236.8</ele>
        <time>2021-10-26T12:11:49Z</time>
      </trkpt>
      <trkpt lat="44.9734" lon="5.76035">
        <ele>1236.9</ele>
        <time>2021-10-26T12:11:52Z</time>
      </trkpt>
      <trkpt lat="44.97343" lon="5.76036">
        <ele>1237.4</ele>
        <time>2021-10-26T12:11:55Z</time>
      </trkpt>
      <trkpt lat="44.97345" lon="5.76036">
        <ele>1238</ele>
        <time>2021-10-26T12:11:58Z</time>
      </trkpt>
      <trkpt lat="44.97346" lon="5.76038">
        <ele>1238.3</ele>
        <time>2021-10-26T12:12:00Z</time>
      </trkpt>
      <trkpt lat="44.97348" lon="5.76038">
        <ele>1238.6</ele>
        <time>2021-10-26T12:12:02Z</time>
      </trkpt>
      <trkpt lat="44.9735" lon="5.76038">
        <ele>1238.7</ele>
        <time>2021-10-26T12:12:06Z</time>
      </trkpt>
      <trkpt lat="44.97352" lon="5.76039">
        <ele>1238.6</ele>
        <time>2021-10-26T12:12:09Z</time>
      </trkpt>
      <trkpt lat="44.97354" lon="5.76041">
        <ele>1239</ele>
        <time>2021-10-26T12:12:11Z</time>
      </trkpt>
      <trkpt lat="44.97356" lon="5.76041">
        <ele>1239.7</ele>
        <time>2021-10-26T12:12:14Z</time>
      </trkpt>
      <trkpt lat="44.97359" lon="5.76042">
        <ele>1239.9</ele>
        <time>2021-10-26T12:12:18Z</time>
      </trkpt>
      <trkpt lat="44.97361" lon="5.76042">
        <ele>1240.1</ele>
        <time>2021-10-26T12:12:20Z</time>
      </trkpt>
      <trkpt lat="44.97362" lon="5.76041">
        <ele>1240.4</ele>
        <time>2021-10-26T12:12:22Z</time>
      </trkpt>
      <trkpt lat="44.97364" lon="5.7604">
        <ele>1240.7</ele>
        <time>2021-10-26T12:12:24Z</time>
      </trkpt>
      <trkpt lat="44.97367" lon="5.76039">
        <ele>1241.1</ele>
        <time>2021-10-26T12:12:27Z</time>
      </trkpt>
      <trkpt lat="44.97369" lon="5.76039">
        <ele>1241.7</ele>
        <time>2021-10-26T12:12:31Z</time>
      </trkpt>
      <trkpt lat="44.97371" lon="5.76038">
        <ele>1242.2</ele>
        <time>2021-10-26T12:12:35Z</time>
      </trkpt>
      <trkpt lat="44.97373" lon="5.76037">
        <ele>1242.3</ele>
        <time>2021-10-26T12:12:37Z</time>
      </trkpt>
      <trkpt lat="44.97375" lon="5.76036">
        <ele>1242.6</ele>
        <time>2021-10-26T12:12:39Z</time>
      </trkpt>
      <trkpt lat="44.97377" lon="5.76035">
        <ele>1242.8</ele>
        <time>2021-10-26T12:12:42Z</time>
      </trkpt>
      <trkpt lat="44.97379" lon="5.76036">
        <ele>1242.9</ele>
        <time>2021-10-26T12:12:44Z</time>
      </trkpt>
      <trkpt lat="44.97381" lon="5.76037">
        <ele>1243.4</ele>
        <time>2021-10-26T12:12:47Z</time>
      </trkpt>
      <trkpt lat="44.97383" lon="5.76038">
        <ele>1243.4</ele>
        <time>2021-10-26T12:12:49Z</time>
      </trkpt>
      <trkpt lat="44.97385" lon="5.76037">
        <ele>1244</ele>
        <time>2021-10-26T12:12:55Z</time>
      </trkpt>
      <trkpt lat="44.97387" lon="5.76035">
        <ele>1244.5</ele>
        <time>2021-10-26T12:12:59Z</time>
      </trkpt>
      <trkpt lat="44.97389" lon="5.76033">
        <ele>1245</ele>
        <time>2021-10-26T12:13:02Z</time>
      </trkpt>
      <trkpt lat="44.97391" lon="5.76032">
        <ele>1245</ele>
        <time>2021-10-26T12:13:05Z</time>
      </trkpt>
      <trkpt lat="44.97394" lon="5.76032">
        <ele>1245.7</ele>
        <time>2021-10-26T12:13:11Z</time>
      </trkpt>
      <trkpt lat="44.97396" lon="5.76031">
        <ele>1245.9</ele>
        <time>2021-10-26T12:13:15Z</time>
      </trkpt>
      <trkpt lat="44.97399" lon="5.76032">
        <ele>1246</ele>
        <time>2021-10-26T12:13:18Z</time>
      </trkpt>
      <trkpt lat="44.97401" lon="5.76031">
        <ele>1246.5</ele>
        <time>2021-10-26T12:13:21Z</time>
      </trkpt>
      <trkpt lat="44.97403" lon="5.7603">
        <ele>1246.9</ele>
        <time>2021-10-26T12:13:23Z</time>
      </trkpt>
      <trkpt lat="44.97405" lon="5.76029">
        <ele>1247.4</ele>
        <time>2021-10-26T12:13:26Z</time>
      </trkpt>
      <trkpt lat="44.97407" lon="5.76028">
        <ele>1247.6</ele>
        <time>2021-10-26T12:13:29Z</time>
      </trkpt>
      <trkpt lat="44.97409" lon="5.76028">
        <ele>1247.8</ele>
        <time>2021-10-26T12:13:32Z</time>
      </trkpt>
      <trkpt lat="44.97411" lon="5.76028">
        <ele>1247.7</ele>
        <time>2021-10-26T12:13:35Z</time>
      </trkpt>
      <trkpt lat="44.97414" lon="5.76027">
        <ele>1248.1</ele>
        <time>2021-10-26T12:13:38Z</time>
      </trkpt>
      <trkpt lat="44.97417" lon="5.76027">
        <ele>1248.1</ele>
        <time>2021-10-26T12:13:41Z</time>
      </trkpt>
      <trkpt lat="44.97419" lon="5.76026">
        <ele>1247.6</ele>
        <time>2021-10-26T12:13:43Z</time>
      </trkpt>
      <trkpt lat="44.97421" lon="5.76026">
        <ele>1247.8</ele>
        <time>2021-10-26T12:13:46Z</time>
      </trkpt>
      <trkpt lat="44.97423" lon="5.76027">
        <ele>1247.6</ele>
        <time>2021-10-26T12:13:48Z</time>
      </trkpt>
      <trkpt lat="44.97425" lon="5.76026">
        <ele>1247.7</ele>
        <time>2021-10-26T12:13:50Z</time>
      </trkpt>
      <trkpt lat="44.97427" lon="5.76025">
        <ele>1248.1</ele>
        <time>2021-10-26T12:13:53Z</time>
      </trkpt>
      <trkpt lat="44.97429" lon="5.76025">
        <ele>1248.3</ele>
        <time>2021-10-26T12:13:56Z</time>
      </trkpt>
      <trkpt lat="44.97431" lon="5.76024">
        <ele>1248.4</ele>
        <time>2021-10-26T12:14:00Z</time>
      </trkpt>
      <trkpt lat="44.97433" lon="5.76022">
        <ele>1248.5</ele>
        <time>2021-10-26T12:14:03Z</time>
      </trkpt>
      <trkpt lat="44.97435" lon="5.76021">
        <ele>1248.1</ele>
        <time>2021-10-26T12:14:05Z</time>
      </trkpt>
      <trkpt lat="44.97437" lon="5.76019">
        <ele>1248.3</ele>
        <time>2021-10-26T12:14:07Z</time>
      </trkpt>
      <trkpt lat="44.97439" lon="5.76018">
        <ele>1248.3</ele>
        <time>2021-10-26T12:14:09Z</time>
      </trkpt>
      <trkpt lat="44.97441" lon="5.76018">
        <ele>1248.4</ele>
        <time>2021-10-26T12:14:12Z</time>
      </trkpt>
      <trkpt lat="44.97444" lon="5.76019">
        <ele>1248.5</ele>
        <time>2021-10-26T12:14:16Z</time>
      </trkpt>
      <trkpt lat="44.97446" lon="5.76019">
        <ele>1248.4</ele>
        <time>2021-10-26T12:14:18Z</time>
      </trkpt>
      <trkpt lat="44.97447" lon="5.76018">
        <ele>1248.8</ele>
        <time>2021-10-26T12:14:21Z</time>
      </trkpt>
      <trkpt lat="44.9745" lon="5.76016">
        <ele>1248.8</ele>
        <time>2021-10-26T12:14:24Z</time>
      </trkpt>
      <trkpt lat="44.9745" lon="5.76014">
        <ele>1248.9</ele>
        <time>2021-10-26T12:14:28Z</time>
      </trkpt>
      <trkpt lat="44.97452" lon="5.76013">
        <ele>1248.5</ele>
        <time>2021-10-26T12:14:31Z</time>
      </trkpt>
      <trkpt lat="44.97454" lon="5.76013">
        <ele>1248.8</ele>
        <time>2021-10-26T12:14:34Z</time>
      </trkpt>
      <trkpt lat="44.97456" lon="5.76011">
        <ele>1248.5</ele>
        <time>2021-10-26T12:14:37Z</time>
      </trkpt>
      <trkpt lat="44.97457" lon="5.76009">
        <ele>1249.1</ele>
        <time>2021-10-26T12:14:40Z</time>
      </trkpt>
      <trkpt lat="44.97459" lon="5.76007">
        <ele>1249.3</ele>
        <time>2021-10-26T12:14:42Z</time>
      </trkpt>
      <trkpt lat="44.97462" lon="5.76006">
        <ele>1249.8</ele>
        <time>2021-10-26T12:14:46Z</time>
      </trkpt>
      <trkpt lat="44.97464" lon="5.76004">
        <ele>1249.8</ele>
        <time>2021-10-26T12:14:49Z</time>
      </trkpt>
      <trkpt lat="44.97466" lon="5.76003">
        <ele>1249.4</ele>
        <time>2021-10-26T12:14:52Z</time>
      </trkpt>
      <trkpt lat="44.97469" lon="5.76002">
        <ele>1249.3</ele>
        <time>2021-10-26T12:14:56Z</time>
      </trkpt>
      <trkpt lat="44.9747" lon="5.76">
        <ele>1249.8</ele>
        <time>2021-10-26T12:14:58Z</time>
      </trkpt>
      <trkpt lat="44.97472" lon="5.75998">
        <ele>1250.1</ele>
        <time>2021-10-26T12:15:00Z</time>
      </trkpt>
      <trkpt lat="44.97473" lon="5.75997">
        <ele>1250</ele>
        <time>2021-10-26T12:15:02Z</time>
      </trkpt>
      <trkpt lat="44.97475" lon="5.75995">
        <ele>1250</ele>
        <time>2021-10-26T12:15:05Z</time>
      </trkpt>
      <trkpt lat="44.97476" lon="5.75993">
        <ele>1250.2</ele>
        <time>2021-10-26T12:15:08Z</time>
      </trkpt>
      <trkpt lat="44.97478" lon="5.75991">
        <ele>1250.3</ele>
        <time>2021-10-26T12:15:12Z</time>
      </trkpt>
      <trkpt lat="44.9748" lon="5.75992">
        <ele>1250.2</ele>
        <time>2021-10-26T12:15:18Z</time>
      </trkpt>
      <trkpt lat="44.97481" lon="5.75988">
        <ele>1249.9</ele>
        <time>2021-10-26T12:15:37Z</time>
      </trkpt>
      <trkpt lat="44.97482" lon="5.75985">
        <ele>1248.5</ele>
        <time>2021-10-26T12:15:43Z</time>
      </trkpt>
      <trkpt lat="44.97483" lon="5.75983">
        <ele>1249.9</ele>
        <time>2021-10-26T12:15:48Z</time>
      </trkpt>
      <trkpt lat="44.97484" lon="5.7598">
        <ele>1250.3</ele>
        <time>2021-10-26T12:15:50Z</time>
      </trkpt>
      <trkpt lat="44.97484" lon="5.75978">
        <ele>1250.5</ele>
        <time>2021-10-26T12:15:55Z</time>
      </trkpt>
      <trkpt lat="44.97484" lon="5.75975">
        <ele>1250.2</ele>
        <time>2021-10-26T12:16:02Z</time>
      </trkpt>
      <trkpt lat="44.97485" lon="5.75972">
        <ele>1249.5</ele>
        <time>2021-10-26T12:16:11Z</time>
      </trkpt>
      <trkpt lat="44.97484" lon="5.7597">
        <ele>1249.9</ele>
        <time>2021-10-26T12:16:19Z</time>
      </trkpt>
      <trkpt lat="44.97483" lon="5.75968">
        <ele>1249.3</ele>
        <time>2021-10-26T12:16:26Z</time>
      </trkpt>
      <trkpt lat="44.97483" lon="5.75965">
        <ele>1250.6</ele>
        <time>2021-10-26T12:16:37Z</time>
      </trkpt>
      <trkpt lat="44.97485" lon="5.75964">
        <ele>1250</ele>
        <time>2021-10-26T12:16:41Z</time>
      </trkpt>
      <trkpt lat="44.97487" lon="5.75964">
        <ele>1249.9</ele>
        <time>2021-10-26T12:16:50Z</time>
      </trkpt>
      <trkpt lat="44.97489" lon="5.75963">
        <ele>1250.2</ele>
        <time>2021-10-26T12:16:59Z</time>
      </trkpt>
      <trkpt lat="44.97491" lon="5.75963">
        <ele>1250</ele>
        <time>2021-10-26T12:17:10Z</time>
      </trkpt>
      <trkpt lat="44.97492" lon="5.75965">
        <ele>1249.4</ele>
        <time>2021-10-26T12:17:24Z</time>
      </trkpt>
      <trkpt lat="44.97492" lon="5.75968">
        <ele>1250.3</ele>
        <time>2021-10-26T12:17:40Z</time>
      </trkpt>
      <trkpt lat="44.97494" lon="5.75968">
        <ele>1249.5</ele>
        <time>2021-10-26T12:17:58Z</time>
      </trkpt>
      <trkpt lat="44.97495" lon="5.7597">
        <ele>1249.7</ele>
        <time>2021-10-26T12:18:24Z</time>
      </trkpt>
      <trkpt lat="44.97496" lon="5.75973">
        <ele>1249.3</ele>
        <time>2021-10-26T12:18:32Z</time>
      </trkpt>
      <trkpt lat="44.97495" lon="5.75975">
        <ele>1248.7</ele>
        <time>2021-10-26T12:18:37Z</time>
      </trkpt>
      <trkpt lat="44.97493" lon="5.75975">
        <ele>1249.3</ele>
        <time>2021-10-26T12:18:40Z</time>
      </trkpt>
      <trkpt lat="44.97491" lon="5.75975">
        <ele>1250.2</ele>
        <time>2021-10-26T12:18:46Z</time>
      </trkpt>
      <trkpt lat="44.97489" lon="5.75973">
        <ele>1250.2</ele>
        <time>2021-10-26T12:18:51Z</time>
      </trkpt>
      <trkpt lat="44.97487" lon="5.75971">
        <ele>1250.5</ele>
        <time>2021-10-26T12:19:00Z</time>
      </trkpt>
      <trkpt lat="44.97485" lon="5.75971">
        <ele>1250.5</ele>
        <time>2021-10-26T12:19:03Z</time>
      </trkpt>
      <trkpt lat="44.97482" lon="5.7597">
        <ele>1250.2</ele>
        <time>2021-10-26T12:19:08Z</time>
      </trkpt>
      <trkpt lat="44.97481" lon="5.75969">
        <ele>1250.3</ele>
        <time>2021-10-26T12:19:13Z</time>
      </trkpt>
      <trkpt lat="44.97478" lon="5.75969">
        <ele>1250.9</ele>
        <time>2021-10-26T12:19:16Z</time>
      </trkpt>
      <trkpt lat="44.97476" lon="5.7597">
        <ele>1251</ele>
        <time>2021-10-26T12:19:18Z</time>
      </trkpt>
      <trkpt lat="44.97473" lon="5.75969">
        <ele>1250.8</ele>
        <time>2021-10-26T12:19:20Z</time>
      </trkpt>
      <trkpt lat="44.97471" lon="5.75968">
        <ele>1251.3</ele>
        <time>2021-10-26T12:19:23Z</time>
      </trkpt>
      <trkpt lat="44.9747" lon="5.75967">
        <ele>1251.8</ele>
        <time>2021-10-26T12:19:27Z</time>
      </trkpt>
      <trkpt lat="44.97468" lon="5.75966">
        <ele>1252</ele>
        <time>2021-10-26T12:19:31Z</time>
      </trkpt>
      <trkpt lat="44.97466" lon="5.75965">
        <ele>1252.1</ele>
        <time>2021-10-26T12:19:36Z</time>
      </trkpt>
      <trkpt lat="44.97464" lon="5.75965">
        <ele>1252.8</ele>
        <time>2021-10-26T12:19:42Z</time>
      </trkpt>
      <trkpt lat="44.97461" lon="5.75965">
        <ele>1253.2</ele>
        <time>2021-10-26T12:19:44Z</time>
      </trkpt>
      <trkpt lat="44.97459" lon="5.75964">
        <ele>1253.3</ele>
        <time>2021-10-26T12:19:47Z</time>
      </trkpt>
      <trkpt lat="44.97457" lon="5.75965">
        <ele>1253.9</ele>
        <time>2021-10-26T12:19:49Z</time>
      </trkpt>
      <trkpt lat="44.97454" lon="5.75965">
        <ele>1253.5</ele>
        <time>2021-10-26T12:19:51Z</time>
      </trkpt>
      <trkpt lat="44.97451" lon="5.75965">
        <ele>1253.8</ele>
        <time>2021-10-26T12:19:53Z</time>
      </trkpt>
      <trkpt lat="44.97449" lon="5.75964">
        <ele>1254.1</ele>
        <time>2021-10-26T12:19:57Z</time>
      </trkpt>
      <trkpt lat="44.97447" lon="5.75962">
        <ele>1253.7</ele>
        <time>2021-10-26T12:20:00Z</time>
      </trkpt>
      <trkpt lat="44.97446" lon="5.75961">
        <ele>1255.6</ele>
        <time>2021-10-26T12:20:07Z</time>
      </trkpt>
      <trkpt lat="44.97443" lon="5.75961">
        <ele>1255.9</ele>
        <time>2021-10-26T12:20:09Z</time>
      </trkpt>
      <trkpt lat="44.97441" lon="5.75962">
        <ele>1255.9</ele>
        <time>2021-10-26T12:20:10Z</time>
      </trkpt>
      <trkpt lat="44.97438" lon="5.75961">
        <ele>1255.9</ele>
        <time>2021-10-26T12:20:13Z</time>
      </trkpt>
      <trkpt lat="44.97436" lon="5.75961">
        <ele>1256.4</ele>
        <time>2021-10-26T12:20:15Z</time>
      </trkpt>
      <trkpt lat="44.97434" lon="5.75958">
        <ele>1256.7</ele>
        <time>2021-10-26T12:20:18Z</time>
      </trkpt>
      <trkpt lat="44.97432" lon="5.75957">
        <ele>1257.4</ele>
        <time>2021-10-26T12:20:23Z</time>
      </trkpt>
      <trkpt lat="44.97429" lon="5.75957">
        <ele>1258</ele>
        <time>2021-10-26T12:20:26Z</time>
      </trkpt>
      <trkpt lat="44.97428" lon="5.75956">
        <ele>1258.1</ele>
        <time>2021-10-26T12:20:28Z</time>
      </trkpt>
      <trkpt lat="44.97425" lon="5.75956">
        <ele>1258.7</ele>
        <time>2021-10-26T12:20:31Z</time>
      </trkpt>
      <trkpt lat="44.97423" lon="5.75955">
        <ele>1258.9</ele>
        <time>2021-10-26T12:20:36Z</time>
      </trkpt>
      <trkpt lat="44.9742" lon="5.75955">
        <ele>1258.9</ele>
        <time>2021-10-26T12:20:39Z</time>
      </trkpt>
      <trkpt lat="44.97418" lon="5.75955">
        <ele>1259.3</ele>
        <time>2021-10-26T12:20:41Z</time>
      </trkpt>
      <trkpt lat="44.97416" lon="5.75953">
        <ele>1259.5</ele>
        <time>2021-10-26T12:20:43Z</time>
      </trkpt>
      <trkpt lat="44.97413" lon="5.75952">
        <ele>1259.9</ele>
        <time>2021-10-26T12:20:45Z</time>
      </trkpt>
      <trkpt lat="44.97411" lon="5.75951">
        <ele>1259.7</ele>
        <time>2021-10-26T12:20:47Z</time>
      </trkpt>
      <trkpt lat="44.97411" lon="5.75948">
        <ele>1260.1</ele>
        <time>2021-10-26T12:20:53Z</time>
      </trkpt>
      <trkpt lat="44.97409" lon="5.75947">
        <ele>1259.7</ele>
        <time>2021-10-26T12:21:00Z</time>
      </trkpt>
      <trkpt lat="44.97407" lon="5.75946">
        <ele>1259.8</ele>
        <time>2021-10-26T12:21:03Z</time>
      </trkpt>
      <trkpt lat="44.97408" lon="5.75943">
        <ele>1259.9</ele>
        <time>2021-10-26T12:21:05Z</time>
      </trkpt>
      <trkpt lat="44.97409" lon="5.7594">
        <ele>1260</ele>
        <time>2021-10-26T12:21:07Z</time>
      </trkpt>
      <trkpt lat="44.97411" lon="5.75941">
        <ele>1259.2</ele>
        <time>2021-10-26T12:21:14Z</time>
      </trkpt>
      <trkpt lat="44.9741" lon="5.75944">
        <ele>1259.8</ele>
        <time>2021-10-26T12:21:19Z</time>
      </trkpt>
      <trkpt lat="44.97408" lon="5.75943">
        <ele>1259.8</ele>
        <time>2021-10-26T12:21:25Z</time>
      </trkpt>
      <trkpt lat="44.97406" lon="5.75943">
        <ele>1260.2</ele>
        <time>2021-10-26T12:21:29Z</time>
      </trkpt>
      <trkpt lat="44.97404" lon="5.75942">
        <ele>1260.4</ele>
        <time>2021-10-26T12:21:35Z</time>
      </trkpt>
      <trkpt lat="44.97401" lon="5.75942">
        <ele>1260.4</ele>
        <time>2021-10-26T12:21:37Z</time>
      </trkpt>
      <trkpt lat="44.97398" lon="5.75942">
        <ele>1260.4</ele>
        <time>2021-10-26T12:21:40Z</time>
      </trkpt>
      <trkpt lat="44.97398" lon="5.75939">
        <ele>1260.1</ele>
        <time>2021-10-26T12:21:42Z</time>
      </trkpt>
      <trkpt lat="44.97397" lon="5.75936">
        <ele>1260.2</ele>
        <time>2021-10-26T12:21:45Z</time>
      </trkpt>
      <trkpt lat="44.97394" lon="5.75936">
        <ele>1260.7</ele>
        <time>2021-10-26T12:21:47Z</time>
      </trkpt>
      <trkpt lat="44.97392" lon="5.75936">
        <ele>1260.8</ele>
        <time>2021-10-26T12:21:49Z</time>
      </trkpt>
      <trkpt lat="44.9739" lon="5.75935">
        <ele>1260.6</ele>
        <time>2021-10-26T12:21:52Z</time>
      </trkpt>
      <trkpt lat="44.97388" lon="5.75936">
        <ele>1260.8</ele>
        <time>2021-10-26T12:21:54Z</time>
      </trkpt>
      <trkpt lat="44.97386" lon="5.75936">
        <ele>1260.5</ele>
        <time>2021-10-26T12:21:57Z</time>
      </trkpt>
      <trkpt lat="44.97383" lon="5.75936">
        <ele>1260.7</ele>
        <time>2021-10-26T12:22:00Z</time>
      </trkpt>
      <trkpt lat="44.97381" lon="5.75935">
        <ele>1261</ele>
        <time>2021-10-26T12:22:04Z</time>
      </trkpt>
      <trkpt lat="44.97379" lon="5.75935">
        <ele>1260.8</ele>
        <time>2021-10-26T12:22:08Z</time>
      </trkpt>
      <trkpt lat="44.97377" lon="5.75935">
        <ele>1260.5</ele>
        <time>2021-10-26T12:22:10Z</time>
      </trkpt>
      <trkpt lat="44.97374" lon="5.75935">
        <ele>1260.5</ele>
        <time>2021-10-26T12:22:12Z</time>
      </trkpt>
      <trkpt lat="44.97371" lon="5.75934">
        <ele>1260.8</ele>
        <time>2021-10-26T12:22:15Z</time>
      </trkpt>
      <trkpt lat="44.9737" lon="5.75933">
        <ele>1261.3</ele>
        <time>2021-10-26T12:22:18Z</time>
      </trkpt>
      <trkpt lat="44.97369" lon="5.7593">
        <ele>1261.3</ele>
        <time>2021-10-26T12:22:20Z</time>
      </trkpt>
      <trkpt lat="44.97367" lon="5.75928">
        <ele>1261</ele>
        <time>2021-10-26T12:22:22Z</time>
      </trkpt>
      <trkpt lat="44.97366" lon="5.75926">
        <ele>1261.5</ele>
        <time>2021-10-26T12:22:25Z</time>
      </trkpt>
      <trkpt lat="44.97364" lon="5.75925">
        <ele>1261.1</ele>
        <time>2021-10-26T12:22:29Z</time>
      </trkpt>
      <trkpt lat="44.97362" lon="5.75925">
        <ele>1261.3</ele>
        <time>2021-10-26T12:22:31Z</time>
      </trkpt>
      <trkpt lat="44.97361" lon="5.75926">
        <ele>1260.9</ele>
        <time>2021-10-26T12:22:33Z</time>
      </trkpt>
      <trkpt lat="44.97359" lon="5.75927">
        <ele>1261.3</ele>
        <time>2021-10-26T12:22:35Z</time>
      </trkpt>
      <trkpt lat="44.9736" lon="5.7593">
        <ele>1261.3</ele>
        <time>2021-10-26T12:22:36Z</time>
      </trkpt>
      <trkpt lat="44.9736" lon="5.75934">
        <ele>1261.5</ele>
        <time>2021-10-26T12:22:37Z</time>
      </trkpt>
      <trkpt lat="44.97359" lon="5.75936">
        <ele>1261.1</ele>
        <time>2021-10-26T12:22:38Z</time>
      </trkpt>
      <trkpt lat="44.97357" lon="5.75934">
        <ele>1260</ele>
        <time>2021-10-26T12:22:42Z</time>
      </trkpt>
      <trkpt lat="44.97342" lon="5.75925">
        <ele>1260.9</ele>
        <time>2021-10-26T12:22:49Z</time>
      </trkpt>
      <trkpt lat="44.9734" lon="5.75922">
        <ele>1260.3</ele>
        <time>2021-10-26T12:22:50Z</time>
      </trkpt>
      <trkpt lat="44.97338" lon="5.75921">
        <ele>1260.6</ele>
        <time>2021-10-26T12:22:52Z</time>
      </trkpt>
      <trkpt lat="44.97337" lon="5.75918">
        <ele>1260.9</ele>
        <time>2021-10-26T12:22:54Z</time>
      </trkpt>
      <trkpt lat="44.97334" lon="5.75917">
        <ele>1261.5</ele>
        <time>2021-10-26T12:22:57Z</time>
      </trkpt>
      <trkpt lat="44.97334" lon="5.75914">
        <ele>1261.2</ele>
        <time>2021-10-26T12:23:00Z</time>
      </trkpt>
      <trkpt lat="44.97332" lon="5.75912">
        <ele>1260.1</ele>
        <time>2021-10-26T12:23:06Z</time>
      </trkpt>
      <trkpt lat="44.97329" lon="5.75914">
        <ele>1260.4</ele>
        <time>2021-10-26T12:23:08Z</time>
      </trkpt>
      <trkpt lat="44.97327" lon="5.75915">
        <ele>1260</ele>
        <time>2021-10-26T12:23:10Z</time>
      </trkpt>
      <trkpt lat="44.97324" lon="5.75914">
        <ele>1261</ele>
        <time>2021-10-26T12:23:14Z</time>
      </trkpt>
      <trkpt lat="44.97323" lon="5.75912">
        <ele>1261</ele>
        <time>2021-10-26T12:23:18Z</time>
      </trkpt>
      <trkpt lat="44.97321" lon="5.7591">
        <ele>1261.4</ele>
        <time>2021-10-26T12:23:23Z</time>
      </trkpt>
      <trkpt lat="44.97319" lon="5.7591">
        <ele>1261.8</ele>
        <time>2021-10-26T12:23:26Z</time>
      </trkpt>
      <trkpt lat="44.97317" lon="5.75909">
        <ele>1262</ele>
        <time>2021-10-26T12:23:29Z</time>
      </trkpt>
      <trkpt lat="44.97316" lon="5.75906">
        <ele>1261.7</ele>
        <time>2021-10-26T12:23:32Z</time>
      </trkpt>
      <trkpt lat="44.97315" lon="5.75905">
        <ele>1261.9</ele>
        <time>2021-10-26T12:23:34Z</time>
      </trkpt>
      <trkpt lat="44.97313" lon="5.75903">
        <ele>1262.2</ele>
        <time>2021-10-26T12:23:37Z</time>
      </trkpt>
      <trkpt lat="44.97311" lon="5.759">
        <ele>1262.6</ele>
        <time>2021-10-26T12:23:39Z</time>
      </trkpt>
      <trkpt lat="44.97309" lon="5.75899">
        <ele>1262.8</ele>
        <time>2021-10-26T12:23:42Z</time>
      </trkpt>
      <trkpt lat="44.97307" lon="5.75899">
        <ele>1263.4</ele>
        <time>2021-10-26T12:23:45Z</time>
      </trkpt>
      <trkpt lat="44.97305" lon="5.75897">
        <ele>1263.6</ele>
        <time>2021-10-26T12:23:48Z</time>
      </trkpt>
      <trkpt lat="44.97304" lon="5.75896">
        <ele>1264.3</ele>
        <time>2021-10-26T12:23:51Z</time>
      </trkpt>
      <trkpt lat="44.97301" lon="5.75896">
        <ele>1265.2</ele>
        <time>2021-10-26T12:23:54Z</time>
      </trkpt>
      <trkpt lat="44.97299" lon="5.75896">
        <ele>1265.7</ele>
        <time>2021-10-26T12:23:57Z</time>
      </trkpt>
      <trkpt lat="44.97298" lon="5.75895">
        <ele>1266.4</ele>
        <time>2021-10-26T12:24:02Z</time>
      </trkpt>
      <trkpt lat="44.97296" lon="5.75893">
        <ele>1266.9</ele>
        <time>2021-10-26T12:24:06Z</time>
      </trkpt>
      <trkpt lat="44.97293" lon="5.75893">
        <ele>1267.4</ele>
        <time>2021-10-26T12:24:08Z</time>
      </trkpt>
      <trkpt lat="44.97292" lon="5.75893">
        <ele>1267.6</ele>
        <time>2021-10-26T12:24:10Z</time>
      </trkpt>
      <trkpt lat="44.97289" lon="5.75892">
        <ele>1268.2</ele>
        <time>2021-10-26T12:24:14Z</time>
      </trkpt>
      <trkpt lat="44.97288" lon="5.7589">
        <ele>1268.3</ele>
        <time>2021-10-26T12:24:18Z</time>
      </trkpt>
      <trkpt lat="44.97285" lon="5.75889">
        <ele>1268.6</ele>
        <time>2021-10-26T12:24:24Z</time>
      </trkpt>
      <trkpt lat="44.97283" lon="5.75888">
        <ele>1269.3</ele>
        <time>2021-10-26T12:24:28Z</time>
      </trkpt>
      <trkpt lat="44.97282" lon="5.75888">
        <ele>1269.9</ele>
        <time>2021-10-26T12:24:30Z</time>
      </trkpt>
      <trkpt lat="44.97279" lon="5.75888">
        <ele>1270.3</ele>
        <time>2021-10-26T12:24:34Z</time>
      </trkpt>
      <trkpt lat="44.97277" lon="5.75887">
        <ele>1270.7</ele>
        <time>2021-10-26T12:24:39Z</time>
      </trkpt>
      <trkpt lat="44.97275" lon="5.75886">
        <ele>1270.4</ele>
        <time>2021-10-26T12:24:42Z</time>
      </trkpt>
      <trkpt lat="44.97273" lon="5.75887">
        <ele>1270.6</ele>
        <time>2021-10-26T12:24:44Z</time>
      </trkpt>
      <trkpt lat="44.97271" lon="5.75886">
        <ele>1270.6</ele>
        <time>2021-10-26T12:24:47Z</time>
      </trkpt>
      <trkpt lat="44.97268" lon="5.75885">
        <ele>1270.7</ele>
        <time>2021-10-26T12:24:51Z</time>
      </trkpt>
      <trkpt lat="44.97265" lon="5.75883">
        <ele>1270.5</ele>
        <time>2021-10-26T12:24:55Z</time>
      </trkpt>
      <trkpt lat="44.97263" lon="5.75882">
        <ele>1271</ele>
        <time>2021-10-26T12:24:58Z</time>
      </trkpt>
      <trkpt lat="44.97262" lon="5.75879">
        <ele>1271.5</ele>
        <time>2021-10-26T12:25:04Z</time>
      </trkpt>
      <trkpt lat="44.9726" lon="5.75879">
        <ele>1271.5</ele>
        <time>2021-10-26T12:25:08Z</time>
      </trkpt>
      <trkpt lat="44.97258" lon="5.75878">
        <ele>1271.2</ele>
        <time>2021-10-26T12:25:11Z</time>
      </trkpt>
      <trkpt lat="44.97256" lon="5.75879">
        <ele>1271</ele>
        <time>2021-10-26T12:25:12Z</time>
      </trkpt>
      <trkpt lat="44.97254" lon="5.75877">
        <ele>1270.7</ele>
        <time>2021-10-26T12:25:16Z</time>
      </trkpt>
      <trkpt lat="44.97252" lon="5.75877">
        <ele>1270.6</ele>
        <time>2021-10-26T12:25:19Z</time>
      </trkpt>
      <trkpt lat="44.9725" lon="5.75877">
        <ele>1270.8</ele>
        <time>2021-10-26T12:25:21Z</time>
      </trkpt>
      <trkpt lat="44.97248" lon="5.75875">
        <ele>1270.6</ele>
        <time>2021-10-26T12:25:27Z</time>
      </trkpt>
      <trkpt lat="44.97246" lon="5.75875">
        <ele>1270.6</ele>
        <time>2021-10-26T12:25:30Z</time>
      </trkpt>
      <trkpt lat="44.97245" lon="5.75878">
        <ele>1270.7</ele>
        <time>2021-10-26T12:25:36Z</time>
      </trkpt>
      <trkpt lat="44.97243" lon="5.75879">
        <ele>1271</ele>
        <time>2021-10-26T12:25:39Z</time>
      </trkpt>
      <trkpt lat="44.97241" lon="5.75878">
        <ele>1271.3</ele>
        <time>2021-10-26T12:25:42Z</time>
      </trkpt>
      <trkpt lat="44.97238" lon="5.75879">
        <ele>1271.4</ele>
        <time>2021-10-26T12:25:44Z</time>
      </trkpt>
      <trkpt lat="44.97236" lon="5.75879">
        <ele>1272</ele>
        <time>2021-10-26T12:25:48Z</time>
      </trkpt>
      <trkpt lat="44.97234" lon="5.7588">
        <ele>1272.2</ele>
        <time>2021-10-26T12:25:50Z</time>
      </trkpt>
      <trkpt lat="44.97231" lon="5.75881">
        <ele>1272.5</ele>
        <time>2021-10-26T12:25:52Z</time>
      </trkpt>
      <trkpt lat="44.97228" lon="5.75882">
        <ele>1272.5</ele>
        <time>2021-10-26T12:25:54Z</time>
      </trkpt>
      <trkpt lat="44.97226" lon="5.75883">
        <ele>1272.9</ele>
        <time>2021-10-26T12:25:55Z</time>
      </trkpt>
      <trkpt lat="44.97224" lon="5.75882">
        <ele>1273</ele>
        <time>2021-10-26T12:25:58Z</time>
      </trkpt>
      <trkpt lat="44.97221" lon="5.75883">
        <ele>1273</ele>
        <time>2021-10-26T12:26:01Z</time>
      </trkpt>
      <trkpt lat="44.97219" lon="5.75883">
        <ele>1272.9</ele>
        <time>2021-10-26T12:26:04Z</time>
      </trkpt>
      <trkpt lat="44.97217" lon="5.75884">
        <ele>1273.2</ele>
        <time>2021-10-26T12:26:07Z</time>
      </trkpt>
      <trkpt lat="44.97215" lon="5.75884">
        <ele>1273.8</ele>
        <time>2021-10-26T12:26:10Z</time>
      </trkpt>
      <trkpt lat="44.97214" lon="5.75884">
        <ele>1274.6</ele>
        <time>2021-10-26T12:26:16Z</time>
      </trkpt>
      <trkpt lat="44.97211" lon="5.75884">
        <ele>1274.7</ele>
        <time>2021-10-26T12:26:18Z</time>
      </trkpt>
      <trkpt lat="44.97209" lon="5.75885">
        <ele>1274.8</ele>
        <time>2021-10-26T12:26:23Z</time>
      </trkpt>
      <trkpt lat="44.97206" lon="5.75886">
        <ele>1275.5</ele>
        <time>2021-10-26T12:26:27Z</time>
      </trkpt>
      <trkpt lat="44.97204" lon="5.75887">
        <ele>1276.1</ele>
        <time>2021-10-26T12:26:29Z</time>
      </trkpt>
      <trkpt lat="44.97202" lon="5.75888">
        <ele>1276.1</ele>
        <time>2021-10-26T12:26:33Z</time>
      </trkpt>
      <trkpt lat="44.972" lon="5.75889">
        <ele>1276.4</ele>
        <time>2021-10-26T12:26:36Z</time>
      </trkpt>
      <trkpt lat="44.97199" lon="5.75891">
        <ele>1277.4</ele>
        <time>2021-10-26T12:26:43Z</time>
      </trkpt>
      <trkpt lat="44.97197" lon="5.75892">
        <ele>1278</ele>
        <time>2021-10-26T12:26:48Z</time>
      </trkpt>
      <trkpt lat="44.97194" lon="5.75893">
        <ele>1278.8</ele>
        <time>2021-10-26T12:26:52Z</time>
      </trkpt>
      <trkpt lat="44.97192" lon="5.75893">
        <ele>1279.1</ele>
        <time>2021-10-26T12:26:55Z</time>
      </trkpt>
      <trkpt lat="44.9719" lon="5.75894">
        <ele>1279.3</ele>
        <time>2021-10-26T12:26:58Z</time>
      </trkpt>
      <trkpt lat="44.97187" lon="5.75895">
        <ele>1280.1</ele>
        <time>2021-10-26T12:27:02Z</time>
      </trkpt>
      <trkpt lat="44.97185" lon="5.75895">
        <ele>1280.3</ele>
        <time>2021-10-26T12:27:04Z</time>
      </trkpt>
      <trkpt lat="44.97182" lon="5.75896">
        <ele>1281.1</ele>
        <time>2021-10-26T12:27:07Z</time>
      </trkpt>
      <trkpt lat="44.9718" lon="5.75897">
        <ele>1282.8</ele>
        <time>2021-10-26T12:27:15Z</time>
      </trkpt>
      <trkpt lat="44.97179" lon="5.75899">
        <ele>1283.8</ele>
        <time>2021-10-26T12:27:23Z</time>
      </trkpt>
      <trkpt lat="44.97177" lon="5.75899">
        <ele>1284.1</ele>
        <time>2021-10-26T12:27:27Z</time>
      </trkpt>
      <trkpt lat="44.97175" lon="5.759">
        <ele>1284.9</ele>
        <time>2021-10-26T12:27:30Z</time>
      </trkpt>
      <trkpt lat="44.97173" lon="5.75899">
        <ele>1285.6</ele>
        <time>2021-10-26T12:27:37Z</time>
      </trkpt>
      <trkpt lat="44.9717" lon="5.759">
        <ele>1285.8</ele>
        <time>2021-10-26T12:27:43Z</time>
      </trkpt>
      <trkpt lat="44.97168" lon="5.75901">
        <ele>1285.8</ele>
        <time>2021-10-26T12:27:45Z</time>
      </trkpt>
      <trkpt lat="44.97165" lon="5.75902">
        <ele>1286.1</ele>
        <time>2021-10-26T12:27:47Z</time>
      </trkpt>
      <trkpt lat="44.97163" lon="5.75902">
        <ele>1286.2</ele>
        <time>2021-10-26T12:27:49Z</time>
      </trkpt>
      <trkpt lat="44.97162" lon="5.75903">
        <ele>1286.9</ele>
        <time>2021-10-26T12:27:53Z</time>
      </trkpt>
      <trkpt lat="44.97159" lon="5.75904">
        <ele>1287</ele>
        <time>2021-10-26T12:27:56Z</time>
      </trkpt>
      <trkpt lat="44.97157" lon="5.75906">
        <ele>1286.4</ele>
        <time>2021-10-26T12:28:00Z</time>
      </trkpt>
      <trkpt lat="44.97155" lon="5.75906">
        <ele>1286.8</ele>
        <time>2021-10-26T12:28:02Z</time>
      </trkpt>
      <trkpt lat="44.97153" lon="5.75908">
        <ele>1286.9</ele>
        <time>2021-10-26T12:28:05Z</time>
      </trkpt>
      <trkpt lat="44.97151" lon="5.75908">
        <ele>1287.2</ele>
        <time>2021-10-26T12:28:09Z</time>
      </trkpt>
      <trkpt lat="44.97148" lon="5.75907">
        <ele>1287.6</ele>
        <time>2021-10-26T12:28:13Z</time>
      </trkpt>
      <trkpt lat="44.97146" lon="5.75907">
        <ele>1287.2</ele>
        <time>2021-10-26T12:28:15Z</time>
      </trkpt>
      <trkpt lat="44.97144" lon="5.75908">
        <ele>1287.1</ele>
        <time>2021-10-26T12:28:18Z</time>
      </trkpt>
      <trkpt lat="44.97141" lon="5.75907">
        <ele>1287.1</ele>
        <time>2021-10-26T12:28:22Z</time>
      </trkpt>
      <trkpt lat="44.97139" lon="5.75908">
        <ele>1286.9</ele>
        <time>2021-10-26T12:28:24Z</time>
      </trkpt>
      <trkpt lat="44.97137" lon="5.75909">
        <ele>1286.4</ele>
        <time>2021-10-26T12:28:27Z</time>
      </trkpt>
      <trkpt lat="44.97134" lon="5.75909">
        <ele>1286.2</ele>
        <time>2021-10-26T12:28:30Z</time>
      </trkpt>
      <trkpt lat="44.97132" lon="5.75909">
        <ele>1285.8</ele>
        <time>2021-10-26T12:28:33Z</time>
      </trkpt>
      <trkpt lat="44.9713" lon="5.7591">
        <ele>1285.2</ele>
        <time>2021-10-26T12:28:35Z</time>
      </trkpt>
      <trkpt lat="44.97128" lon="5.75911">
        <ele>1284.8</ele>
        <time>2021-10-26T12:28:38Z</time>
      </trkpt>
      <trkpt lat="44.97126" lon="5.7591">
        <ele>1284.5</ele>
        <time>2021-10-26T12:28:41Z</time>
      </trkpt>
      <trkpt lat="44.97124" lon="5.7591">
        <ele>1284.1</ele>
        <time>2021-10-26T12:28:45Z</time>
      </trkpt>
      <trkpt lat="44.97123" lon="5.75907">
        <ele>1283.9</ele>
        <time>2021-10-26T12:28:47Z</time>
      </trkpt>
      <trkpt lat="44.97122" lon="5.75907">
        <ele>1283.6</ele>
        <time>2021-10-26T12:28:49Z</time>
      </trkpt>
      <trkpt lat="44.9712" lon="5.75908">
        <ele>1283.7</ele>
        <time>2021-10-26T12:28:51Z</time>
      </trkpt>
      <trkpt lat="44.97118" lon="5.75909">
        <ele>1283.8</ele>
        <time>2021-10-26T12:28:54Z</time>
      </trkpt>
      <trkpt lat="44.97116" lon="5.75909">
        <ele>1283.7</ele>
        <time>2021-10-26T12:28:55Z</time>
      </trkpt>
      <trkpt lat="44.97114" lon="5.75911">
        <ele>1283.7</ele>
        <time>2021-10-26T12:28:59Z</time>
      </trkpt>
      <trkpt lat="44.97112" lon="5.75913">
        <ele>1283.7</ele>
        <time>2021-10-26T12:29:03Z</time>
      </trkpt>
      <trkpt lat="44.97111" lon="5.75914">
        <ele>1283.6</ele>
        <time>2021-10-26T12:29:05Z</time>
      </trkpt>
      <trkpt lat="44.97109" lon="5.75915">
        <ele>1283.4</ele>
        <time>2021-10-26T12:29:08Z</time>
      </trkpt>
      <trkpt lat="44.97107" lon="5.75916">
        <ele>1283.2</ele>
        <time>2021-10-26T12:29:10Z</time>
      </trkpt>
      <trkpt lat="44.97105" lon="5.75917">
        <ele>1283</ele>
        <time>2021-10-26T12:29:13Z</time>
      </trkpt>
      <trkpt lat="44.97103" lon="5.75919">
        <ele>1283.5</ele>
        <time>2021-10-26T12:29:17Z</time>
      </trkpt>
      <trkpt lat="44.97101" lon="5.75921">
        <ele>1283.7</ele>
        <time>2021-10-26T12:29:19Z</time>
      </trkpt>
      <trkpt lat="44.97098" lon="5.75922">
        <ele>1283.5</ele>
        <time>2021-10-26T12:29:21Z</time>
      </trkpt>
      <trkpt lat="44.97096" lon="5.75924">
        <ele>1283.6</ele>
        <time>2021-10-26T12:29:24Z</time>
      </trkpt>
      <trkpt lat="44.97094" lon="5.75926">
        <ele>1283.6</ele>
        <time>2021-10-26T12:29:28Z</time>
      </trkpt>
      <trkpt lat="44.97092" lon="5.75927">
        <ele>1283.8</ele>
        <time>2021-10-26T12:29:30Z</time>
      </trkpt>
      <trkpt lat="44.97091" lon="5.75928">
        <ele>1284.3</ele>
        <time>2021-10-26T12:29:33Z</time>
      </trkpt>
      <trkpt lat="44.97088" lon="5.75929">
        <ele>1284.6</ele>
        <time>2021-10-26T12:29:35Z</time>
      </trkpt>
      <trkpt lat="44.97086" lon="5.7593">
        <ele>1284.6</ele>
        <time>2021-10-26T12:29:38Z</time>
      </trkpt>
      <trkpt lat="44.97085" lon="5.75932">
        <ele>1284.7</ele>
        <time>2021-10-26T12:29:40Z</time>
      </trkpt>
      <trkpt lat="44.97083" lon="5.75934">
        <ele>1285.1</ele>
        <time>2021-10-26T12:29:42Z</time>
      </trkpt>
      <trkpt lat="44.97081" lon="5.75935">
        <ele>1285.6</ele>
        <time>2021-10-26T12:29:45Z</time>
      </trkpt>
      <trkpt lat="44.97078" lon="5.75936">
        <ele>1285.7</ele>
        <time>2021-10-26T12:29:48Z</time>
      </trkpt>
      <trkpt lat="44.97076" lon="5.75937">
        <ele>1286.1</ele>
        <time>2021-10-26T12:29:50Z</time>
      </trkpt>
      <trkpt lat="44.97075" lon="5.75939">
        <ele>1286.2</ele>
        <time>2021-10-26T12:29:53Z</time>
      </trkpt>
      <trkpt lat="44.97073" lon="5.75942">
        <ele>1286.7</ele>
        <time>2021-10-26T12:29:57Z</time>
      </trkpt>
      <trkpt lat="44.97071" lon="5.75942">
        <ele>1286.8</ele>
        <time>2021-10-26T12:30:00Z</time>
      </trkpt>
      <trkpt lat="44.97069" lon="5.75944">
        <ele>1286.8</ele>
        <time>2021-10-26T12:30:03Z</time>
      </trkpt>
      <trkpt lat="44.97067" lon="5.75945">
        <ele>1286.9</ele>
        <time>2021-10-26T12:30:05Z</time>
      </trkpt>
      <trkpt lat="44.97064" lon="5.75947">
        <ele>1286.7</ele>
        <time>2021-10-26T12:30:08Z</time>
      </trkpt>
      <trkpt lat="44.97062" lon="5.75948">
        <ele>1286.5</ele>
        <time>2021-10-26T12:30:10Z</time>
      </trkpt>
      <trkpt lat="44.9706" lon="5.75949">
        <ele>1286.5</ele>
        <time>2021-10-26T12:30:12Z</time>
      </trkpt>
      <trkpt lat="44.97057" lon="5.7595">
        <ele>1286</ele>
        <time>2021-10-26T12:30:15Z</time>
      </trkpt>
      <trkpt lat="44.97055" lon="5.7595">
        <ele>1285.5</ele>
        <time>2021-10-26T12:30:17Z</time>
      </trkpt>
      <trkpt lat="44.97053" lon="5.75949">
        <ele>1285.6</ele>
        <time>2021-10-26T12:30:19Z</time>
      </trkpt>
      <trkpt lat="44.97051" lon="5.75949">
        <ele>1285.5</ele>
        <time>2021-10-26T12:30:20Z</time>
      </trkpt>
      <trkpt lat="44.97049" lon="5.75949">
        <ele>1286.6</ele>
        <time>2021-10-26T12:30:23Z</time>
      </trkpt>
      <trkpt lat="44.97047" lon="5.75949">
        <ele>1287.1</ele>
        <time>2021-10-26T12:30:27Z</time>
      </trkpt>
      <trkpt lat="44.97045" lon="5.75951">
        <ele>1287.1</ele>
        <time>2021-10-26T12:30:30Z</time>
      </trkpt>
      <trkpt lat="44.97044" lon="5.75953">
        <ele>1287.1</ele>
        <time>2021-10-26T12:30:32Z</time>
      </trkpt>
      <trkpt lat="44.97042" lon="5.75956">
        <ele>1286.6</ele>
        <time>2021-10-26T12:30:36Z</time>
      </trkpt>
      <trkpt lat="44.97041" lon="5.75959">
        <ele>1286.3</ele>
        <time>2021-10-26T12:30:39Z</time>
      </trkpt>
      <trkpt lat="44.97039" lon="5.75961">
        <ele>1286.6</ele>
        <time>2021-10-26T12:30:42Z</time>
      </trkpt>
      <trkpt lat="44.97038" lon="5.75962">
        <ele>1286.8</ele>
        <time>2021-10-26T12:30:45Z</time>
      </trkpt>
      <trkpt lat="44.97035" lon="5.75964">
        <ele>1287.1</ele>
        <time>2021-10-26T12:30:47Z</time>
      </trkpt>
      <trkpt lat="44.97033" lon="5.75965">
        <ele>1287.3</ele>
        <time>2021-10-26T12:30:49Z</time>
      </trkpt>
      <trkpt lat="44.97031" lon="5.75967">
        <ele>1287.8</ele>
        <time>2021-10-26T12:30:51Z</time>
      </trkpt>
      <trkpt lat="44.9703" lon="5.7597">
        <ele>1287.9</ele>
        <time>2021-10-26T12:30:55Z</time>
      </trkpt>
      <trkpt lat="44.97028" lon="5.75971">
        <ele>1288.3</ele>
        <time>2021-10-26T12:30:59Z</time>
      </trkpt>
      <trkpt lat="44.97026" lon="5.75972">
        <ele>1288.6</ele>
        <time>2021-10-26T12:31:02Z</time>
      </trkpt>
      <trkpt lat="44.97023" lon="5.75973">
        <ele>1288.6</ele>
        <time>2021-10-26T12:31:06Z</time>
      </trkpt>
      <trkpt lat="44.9702" lon="5.75975">
        <ele>1288.4</ele>
        <time>2021-10-26T12:31:10Z</time>
      </trkpt>
      <trkpt lat="44.97018" lon="5.75977">
        <ele>1288.4</ele>
        <time>2021-10-26T12:31:12Z</time>
      </trkpt>
      <trkpt lat="44.97016" lon="5.75977">
        <ele>1288.3</ele>
        <time>2021-10-26T12:31:13Z</time>
      </trkpt>
      <trkpt lat="44.97013" lon="5.75976">
        <ele>1286.6</ele>
        <time>2021-10-26T12:31:14Z</time>
      </trkpt>
      <trkpt lat="44.9701" lon="5.75975">
        <ele>1286.3</ele>
        <time>2021-10-26T12:31:18Z</time>
      </trkpt>
      <trkpt lat="44.97008" lon="5.75976">
        <ele>1287.6</ele>
        <time>2021-10-26T12:31:21Z</time>
      </trkpt>
      <trkpt lat="44.97005" lon="5.75977">
        <ele>1288</ele>
        <time>2021-10-26T12:31:26Z</time>
      </trkpt>
      <trkpt lat="44.97003" lon="5.75976">
        <ele>1288.1</ele>
        <time>2021-10-26T12:31:29Z</time>
      </trkpt>
      <trkpt lat="44.97001" lon="5.75975">
        <ele>1288.1</ele>
        <time>2021-10-26T12:31:40Z</time>
      </trkpt>
      <trkpt lat="44.96999" lon="5.75975">
        <ele>1288.1</ele>
        <time>2021-10-26T12:31:46Z</time>
      </trkpt>
      <trkpt lat="44.96999" lon="5.75978">
        <ele>1288</ele>
        <time>2021-10-26T12:31:52Z</time>
      </trkpt>
      <trkpt lat="44.96997" lon="5.7598">
        <ele>1287.9</ele>
        <time>2021-10-26T12:31:57Z</time>
      </trkpt>
      <trkpt lat="44.96995" lon="5.7598">
        <ele>1287.9</ele>
        <time>2021-10-26T12:32:00Z</time>
      </trkpt>
      <trkpt lat="44.96993" lon="5.75982">
        <ele>1287.5</ele>
        <time>2021-10-26T12:32:03Z</time>
      </trkpt>
      <trkpt lat="44.96992" lon="5.75984">
        <ele>1287.4</ele>
        <time>2021-10-26T12:32:06Z</time>
      </trkpt>
      <trkpt lat="44.96991" lon="5.75986">
        <ele>1287</ele>
        <time>2021-10-26T12:32:09Z</time>
      </trkpt>
      <trkpt lat="44.96989" lon="5.75987">
        <ele>1286.4</ele>
        <time>2021-10-26T12:32:13Z</time>
      </trkpt>
      <trkpt lat="44.96987" lon="5.75987">
        <ele>1286.1</ele>
        <time>2021-10-26T12:32:16Z</time>
      </trkpt>
      <trkpt lat="44.96985" lon="5.75988">
        <ele>1285.4</ele>
        <time>2021-10-26T12:32:19Z</time>
      </trkpt>
      <trkpt lat="44.96984" lon="5.7599">
        <ele>1285.3</ele>
        <time>2021-10-26T12:32:22Z</time>
      </trkpt>
      <trkpt lat="44.96982" lon="5.75992">
        <ele>1284.8</ele>
        <time>2021-10-26T12:32:24Z</time>
      </trkpt>
      <trkpt lat="44.9698" lon="5.75993">
        <ele>1284.4</ele>
        <time>2021-10-26T12:32:26Z</time>
      </trkpt>
      <trkpt lat="44.96979" lon="5.75996">
        <ele>1283.8</ele>
        <time>2021-10-26T12:32:29Z</time>
      </trkpt>
      <trkpt lat="44.96976" lon="5.75998">
        <ele>1283.5</ele>
        <time>2021-10-26T12:32:32Z</time>
      </trkpt>
      <trkpt lat="44.96975" lon="5.76001">
        <ele>1283</ele>
        <time>2021-10-26T12:32:37Z</time>
      </trkpt>
      <trkpt lat="44.96973" lon="5.76003">
        <ele>1283</ele>
        <time>2021-10-26T12:32:40Z</time>
      </trkpt>
      <trkpt lat="44.96971" lon="5.76005">
        <ele>1282.9</ele>
        <time>2021-10-26T12:32:42Z</time>
      </trkpt>
      <trkpt lat="44.96968" lon="5.76006">
        <ele>1283</ele>
        <time>2021-10-26T12:32:44Z</time>
      </trkpt>
      <trkpt lat="44.96967" lon="5.76008">
        <ele>1282.6</ele>
        <time>2021-10-26T12:32:47Z</time>
      </trkpt>
      <trkpt lat="44.96964" lon="5.76009">
        <ele>1282.5</ele>
        <time>2021-10-26T12:32:49Z</time>
      </trkpt>
      <trkpt lat="44.96962" lon="5.7601">
        <ele>1282.2</ele>
        <time>2021-10-26T12:32:51Z</time>
      </trkpt>
      <trkpt lat="44.9696" lon="5.76011">
        <ele>1282.1</ele>
        <time>2021-10-26T12:32:53Z</time>
      </trkpt>
      <trkpt lat="44.96957" lon="5.76011">
        <ele>1282.2</ele>
        <time>2021-10-26T12:32:56Z</time>
      </trkpt>
      <trkpt lat="44.96955" lon="5.76012">
        <ele>1282</ele>
        <time>2021-10-26T12:32:59Z</time>
      </trkpt>
      <trkpt lat="44.96954" lon="5.76013">
        <ele>1282.1</ele>
        <time>2021-10-26T12:33:04Z</time>
      </trkpt>
      <trkpt lat="44.96952" lon="5.76014">
        <ele>1281.9</ele>
        <time>2021-10-26T12:33:07Z</time>
      </trkpt>
      <trkpt lat="44.9695" lon="5.76014">
        <ele>1281.5</ele>
        <time>2021-10-26T12:33:09Z</time>
      </trkpt>
      <trkpt lat="44.96948" lon="5.76015">
        <ele>1281.5</ele>
        <time>2021-10-26T12:33:12Z</time>
      </trkpt>
      <trkpt lat="44.96947" lon="5.76017">
        <ele>1281.3</ele>
        <time>2021-10-26T12:33:14Z</time>
      </trkpt>
      <trkpt lat="44.96945" lon="5.7602">
        <ele>1280.7</ele>
        <time>2021-10-26T12:33:18Z</time>
      </trkpt>
      <trkpt lat="44.96944" lon="5.7602">
        <ele>1280.6</ele>
        <time>2021-10-26T12:33:19Z</time>
      </trkpt>
      <trkpt lat="44.96941" lon="5.76021">
        <ele>1280.9</ele>
        <time>2021-10-26T12:33:22Z</time>
      </trkpt>
      <trkpt lat="44.96939" lon="5.76019">
        <ele>1281.2</ele>
        <time>2021-10-26T12:33:24Z</time>
      </trkpt>
      <trkpt lat="44.96936" lon="5.76021">
        <ele>1281</ele>
        <time>2021-10-26T12:33:29Z</time>
      </trkpt>
      <trkpt lat="44.96935" lon="5.76022">
        <ele>1280.9</ele>
        <time>2021-10-26T12:33:33Z</time>
      </trkpt>
      <trkpt lat="44.96933" lon="5.76024">
        <ele>1280.7</ele>
        <time>2021-10-26T12:33:36Z</time>
      </trkpt>
      <trkpt lat="44.96931" lon="5.76025">
        <ele>1280.6</ele>
        <time>2021-10-26T12:33:38Z</time>
      </trkpt>
      <trkpt lat="44.96928" lon="5.76025">
        <ele>1280.7</ele>
        <time>2021-10-26T12:33:41Z</time>
      </trkpt>
      <trkpt lat="44.96925" lon="5.76025">
        <ele>1281.1</ele>
        <time>2021-10-26T12:33:45Z</time>
      </trkpt>
      <trkpt lat="44.96923" lon="5.76024">
        <ele>1280.9</ele>
        <time>2021-10-26T12:33:50Z</time>
      </trkpt>
      <trkpt lat="44.96921" lon="5.76025">
        <ele>1280.9</ele>
        <time>2021-10-26T12:33:54Z</time>
      </trkpt>
      <trkpt lat="44.96918" lon="5.76026">
        <ele>1280.6</ele>
        <time>2021-10-26T12:33:58Z</time>
      </trkpt>
      <trkpt lat="44.96916" lon="5.76027">
        <ele>1280.1</ele>
        <time>2021-10-26T12:34:03Z</time>
      </trkpt>
      <trkpt lat="44.96914" lon="5.76027">
        <ele>1280</ele>
        <time>2021-10-26T12:34:05Z</time>
      </trkpt>
      <trkpt lat="44.96911" lon="5.76028">
        <ele>1279.9</ele>
        <time>2021-10-26T12:34:08Z</time>
      </trkpt>
      <trkpt lat="44.96909" lon="5.76028">
        <ele>1279.9</ele>
        <time>2021-10-26T12:34:12Z</time>
      </trkpt>
      <trkpt lat="44.96907" lon="5.7603">
        <ele>1279.7</ele>
        <time>2021-10-26T12:34:15Z</time>
      </trkpt>
      <trkpt lat="44.96905" lon="5.76031">
        <ele>1279.4</ele>
        <time>2021-10-26T12:34:18Z</time>
      </trkpt>
      <trkpt lat="44.96903" lon="5.76034">
        <ele>1279.2</ele>
        <time>2021-10-26T12:34:22Z</time>
      </trkpt>
      <trkpt lat="44.96901" lon="5.76035">
        <ele>1279.1</ele>
        <time>2021-10-26T12:34:24Z</time>
      </trkpt>
      <trkpt lat="44.96898" lon="5.76036">
        <ele>1279.1</ele>
        <time>2021-10-26T12:34:26Z</time>
      </trkpt>
      <trkpt lat="44.96896" lon="5.76037">
        <ele>1278.9</ele>
        <time>2021-10-26T12:34:28Z</time>
      </trkpt>
      <trkpt lat="44.96894" lon="5.76039">
        <ele>1278.7</ele>
        <time>2021-10-26T12:34:31Z</time>
      </trkpt>
      <trkpt lat="44.96892" lon="5.7604">
        <ele>1278.6</ele>
        <time>2021-10-26T12:34:34Z</time>
      </trkpt>
      <trkpt lat="44.9689" lon="5.7604">
        <ele>1278.3</ele>
        <time>2021-10-26T12:34:37Z</time>
      </trkpt>
      <trkpt lat="44.96887" lon="5.76041">
        <ele>1278</ele>
        <time>2021-10-26T12:34:40Z</time>
      </trkpt>
      <trkpt lat="44.96885" lon="5.76043">
        <ele>1278.2</ele>
        <time>2021-10-26T12:34:42Z</time>
      </trkpt>
      <trkpt lat="44.96881" lon="5.76044">
        <ele>1277.7</ele>
        <time>2021-10-26T12:34:44Z</time>
      </trkpt>
      <trkpt lat="44.96877" lon="5.76045">
        <ele>1277.7</ele>
        <time>2021-10-26T12:34:47Z</time>
      </trkpt>
      <trkpt lat="44.96876" lon="5.76043">
        <ele>1277.6</ele>
        <time>2021-10-26T12:34:50Z</time>
      </trkpt>
      <trkpt lat="44.96873" lon="5.76044">
        <ele>1277.6</ele>
        <time>2021-10-26T12:34:55Z</time>
      </trkpt>
      <trkpt lat="44.9687" lon="5.76044">
        <ele>1277.3</ele>
        <time>2021-10-26T12:34:58Z</time>
      </trkpt>
      <trkpt lat="44.96869" lon="5.76045">
        <ele>1277.4</ele>
        <time>2021-10-26T12:35:00Z</time>
      </trkpt>
      <trkpt lat="44.96866" lon="5.76046">
        <ele>1277.3</ele>
        <time>2021-10-26T12:35:03Z</time>
      </trkpt>
      <trkpt lat="44.96865" lon="5.76048">
        <ele>1277</ele>
        <time>2021-10-26T12:35:06Z</time>
      </trkpt>
      <trkpt lat="44.96862" lon="5.76049">
        <ele>1276.9</ele>
        <time>2021-10-26T12:35:12Z</time>
      </trkpt>
      <trkpt lat="44.9686" lon="5.7605">
        <ele>1276.3</ele>
        <time>2021-10-26T12:35:17Z</time>
      </trkpt>
      <trkpt lat="44.96858" lon="5.76049">
        <ele>1275.9</ele>
        <time>2021-10-26T12:35:20Z</time>
      </trkpt>
      <trkpt lat="44.96856" lon="5.7605">
        <ele>1275.7</ele>
        <time>2021-10-26T12:35:24Z</time>
      </trkpt>
      <trkpt lat="44.96854" lon="5.76051">
        <ele>1275.6</ele>
        <time>2021-10-26T12:35:25Z</time>
      </trkpt>
      <trkpt lat="44.96852" lon="5.76051">
        <ele>1275.3</ele>
        <time>2021-10-26T12:35:28Z</time>
      </trkpt>
      <trkpt lat="44.96849" lon="5.76052">
        <ele>1273.7</ele>
        <time>2021-10-26T12:35:31Z</time>
      </trkpt>
      <trkpt lat="44.96847" lon="5.76051">
        <ele>1274.3</ele>
        <time>2021-10-26T12:35:34Z</time>
      </trkpt>
      <trkpt lat="44.96844" lon="5.76051">
        <ele>1275.1</ele>
        <time>2021-10-26T12:35:36Z</time>
      </trkpt>
      <trkpt lat="44.96842" lon="5.7605">
        <ele>1274.8</ele>
        <time>2021-10-26T12:35:39Z</time>
      </trkpt>
      <trkpt lat="44.9684" lon="5.76051">
        <ele>1274.4</ele>
        <time>2021-10-26T12:35:41Z</time>
      </trkpt>
      <trkpt lat="44.96839" lon="5.76053">
        <ele>1274.2</ele>
        <time>2021-10-26T12:35:44Z</time>
      </trkpt>
      <trkpt lat="44.96837" lon="5.76053">
        <ele>1274.1</ele>
        <time>2021-10-26T12:35:46Z</time>
      </trkpt>
      <trkpt lat="44.96835" lon="5.76054">
        <ele>1274.1</ele>
        <time>2021-10-26T12:35:49Z</time>
      </trkpt>
      <trkpt lat="44.96832" lon="5.76056">
        <ele>1273.7</ele>
        <time>2021-10-26T12:35:52Z</time>
      </trkpt>
      <trkpt lat="44.9683" lon="5.76057">
        <ele>1273.7</ele>
        <time>2021-10-26T12:35:54Z</time>
      </trkpt>
      <trkpt lat="44.96828" lon="5.76057">
        <ele>1273.9</ele>
        <time>2021-10-26T12:35:57Z</time>
      </trkpt>
      <trkpt lat="44.96826" lon="5.76058">
        <ele>1273.8</ele>
        <time>2021-10-26T12:36:01Z</time>
      </trkpt>
      <trkpt lat="44.96824" lon="5.76059">
        <ele>1273.2</ele>
        <time>2021-10-26T12:36:05Z</time>
      </trkpt>
      <trkpt lat="44.96822" lon="5.7606">
        <ele>1273</ele>
        <time>2021-10-26T12:36:07Z</time>
      </trkpt>
      <trkpt lat="44.9682" lon="5.76059">
        <ele>1273</ele>
        <time>2021-10-26T12:36:10Z</time>
      </trkpt>
      <trkpt lat="44.96816" lon="5.7606">
        <ele>1272.8</ele>
        <time>2021-10-26T12:36:12Z</time>
      </trkpt>
      <trkpt lat="44.96814" lon="5.76059">
        <ele>1272.8</ele>
        <time>2021-10-26T12:36:16Z</time>
      </trkpt>
      <trkpt lat="44.96812" lon="5.76059">
        <ele>1272.8</ele>
        <time>2021-10-26T12:36:19Z</time>
      </trkpt>
      <trkpt lat="44.9681" lon="5.76059">
        <ele>1273</ele>
        <time>2021-10-26T12:36:21Z</time>
      </trkpt>
      <trkpt lat="44.96808" lon="5.76058">
        <ele>1273</ele>
        <time>2021-10-26T12:36:23Z</time>
      </trkpt>
      <trkpt lat="44.96806" lon="5.76058">
        <ele>1273.1</ele>
        <time>2021-10-26T12:36:24Z</time>
      </trkpt>
      <trkpt lat="44.96804" lon="5.76058">
        <ele>1273</ele>
        <time>2021-10-26T12:36:26Z</time>
      </trkpt>
      <trkpt lat="44.96801" lon="5.76058">
        <ele>1272.7</ele>
        <time>2021-10-26T12:36:29Z</time>
      </trkpt>
      <trkpt lat="44.96799" lon="5.76059">
        <ele>1272.5</ele>
        <time>2021-10-26T12:36:32Z</time>
      </trkpt>
      <trkpt lat="44.96796" lon="5.76059">
        <ele>1272.8</ele>
        <time>2021-10-26T12:36:34Z</time>
      </trkpt>
      <trkpt lat="44.96794" lon="5.76057">
        <ele>1272.6</ele>
        <time>2021-10-26T12:36:37Z</time>
      </trkpt>
      <trkpt lat="44.96792" lon="5.76056">
        <ele>1272</ele>
        <time>2021-10-26T12:36:40Z</time>
      </trkpt>
      <trkpt lat="44.9679" lon="5.76055">
        <ele>1272.1</ele>
        <time>2021-10-26T12:36:44Z</time>
      </trkpt>
      <trkpt lat="44.96787" lon="5.76055">
        <ele>1271.9</ele>
        <time>2021-10-26T12:36:47Z</time>
      </trkpt>
      <trkpt lat="44.96785" lon="5.76054">
        <ele>1271.5</ele>
        <time>2021-10-26T12:36:49Z</time>
      </trkpt>
      <trkpt lat="44.96783" lon="5.76053">
        <ele>1271.2</ele>
        <time>2021-10-26T12:36:51Z</time>
      </trkpt>
      <trkpt lat="44.96781" lon="5.76053">
        <ele>1271.3</ele>
        <time>2021-10-26T12:36:53Z</time>
      </trkpt>
      <trkpt lat="44.96778" lon="5.76053">
        <ele>1271.2</ele>
        <time>2021-10-26T12:36:57Z</time>
      </trkpt>
      <trkpt lat="44.96776" lon="5.76053">
        <ele>1271.1</ele>
        <time>2021-10-26T12:36:58Z</time>
      </trkpt>
      <trkpt lat="44.96774" lon="5.76053">
        <ele>1270.8</ele>
        <time>2021-10-26T12:37:00Z</time>
      </trkpt>
      <trkpt lat="44.96772" lon="5.76051">
        <ele>1270.7</ele>
        <time>2021-10-26T12:37:03Z</time>
      </trkpt>
      <trkpt lat="44.9677" lon="5.76051">
        <ele>1270.4</ele>
        <time>2021-10-26T12:37:06Z</time>
      </trkpt>
      <trkpt lat="44.96768" lon="5.7605">
        <ele>1270.1</ele>
        <time>2021-10-26T12:37:10Z</time>
      </trkpt>
      <trkpt lat="44.96766" lon="5.7605">
        <ele>1270.1</ele>
        <time>2021-10-26T12:37:12Z</time>
      </trkpt>
      <trkpt lat="44.96763" lon="5.76049">
        <ele>1270.3</ele>
        <time>2021-10-26T12:37:16Z</time>
      </trkpt>
      <trkpt lat="44.9676" lon="5.76049">
        <ele>1269.8</ele>
        <time>2021-10-26T12:37:19Z</time>
      </trkpt>
      <trkpt lat="44.96758" lon="5.76048">
        <ele>1269.6</ele>
        <time>2021-10-26T12:37:23Z</time>
      </trkpt>
      <trkpt lat="44.96756" lon="5.76048">
        <ele>1269.5</ele>
        <time>2021-10-26T12:37:25Z</time>
      </trkpt>
      <trkpt lat="44.96754" lon="5.76048">
        <ele>1269.1</ele>
        <time>2021-10-26T12:37:28Z</time>
      </trkpt>
      <trkpt lat="44.96752" lon="5.76048">
        <ele>1268.9</ele>
        <time>2021-10-26T12:37:30Z</time>
      </trkpt>
      <trkpt lat="44.96749" lon="5.76049">
        <ele>1268.4</ele>
        <time>2021-10-26T12:37:32Z</time>
      </trkpt>
      <trkpt lat="44.96747" lon="5.7605">
        <ele>1268.2</ele>
        <time>2021-10-26T12:37:34Z</time>
      </trkpt>
      <trkpt lat="44.96745" lon="5.76049">
        <ele>1267.7</ele>
        <time>2021-10-26T12:37:37Z</time>
      </trkpt>
      <trkpt lat="44.96743" lon="5.76049">
        <ele>1267.2</ele>
        <time>2021-10-26T12:37:41Z</time>
      </trkpt>
      <trkpt lat="44.96741" lon="5.76049">
        <ele>1267.3</ele>
        <time>2021-10-26T12:37:44Z</time>
      </trkpt>
      <trkpt lat="44.96739" lon="5.7605">
        <ele>1266.9</ele>
        <time>2021-10-26T12:37:46Z</time>
      </trkpt>
      <trkpt lat="44.96737" lon="5.7605">
        <ele>1266.6</ele>
        <time>2021-10-26T12:37:48Z</time>
      </trkpt>
      <trkpt lat="44.96735" lon="5.76049">
        <ele>1266</ele>
        <time>2021-10-26T12:37:52Z</time>
      </trkpt>
      <trkpt lat="44.96732" lon="5.7605">
        <ele>1266.1</ele>
        <time>2021-10-26T12:37:56Z</time>
      </trkpt>
      <trkpt lat="44.9673" lon="5.76051">
        <ele>1265.9</ele>
        <time>2021-10-26T12:37:59Z</time>
      </trkpt>
      <trkpt lat="44.96728" lon="5.76051">
        <ele>1265.5</ele>
        <time>2021-10-26T12:38:02Z</time>
      </trkpt>
      <trkpt lat="44.96725" lon="5.76052">
        <ele>1264.5</ele>
        <time>2021-10-26T12:38:05Z</time>
      </trkpt>
      <trkpt lat="44.96723" lon="5.76053">
        <ele>1264.3</ele>
        <time>2021-10-26T12:38:06Z</time>
      </trkpt>
      <trkpt lat="44.96721" lon="5.76054">
        <ele>1263.8</ele>
        <time>2021-10-26T12:38:08Z</time>
      </trkpt>
      <trkpt lat="44.96717" lon="5.76055">
        <ele>1264</ele>
        <time>2021-10-26T12:38:13Z</time>
      </trkpt>
      <trkpt lat="44.96715" lon="5.76054">
        <ele>1264</ele>
        <time>2021-10-26T12:38:18Z</time>
      </trkpt>
      <trkpt lat="44.96714" lon="5.76054">
        <ele>1263.9</ele>
        <time>2021-10-26T12:38:20Z</time>
      </trkpt>
      <trkpt lat="44.96711" lon="5.76053">
        <ele>1263.4</ele>
        <time>2021-10-26T12:38:24Z</time>
      </trkpt>
      <trkpt lat="44.96709" lon="5.76053">
        <ele>1263</ele>
        <time>2021-10-26T12:38:27Z</time>
      </trkpt>
      <trkpt lat="44.96706" lon="5.76053">
        <ele>1262.9</ele>
        <time>2021-10-26T12:38:31Z</time>
      </trkpt>
      <trkpt lat="44.96704" lon="5.76051">
        <ele>1263</ele>
        <time>2021-10-26T12:38:34Z</time>
      </trkpt>
      <trkpt lat="44.96702" lon="5.76051">
        <ele>1262.7</ele>
        <time>2021-10-26T12:38:36Z</time>
      </trkpt>
      <trkpt lat="44.96699" lon="5.76052">
        <ele>1262.8</ele>
        <time>2021-10-26T12:38:38Z</time>
      </trkpt>
      <trkpt lat="44.96697" lon="5.76053">
        <ele>1262.6</ele>
        <time>2021-10-26T12:38:41Z</time>
      </trkpt>
      <trkpt lat="44.96694" lon="5.76051">
        <ele>1262.4</ele>
        <time>2021-10-26T12:38:43Z</time>
      </trkpt>
      <trkpt lat="44.96692" lon="5.76051">
        <ele>1262.1</ele>
        <time>2021-10-26T12:38:46Z</time>
      </trkpt>
      <trkpt lat="44.9669" lon="5.76053">
        <ele>1261.8</ele>
        <time>2021-10-26T12:38:49Z</time>
      </trkpt>
      <trkpt lat="44.96688" lon="5.76053">
        <ele>1261.9</ele>
        <time>2021-10-26T12:38:51Z</time>
      </trkpt>
      <trkpt lat="44.96686" lon="5.76053">
        <ele>1261.7</ele>
        <time>2021-10-26T12:38:53Z</time>
      </trkpt>
      <trkpt lat="44.96684" lon="5.76054">
        <ele>1261.6</ele>
        <time>2021-10-26T12:38:56Z</time>
      </trkpt>
      <trkpt lat="44.96681" lon="5.76053">
        <ele>1261.5</ele>
        <time>2021-10-26T12:38:58Z</time>
      </trkpt>
      <trkpt lat="44.9668" lon="5.76053">
        <ele>1261.3</ele>
        <time>2021-10-26T12:38:59Z</time>
      </trkpt>
      <trkpt lat="44.96677" lon="5.76053">
        <ele>1261.5</ele>
        <time>2021-10-26T12:39:04Z</time>
      </trkpt>
      <trkpt lat="44.96675" lon="5.76053">
        <ele>1261.4</ele>
        <time>2021-10-26T12:39:05Z</time>
      </trkpt>
      <trkpt lat="44.96673" lon="5.76054">
        <ele>1261.2</ele>
        <time>2021-10-26T12:39:06Z</time>
      </trkpt>
      <trkpt lat="44.96671" lon="5.76055">
        <ele>1261</ele>
        <time>2021-10-26T12:39:09Z</time>
      </trkpt>
      <trkpt lat="44.96669" lon="5.76055">
        <ele>1261.2</ele>
        <time>2021-10-26T12:39:11Z</time>
      </trkpt>
      <trkpt lat="44.96665" lon="5.76056">
        <ele>1261.2</ele>
        <time>2021-10-26T12:39:13Z</time>
      </trkpt>
      <trkpt lat="44.96661" lon="5.76056">
        <ele>1261.2</ele>
        <time>2021-10-26T12:39:15Z</time>
      </trkpt>
      <trkpt lat="44.96658" lon="5.76056">
        <ele>1260.9</ele>
        <time>2021-10-26T12:39:19Z</time>
      </trkpt>
      <trkpt lat="44.96656" lon="5.76055">
        <ele>1261</ele>
        <time>2021-10-26T12:39:23Z</time>
      </trkpt>
      <trkpt lat="44.96654" lon="5.76054">
        <ele>1260.7</ele>
        <time>2021-10-26T12:39:26Z</time>
      </trkpt>
      <trkpt lat="44.96652" lon="5.76054">
        <ele>1260.8</ele>
        <time>2021-10-26T12:39:28Z</time>
      </trkpt>
      <trkpt lat="44.9665" lon="5.76054">
        <ele>1260.4</ele>
        <time>2021-10-26T12:39:30Z</time>
      </trkpt>
      <trkpt lat="44.96648" lon="5.76054">
        <ele>1260.9</ele>
        <time>2021-10-26T12:39:33Z</time>
      </trkpt>
      <trkpt lat="44.96646" lon="5.76053">
        <ele>1261.1</ele>
        <time>2021-10-26T12:39:35Z</time>
      </trkpt>
      <trkpt lat="44.96643" lon="5.76053">
        <ele>1261.1</ele>
        <time>2021-10-26T12:39:37Z</time>
      </trkpt>
      <trkpt lat="44.96641" lon="5.76053">
        <ele>1261.5</ele>
        <time>2021-10-26T12:39:40Z</time>
      </trkpt>
      <trkpt lat="44.96639" lon="5.76055">
        <ele>1261.7</ele>
        <time>2021-10-26T12:39:43Z</time>
      </trkpt>
      <trkpt lat="44.96636" lon="5.76056">
        <ele>1262</ele>
        <time>2021-10-26T12:39:46Z</time>
      </trkpt>
      <trkpt lat="44.96633" lon="5.76057">
        <ele>1262</ele>
        <time>2021-10-26T12:39:47Z</time>
      </trkpt>
      <trkpt lat="44.96631" lon="5.76058">
        <ele>1262.1</ele>
        <time>2021-10-26T12:39:49Z</time>
      </trkpt>
      <trkpt lat="44.96628" lon="5.76058">
        <ele>1262.1</ele>
        <time>2021-10-26T12:39:52Z</time>
      </trkpt>
      <trkpt lat="44.96626" lon="5.76059">
        <ele>1263</ele>
        <time>2021-10-26T12:39:56Z</time>
      </trkpt>
      <trkpt lat="44.96624" lon="5.76059">
        <ele>1263.4</ele>
        <time>2021-10-26T12:39:59Z</time>
      </trkpt>
      <trkpt lat="44.96622" lon="5.7606">
        <ele>1263.3</ele>
        <time>2021-10-26T12:40:02Z</time>
      </trkpt>
      <trkpt lat="44.9662" lon="5.76061">
        <ele>1263.5</ele>
        <time>2021-10-26T12:40:06Z</time>
      </trkpt>
      <trkpt lat="44.96617" lon="5.76061">
        <ele>1263.4</ele>
        <time>2021-10-26T12:40:09Z</time>
      </trkpt>
      <trkpt lat="44.96616" lon="5.76061">
        <ele>1263.5</ele>
        <time>2021-10-26T12:40:12Z</time>
      </trkpt>
      <trkpt lat="44.96614" lon="5.7606">
        <ele>1263.7</ele>
        <time>2021-10-26T12:40:17Z</time>
      </trkpt>
      <trkpt lat="44.96612" lon="5.7606">
        <ele>1263.7</ele>
        <time>2021-10-26T12:40:18Z</time>
      </trkpt>
      <trkpt lat="44.9661" lon="5.76059">
        <ele>1261.6</ele>
        <time>2021-10-26T12:40:45Z</time>
      </trkpt>
      <trkpt lat="44.96607" lon="5.76059">
        <ele>1264.2</ele>
        <time>2021-10-26T12:40:50Z</time>
      </trkpt>
      <trkpt lat="44.96605" lon="5.76059">
        <ele>1264.1</ele>
        <time>2021-10-26T12:40:55Z</time>
      </trkpt>
      <trkpt lat="44.96604" lon="5.76061">
        <ele>1263.5</ele>
        <time>2021-10-26T12:41:09Z</time>
      </trkpt>
      <trkpt lat="44.96602" lon="5.7606">
        <ele>1263</ele>
        <time>2021-10-26T12:41:21Z</time>
      </trkpt>
      <trkpt lat="44.966" lon="5.76058">
        <ele>1263.6</ele>
        <time>2021-10-26T12:41:24Z</time>
      </trkpt>
      <trkpt lat="44.96598" lon="5.76057">
        <ele>1263.1</ele>
        <time>2021-10-26T12:41:27Z</time>
      </trkpt>
      <trkpt lat="44.96597" lon="5.76054">
        <ele>1263</ele>
        <time>2021-10-26T12:41:30Z</time>
      </trkpt>
      <trkpt lat="44.96595" lon="5.76053">
        <ele>1262.9</ele>
        <time>2021-10-26T12:41:32Z</time>
      </trkpt>
      <trkpt lat="44.96594" lon="5.7605">
        <ele>1262.7</ele>
        <time>2021-10-26T12:41:35Z</time>
      </trkpt>
      <trkpt lat="44.96593" lon="5.76048">
        <ele>1262.6</ele>
        <time>2021-10-26T12:41:37Z</time>
      </trkpt>
      <trkpt lat="44.96592" lon="5.76045">
        <ele>1261.9</ele>
        <time>2021-10-26T12:41:40Z</time>
      </trkpt>
      <trkpt lat="44.96591" lon="5.76044">
        <ele>1262</ele>
        <time>2021-10-26T12:41:46Z</time>
      </trkpt>
      <trkpt lat="44.96589" lon="5.76045">
        <ele>1262</ele>
        <time>2021-10-26T12:41:49Z</time>
      </trkpt>
      <trkpt lat="44.96587" lon="5.76044">
        <ele>1261.7</ele>
        <time>2021-10-26T12:41:52Z</time>
      </trkpt>
      <trkpt lat="44.96586" lon="5.76041">
        <ele>1261.4</ele>
        <time>2021-10-26T12:41:55Z</time>
      </trkpt>
      <trkpt lat="44.96585" lon="5.76037">
        <ele>1261.2</ele>
        <time>2021-10-26T12:41:58Z</time>
      </trkpt>
      <trkpt lat="44.96585" lon="5.76035">
        <ele>1260.9</ele>
        <time>2021-10-26T12:42:01Z</time>
      </trkpt>
      <trkpt lat="44.96584" lon="5.76032">
        <ele>1260.4</ele>
        <time>2021-10-26T12:42:04Z</time>
      </trkpt>
      <trkpt lat="44.96583" lon="5.76029">
        <ele>1260.1</ele>
        <time>2021-10-26T12:42:08Z</time>
      </trkpt>
      <trkpt lat="44.96583" lon="5.76026">
        <ele>1259.3</ele>
        <time>2021-10-26T12:42:12Z</time>
      </trkpt>
      <trkpt lat="44.96583" lon="5.76022">
        <ele>1258.8</ele>
        <time>2021-10-26T12:42:17Z</time>
      </trkpt>
      <trkpt lat="44.96582" lon="5.76019">
        <ele>1258.3</ele>
        <time>2021-10-26T12:42:22Z</time>
      </trkpt>
      <trkpt lat="44.96581" lon="5.76016">
        <ele>1257.8</ele>
        <time>2021-10-26T12:42:26Z</time>
      </trkpt>
      <trkpt lat="44.9658" lon="5.76014">
        <ele>1257.5</ele>
        <time>2021-10-26T12:42:29Z</time>
      </trkpt>
      <trkpt lat="44.96579" lon="5.76011">
        <ele>1257.3</ele>
        <time>2021-10-26T12:42:33Z</time>
      </trkpt>
      <trkpt lat="44.96577" lon="5.7601">
        <ele>1257</ele>
        <time>2021-10-26T12:42:36Z</time>
      </trkpt>
      <trkpt lat="44.96575" lon="5.76009">
        <ele>1256.2</ele>
        <time>2021-10-26T12:42:40Z</time>
      </trkpt>
      <trkpt lat="44.96573" lon="5.76008">
        <ele>1255.2</ele>
        <time>2021-10-26T12:42:45Z</time>
      </trkpt>
      <trkpt lat="44.96572" lon="5.76006">
        <ele>1255.2</ele>
        <time>2021-10-26T12:42:49Z</time>
      </trkpt>
      <trkpt lat="44.96571" lon="5.76004">
        <ele>1254.9</ele>
        <time>2021-10-26T12:42:53Z</time>
      </trkpt>
      <trkpt lat="44.96569" lon="5.76003">
        <ele>1254.5</ele>
        <time>2021-10-26T12:42:56Z</time>
      </trkpt>
      <trkpt lat="44.96567" lon="5.76002">
        <ele>1254</ele>
        <time>2021-10-26T12:42:59Z</time>
      </trkpt>
      <trkpt lat="44.96563" lon="5.76003">
        <ele>1253.7</ele>
        <time>2021-10-26T12:43:01Z</time>
      </trkpt>
      <trkpt lat="44.9656" lon="5.76004">
        <ele>1253.2</ele>
        <time>2021-10-26T12:43:03Z</time>
      </trkpt>
      <trkpt lat="44.96559" lon="5.76007">
        <ele>1253</ele>
        <time>2021-10-26T12:43:05Z</time>
      </trkpt>
      <trkpt lat="44.96551" lon="5.76011">
        <ele>1251</ele>
        <time>2021-10-26T12:43:09Z</time>
      </trkpt>
      <trkpt lat="44.96548" lon="5.76002">
        <ele>1251.3</ele>
        <time>2021-10-26T12:43:14Z</time>
      </trkpt>
      <trkpt lat="44.96549" lon="5.75999">
        <ele>1251</ele>
        <time>2021-10-26T12:43:16Z</time>
      </trkpt>
      <trkpt lat="44.9655" lon="5.75995">
        <ele>1250.9</ele>
        <time>2021-10-26T12:43:18Z</time>
      </trkpt>
      <trkpt lat="44.96549" lon="5.75992">
        <ele>1250.5</ele>
        <time>2021-10-26T12:43:21Z</time>
      </trkpt>
      <trkpt lat="44.96547" lon="5.7599">
        <ele>1250.4</ele>
        <time>2021-10-26T12:43:24Z</time>
      </trkpt>
      <trkpt lat="44.96545" lon="5.75989">
        <ele>1250.2</ele>
        <time>2021-10-26T12:43:27Z</time>
      </trkpt>
      <trkpt lat="44.96544" lon="5.75988">
        <ele>1250</ele>
        <time>2021-10-26T12:43:30Z</time>
      </trkpt>
      <trkpt lat="44.96542" lon="5.75986">
        <ele>1249.5</ele>
        <time>2021-10-26T12:43:34Z</time>
      </trkpt>
      <trkpt lat="44.9654" lon="5.75985">
        <ele>1249.3</ele>
        <time>2021-10-26T12:43:37Z</time>
      </trkpt>
      <trkpt lat="44.96538" lon="5.75984">
        <ele>1249.3</ele>
        <time>2021-10-26T12:43:39Z</time>
      </trkpt>
      <trkpt lat="44.96537" lon="5.75982">
        <ele>1249.1</ele>
        <time>2021-10-26T12:43:42Z</time>
      </trkpt>
      <trkpt lat="44.96535" lon="5.75981">
        <ele>1249</ele>
        <time>2021-10-26T12:43:44Z</time>
      </trkpt>
      <trkpt lat="44.96534" lon="5.75978">
        <ele>1248.8</ele>
        <time>2021-10-26T12:43:47Z</time>
      </trkpt>
      <trkpt lat="44.96532" lon="5.75976">
        <ele>1248.4</ele>
        <time>2021-10-26T12:43:51Z</time>
      </trkpt>
      <trkpt lat="44.96531" lon="5.75975">
        <ele>1248.2</ele>
        <time>2021-10-26T12:43:54Z</time>
      </trkpt>
      <trkpt lat="44.96529" lon="5.75975">
        <ele>1248.1</ele>
        <time>2021-10-26T12:43:57Z</time>
      </trkpt>
      <trkpt lat="44.96527" lon="5.75973">
        <ele>1248.1</ele>
        <time>2021-10-26T12:44:01Z</time>
      </trkpt>
      <trkpt lat="44.96524" lon="5.75973">
        <ele>1247.8</ele>
        <time>2021-10-26T12:44:04Z</time>
      </trkpt>
      <trkpt lat="44.96522" lon="5.75971">
        <ele>1247.9</ele>
        <time>2021-10-26T12:44:06Z</time>
      </trkpt>
      <trkpt lat="44.9652" lon="5.7597">
        <ele>1248.3</ele>
        <time>2021-10-26T12:44:13Z</time>
      </trkpt>
      <trkpt lat="44.96518" lon="5.75969">
        <ele>1248.3</ele>
        <time>2021-10-26T12:44:16Z</time>
      </trkpt>
      <trkpt lat="44.96517" lon="5.75968">
        <ele>1248.1</ele>
        <time>2021-10-26T12:44:19Z</time>
      </trkpt>
      <trkpt lat="44.96515" lon="5.75967">
        <ele>1247.7</ele>
        <time>2021-10-26T12:44:22Z</time>
      </trkpt>
      <trkpt lat="44.96513" lon="5.75966">
        <ele>1247.1</ele>
        <time>2021-10-26T12:44:25Z</time>
      </trkpt>
      <trkpt lat="44.96511" lon="5.75965">
        <ele>1246.7</ele>
        <time>2021-10-26T12:44:28Z</time>
      </trkpt>
      <trkpt lat="44.96509" lon="5.75963">
        <ele>1246.3</ele>
        <time>2021-10-26T12:44:31Z</time>
      </trkpt>
      <trkpt lat="44.96507" lon="5.7596">
        <ele>1245.7</ele>
        <time>2021-10-26T12:44:35Z</time>
      </trkpt>
      <trkpt lat="44.96506" lon="5.75958">
        <ele>1245.5</ele>
        <time>2021-10-26T12:44:38Z</time>
      </trkpt>
      <trkpt lat="44.96505" lon="5.75955">
        <ele>1245.8</ele>
        <time>2021-10-26T12:44:42Z</time>
      </trkpt>
      <trkpt lat="44.96504" lon="5.75952">
        <ele>1245.1</ele>
        <time>2021-10-26T12:44:50Z</time>
      </trkpt>
      <trkpt lat="44.96502" lon="5.7595">
        <ele>1244.9</ele>
        <time>2021-10-26T12:44:56Z</time>
      </trkpt>
      <trkpt lat="44.96502" lon="5.75947">
        <ele>1244</ele>
        <time>2021-10-26T12:45:01Z</time>
      </trkpt>
      <trkpt lat="44.96501" lon="5.75946">
        <ele>1243.3</ele>
        <time>2021-10-26T12:45:07Z</time>
      </trkpt>
      <trkpt lat="44.965" lon="5.75943">
        <ele>1242.6</ele>
        <time>2021-10-26T12:45:11Z</time>
      </trkpt>
      <trkpt lat="44.965" lon="5.7594">
        <ele>1242.6</ele>
        <time>2021-10-26T12:45:15Z</time>
      </trkpt>
      <trkpt lat="44.96498" lon="5.7594">
        <ele>1241</ele>
        <time>2021-10-26T12:45:35Z</time>
      </trkpt>
      <trkpt lat="44.96497" lon="5.75938">
        <ele>1240.9</ele>
        <time>2021-10-26T12:45:58Z</time>
      </trkpt>
      <trkpt lat="44.96498" lon="5.75938">
        <ele>1239.6</ele>
        <time>2021-10-26T12:48:59Z</time>
      </trkpt>
      <trkpt lat="44.965" lon="5.75939">
        <ele>1239.7</ele>
        <time>2021-10-26T12:53:06Z</time>
      </trkpt>
      <trkpt lat="44.96499" lon="5.75941">
        <ele>1239.3</ele>
        <time>2021-10-26T12:57:59Z</time>
      </trkpt>
      <trkpt lat="44.96499" lon="5.75938">
        <ele>1239.5</ele>
        <time>2021-10-26T13:14:41Z</time>
      </trkpt>
      <trkpt lat="44.96499" lon="5.75936">
        <ele>1240.1</ele>
        <time>2021-10-26T13:22:00Z</time>
      </trkpt>
      <trkpt lat="44.96499" lon="5.75939">
        <ele>1239.7</ele>
        <time>2021-10-26T13:23:19Z</time>
      </trkpt>
      <trkpt lat="44.965" lon="5.75941">
        <ele>1240.3</ele>
        <time>2021-10-26T13:23:23Z</time>
      </trkpt>
      <trkpt lat="44.96502" lon="5.75942">
        <ele>1241.2</ele>
        <time>2021-10-26T13:23:27Z</time>
      </trkpt>
      <trkpt lat="44.96503" lon="5.75944">
        <ele>1243</ele>
        <time>2021-10-26T13:23:30Z</time>
      </trkpt>
      <trkpt lat="44.96505" lon="5.75946">
        <ele>1243.6</ele>
        <time>2021-10-26T13:23:34Z</time>
      </trkpt>
      <trkpt lat="44.96507" lon="5.75948">
        <ele>1244.2</ele>
        <time>2021-10-26T13:23:38Z</time>
      </trkpt>
      <trkpt lat="44.96508" lon="5.7595">
        <ele>1244.9</ele>
        <time>2021-10-26T13:23:42Z</time>
      </trkpt>
      <trkpt lat="44.96509" lon="5.75953">
        <ele>1245.2</ele>
        <time>2021-10-26T13:23:46Z</time>
      </trkpt>
      <trkpt lat="44.9651" lon="5.75954">
        <ele>1244.9</ele>
        <time>2021-10-26T13:23:53Z</time>
      </trkpt>
      <trkpt lat="44.96512" lon="5.75955">
        <ele>1245.3</ele>
        <time>2021-10-26T13:23:57Z</time>
      </trkpt>
      <trkpt lat="44.96514" lon="5.75957">
        <ele>1245.3</ele>
        <time>2021-10-26T13:24:01Z</time>
      </trkpt>
      <trkpt lat="44.96515" lon="5.75959">
        <ele>1245.9</ele>
        <time>2021-10-26T13:24:05Z</time>
      </trkpt>
      <trkpt lat="44.96517" lon="5.7596">
        <ele>1247.2</ele>
        <time>2021-10-26T13:24:09Z</time>
      </trkpt>
      <trkpt lat="44.96519" lon="5.75962">
        <ele>1247.9</ele>
        <time>2021-10-26T13:24:13Z</time>
      </trkpt>
      <trkpt lat="44.96521" lon="5.75963">
        <ele>1248.4</ele>
        <time>2021-10-26T13:24:16Z</time>
      </trkpt>
      <trkpt lat="44.96524" lon="5.75964">
        <ele>1248.4</ele>
        <time>2021-10-26T13:24:19Z</time>
      </trkpt>
      <trkpt lat="44.96525" lon="5.75965">
        <ele>1249</ele>
        <time>2021-10-26T13:24:22Z</time>
      </trkpt>
      <trkpt lat="44.96527" lon="5.75967">
        <ele>1248.3</ele>
        <time>2021-10-26T13:24:26Z</time>
      </trkpt>
      <trkpt lat="44.96529" lon="5.75968">
        <ele>1248.3</ele>
        <time>2021-10-26T13:24:29Z</time>
      </trkpt>
      <trkpt lat="44.96531" lon="5.7597">
        <ele>1249.2</ele>
        <time>2021-10-26T13:24:32Z</time>
      </trkpt>
      <trkpt lat="44.96533" lon="5.75971">
        <ele>1249.7</ele>
        <time>2021-10-26T13:24:35Z</time>
      </trkpt>
      <trkpt lat="44.96535" lon="5.75972">
        <ele>1248.7</ele>
        <time>2021-10-26T13:24:43Z</time>
      </trkpt>
      <trkpt lat="44.96537" lon="5.75975">
        <ele>1248.9</ele>
        <time>2021-10-26T13:24:49Z</time>
      </trkpt>
      <trkpt lat="44.96539" lon="5.75976">
        <ele>1249.4</ele>
        <time>2021-10-26T13:24:52Z</time>
      </trkpt>
      <trkpt lat="44.96541" lon="5.75977">
        <ele>1249.4</ele>
        <time>2021-10-26T13:24:56Z</time>
      </trkpt>
      <trkpt lat="44.96543" lon="5.75979">
        <ele>1249.8</ele>
        <time>2021-10-26T13:24:59Z</time>
      </trkpt>
      <trkpt lat="44.96545" lon="5.75981">
        <ele>1249.8</ele>
        <time>2021-10-26T13:25:02Z</time>
      </trkpt>
      <trkpt lat="44.96547" lon="5.75982">
        <ele>1250</ele>
        <time>2021-10-26T13:25:05Z</time>
      </trkpt>
      <trkpt lat="44.96549" lon="5.75983">
        <ele>1250</ele>
        <time>2021-10-26T13:25:08Z</time>
      </trkpt>
      <trkpt lat="44.96551" lon="5.75984">
        <ele>1250.7</ele>
        <time>2021-10-26T13:25:11Z</time>
      </trkpt>
      <trkpt lat="44.96553" lon="5.75986">
        <ele>1251.1</ele>
        <time>2021-10-26T13:25:14Z</time>
      </trkpt>
      <trkpt lat="44.96555" lon="5.75987">
        <ele>1250.9</ele>
        <time>2021-10-26T13:25:17Z</time>
      </trkpt>
      <trkpt lat="44.96557" lon="5.75988">
        <ele>1251.5</ele>
        <time>2021-10-26T13:25:20Z</time>
      </trkpt>
      <trkpt lat="44.96559" lon="5.7599">
        <ele>1252.4</ele>
        <time>2021-10-26T13:25:23Z</time>
      </trkpt>
      <trkpt lat="44.96561" lon="5.7599">
        <ele>1252.5</ele>
        <time>2021-10-26T13:25:26Z</time>
      </trkpt>
      <trkpt lat="44.96563" lon="5.75991">
        <ele>1252.9</ele>
        <time>2021-10-26T13:25:29Z</time>
      </trkpt>
      <trkpt lat="44.96565" lon="5.75992">
        <ele>1253.6</ele>
        <time>2021-10-26T13:25:32Z</time>
      </trkpt>
      <trkpt lat="44.96567" lon="5.75994">
        <ele>1254</ele>
        <time>2021-10-26T13:25:35Z</time>
      </trkpt>
      <trkpt lat="44.96569" lon="5.75995">
        <ele>1253.4</ele>
        <time>2021-10-26T13:25:38Z</time>
      </trkpt>
      <trkpt lat="44.96571" lon="5.75996">
        <ele>1253.4</ele>
        <time>2021-10-26T13:25:41Z</time>
      </trkpt>
      <trkpt lat="44.96574" lon="5.75998">
        <ele>1255.2</ele>
        <time>2021-10-26T13:25:45Z</time>
      </trkpt>
      <trkpt lat="44.96576" lon="5.75999">
        <ele>1255.8</ele>
        <time>2021-10-26T13:25:49Z</time>
      </trkpt>
      <trkpt lat="44.96577" lon="5.76">
        <ele>1256.5</ele>
        <time>2021-10-26T13:25:53Z</time>
      </trkpt>
      <trkpt lat="44.96579" lon="5.76002">
        <ele>1255.8</ele>
        <time>2021-10-26T13:25:57Z</time>
      </trkpt>
      <trkpt lat="44.96581" lon="5.76003">
        <ele>1256</ele>
        <time>2021-10-26T13:26:00Z</time>
      </trkpt>
      <trkpt lat="44.96583" lon="5.76004">
        <ele>1256.5</ele>
        <time>2021-10-26T13:26:03Z</time>
      </trkpt>
      <trkpt lat="44.96585" lon="5.76005">
        <ele>1256.6</ele>
        <time>2021-10-26T13:26:05Z</time>
      </trkpt>
      <trkpt lat="44.96586" lon="5.76007">
        <ele>1256.8</ele>
        <time>2021-10-26T13:26:08Z</time>
      </trkpt>
      <trkpt lat="44.96588" lon="5.7601">
        <ele>1257.7</ele>
        <time>2021-10-26T13:26:12Z</time>
      </trkpt>
      <trkpt lat="44.96588" lon="5.76007">
        <ele>1258.3</ele>
        <time>2021-10-26T13:26:32Z</time>
      </trkpt>
      <trkpt lat="44.9659" lon="5.76008">
        <ele>1256.9</ele>
        <time>2021-10-26T13:27:15Z</time>
      </trkpt>
      <trkpt lat="44.9659" lon="5.7601">
        <ele>1257</ele>
        <time>2021-10-26T13:27:24Z</time>
      </trkpt>
      <trkpt lat="44.96589" lon="5.76011">
        <ele>1258.1</ele>
        <time>2021-10-26T13:27:36Z</time>
      </trkpt>
      <trkpt lat="44.96587" lon="5.76012">
        <ele>1257.1</ele>
        <time>2021-10-26T13:27:49Z</time>
      </trkpt>
      <trkpt lat="44.96586" lon="5.76015">
        <ele>1256.9</ele>
        <time>2021-10-26T13:27:54Z</time>
      </trkpt>
      <trkpt lat="44.96586" lon="5.76018">
        <ele>1258.4</ele>
        <time>2021-10-26T13:28:00Z</time>
      </trkpt>
      <trkpt lat="44.96586" lon="5.76021">
        <ele>1258.9</ele>
        <time>2021-10-26T13:28:05Z</time>
      </trkpt>
      <trkpt lat="44.96585" lon="5.76023">
        <ele>1260.4</ele>
        <time>2021-10-26T13:28:08Z</time>
      </trkpt>
      <trkpt lat="44.96585" lon="5.76027">
        <ele>1261.4</ele>
        <time>2021-10-26T13:28:12Z</time>
      </trkpt>
      <trkpt lat="44.96586" lon="5.76029">
        <ele>1262</ele>
        <time>2021-10-26T13:28:15Z</time>
      </trkpt>
      <trkpt lat="44.96585" lon="5.76032">
        <ele>1261.2</ele>
        <time>2021-10-26T13:28:21Z</time>
      </trkpt>
      <trkpt lat="44.96585" lon="5.76035">
        <ele>1260.4</ele>
        <time>2021-10-26T13:28:25Z</time>
      </trkpt>
      <trkpt lat="44.96585" lon="5.76038">
        <ele>1261.4</ele>
        <time>2021-10-26T13:28:28Z</time>
      </trkpt>
      <trkpt lat="44.96585" lon="5.76041">
        <ele>1260.8</ele>
        <time>2021-10-26T13:28:32Z</time>
      </trkpt>
      <trkpt lat="44.96584" lon="5.76044">
        <ele>1261.4</ele>
        <time>2021-10-26T13:28:37Z</time>
      </trkpt>
      <trkpt lat="44.96585" lon="5.76047">
        <ele>1262.4</ele>
        <time>2021-10-26T13:28:44Z</time>
      </trkpt>
      <trkpt lat="44.96583" lon="5.76049">
        <ele>1261.3</ele>
        <time>2021-10-26T13:29:25Z</time>
      </trkpt>
      <trkpt lat="44.96584" lon="5.76051">
        <ele>1261.1</ele>
        <time>2021-10-26T13:29:32Z</time>
      </trkpt>
      <trkpt lat="44.96585" lon="5.76054">
        <ele>1261.3</ele>
        <time>2021-10-26T13:29:35Z</time>
      </trkpt>
      <trkpt lat="44.96587" lon="5.76057">
        <ele>1261.1</ele>
        <time>2021-10-26T13:29:38Z</time>
      </trkpt>
      <trkpt lat="44.96588" lon="5.7606">
        <ele>1262.1</ele>
        <time>2021-10-26T13:29:41Z</time>
      </trkpt>
      <trkpt lat="44.96589" lon="5.76062">
        <ele>1262.1</ele>
        <time>2021-10-26T13:29:43Z</time>
      </trkpt>
      <trkpt lat="44.9659" lon="5.76064">
        <ele>1261.5</ele>
        <time>2021-10-26T13:29:45Z</time>
      </trkpt>
      <trkpt lat="44.96591" lon="5.76066">
        <ele>1261.7</ele>
        <time>2021-10-26T13:29:47Z</time>
      </trkpt>
      <trkpt lat="44.96591" lon="5.7607">
        <ele>1261.7</ele>
        <time>2021-10-26T13:29:50Z</time>
      </trkpt>
      <trkpt lat="44.96592" lon="5.76073">
        <ele>1260.9</ele>
        <time>2021-10-26T13:29:53Z</time>
      </trkpt>
      <trkpt lat="44.96593" lon="5.76075">
        <ele>1260.5</ele>
        <time>2021-10-26T13:29:56Z</time>
      </trkpt>
      <trkpt lat="44.96594" lon="5.76078">
        <ele>1260.2</ele>
        <time>2021-10-26T13:29:59Z</time>
      </trkpt>
      <trkpt lat="44.96596" lon="5.76081">
        <ele>1259.2</ele>
        <time>2021-10-26T13:30:02Z</time>
      </trkpt>
      <trkpt lat="44.96597" lon="5.76083">
        <ele>1259.1</ele>
        <time>2021-10-26T13:30:05Z</time>
      </trkpt>
      <trkpt lat="44.96599" lon="5.76085">
        <ele>1259</ele>
        <time>2021-10-26T13:30:08Z</time>
      </trkpt>
      <trkpt lat="44.966" lon="5.76086">
        <ele>1258.8</ele>
        <time>2021-10-26T13:30:11Z</time>
      </trkpt>
      <trkpt lat="44.96602" lon="5.76088">
        <ele>1258.1</ele>
        <time>2021-10-26T13:30:14Z</time>
      </trkpt>
      <trkpt lat="44.96604" lon="5.7609">
        <ele>1257</ele>
        <time>2021-10-26T13:30:17Z</time>
      </trkpt>
      <trkpt lat="44.96605" lon="5.76091">
        <ele>1256.3</ele>
        <time>2021-10-26T13:30:20Z</time>
      </trkpt>
      <trkpt lat="44.96607" lon="5.76093">
        <ele>1255.6</ele>
        <time>2021-10-26T13:30:23Z</time>
      </trkpt>
      <trkpt lat="44.96608" lon="5.76095">
        <ele>1255</ele>
        <time>2021-10-26T13:30:26Z</time>
      </trkpt>
      <trkpt lat="44.9661" lon="5.76098">
        <ele>1254.7</ele>
        <time>2021-10-26T13:30:30Z</time>
      </trkpt>
      <trkpt lat="44.96611" lon="5.76101">
        <ele>1253.5</ele>
        <time>2021-10-26T13:30:35Z</time>
      </trkpt>
      <trkpt lat="44.96612" lon="5.76103">
        <ele>1252.9</ele>
        <time>2021-10-26T13:30:39Z</time>
      </trkpt>
      <trkpt lat="44.96613" lon="5.76106">
        <ele>1252.1</ele>
        <time>2021-10-26T13:30:42Z</time>
      </trkpt>
      <trkpt lat="44.96614" lon="5.76108">
        <ele>1252</ele>
        <time>2021-10-26T13:30:46Z</time>
      </trkpt>
      <trkpt lat="44.96614" lon="5.76111">
        <ele>1251.4</ele>
        <time>2021-10-26T13:30:49Z</time>
      </trkpt>
      <trkpt lat="44.96615" lon="5.76113">
        <ele>1250.4</ele>
        <time>2021-10-26T13:30:52Z</time>
      </trkpt>
      <trkpt lat="44.96616" lon="5.76115">
        <ele>1250.4</ele>
        <time>2021-10-26T13:30:56Z</time>
      </trkpt>
      <trkpt lat="44.96617" lon="5.76119">
        <ele>1249.4</ele>
        <time>2021-10-26T13:31:00Z</time>
      </trkpt>
      <trkpt lat="44.96618" lon="5.76121">
        <ele>1248.7</ele>
        <time>2021-10-26T13:31:04Z</time>
      </trkpt>
      <trkpt lat="44.96618" lon="5.76123">
        <ele>1248.3</ele>
        <time>2021-10-26T13:31:08Z</time>
      </trkpt>
      <trkpt lat="44.96619" lon="5.76126">
        <ele>1248</ele>
        <time>2021-10-26T13:31:11Z</time>
      </trkpt>
      <trkpt lat="44.9662" lon="5.76129">
        <ele>1247.2</ele>
        <time>2021-10-26T13:31:15Z</time>
      </trkpt>
      <trkpt lat="44.96621" lon="5.76132">
        <ele>1246.4</ele>
        <time>2021-10-26T13:31:18Z</time>
      </trkpt>
      <trkpt lat="44.96622" lon="5.76134">
        <ele>1246.2</ele>
        <time>2021-10-26T13:31:21Z</time>
      </trkpt>
      <trkpt lat="44.96624" lon="5.76136">
        <ele>1245.6</ele>
        <time>2021-10-26T13:31:25Z</time>
      </trkpt>
      <trkpt lat="44.96625" lon="5.76139">
        <ele>1245.1</ele>
        <time>2021-10-26T13:31:29Z</time>
      </trkpt>
      <trkpt lat="44.96626" lon="5.76141">
        <ele>1244.5</ele>
        <time>2021-10-26T13:31:32Z</time>
      </trkpt>
      <trkpt lat="44.96626" lon="5.76144">
        <ele>1243</ele>
        <time>2021-10-26T13:31:36Z</time>
      </trkpt>
      <trkpt lat="44.96626" lon="5.76147">
        <ele>1242.1</ele>
        <time>2021-10-26T13:31:41Z</time>
      </trkpt>
      <trkpt lat="44.96626" lon="5.7615">
        <ele>1241.1</ele>
        <time>2021-10-26T13:31:46Z</time>
      </trkpt>
      <trkpt lat="44.96626" lon="5.76153">
        <ele>1241.1</ele>
        <time>2021-10-26T13:31:49Z</time>
      </trkpt>
      <trkpt lat="44.96627" lon="5.76156">
        <ele>1240.6</ele>
        <time>2021-10-26T13:31:52Z</time>
      </trkpt>
      <trkpt lat="44.96627" lon="5.76159">
        <ele>1239.9</ele>
        <time>2021-10-26T13:31:56Z</time>
      </trkpt>
      <trkpt lat="44.96626" lon="5.76162">
        <ele>1238.9</ele>
        <time>2021-10-26T13:32:00Z</time>
      </trkpt>
      <trkpt lat="44.96625" lon="5.76165">
        <ele>1238.6</ele>
        <time>2021-10-26T13:32:04Z</time>
      </trkpt>
      <trkpt lat="44.96624" lon="5.76168">
        <ele>1238.5</ele>
        <time>2021-10-26T13:32:07Z</time>
      </trkpt>
      <trkpt lat="44.96623" lon="5.76171">
        <ele>1237.2</ele>
        <time>2021-10-26T13:32:11Z</time>
      </trkpt>
      <trkpt lat="44.96623" lon="5.76173">
        <ele>1236.5</ele>
        <time>2021-10-26T13:32:14Z</time>
      </trkpt>
      <trkpt lat="44.96621" lon="5.76175">
        <ele>1236</ele>
        <time>2021-10-26T13:32:19Z</time>
      </trkpt>
      <trkpt lat="44.9662" lon="5.76177">
        <ele>1235</ele>
        <time>2021-10-26T13:32:23Z</time>
      </trkpt>
      <trkpt lat="44.96618" lon="5.7618">
        <ele>1233.6</ele>
        <time>2021-10-26T13:32:28Z</time>
      </trkpt>
      <trkpt lat="44.96616" lon="5.76181">
        <ele>1232.9</ele>
        <time>2021-10-26T13:32:32Z</time>
      </trkpt>
      <trkpt lat="44.96614" lon="5.76183">
        <ele>1232.5</ele>
        <time>2021-10-26T13:32:35Z</time>
      </trkpt>
      <trkpt lat="44.96612" lon="5.76184">
        <ele>1231.6</ele>
        <time>2021-10-26T13:32:38Z</time>
      </trkpt>
      <trkpt lat="44.9661" lon="5.76185">
        <ele>1230.9</ele>
        <time>2021-10-26T13:32:43Z</time>
      </trkpt>
      <trkpt lat="44.96608" lon="5.76186">
        <ele>1230.5</ele>
        <time>2021-10-26T13:32:46Z</time>
      </trkpt>
      <trkpt lat="44.96606" lon="5.76189">
        <ele>1228.7</ele>
        <time>2021-10-26T13:32:49Z</time>
      </trkpt>
      <trkpt lat="44.96604" lon="5.7619">
        <ele>1229.4</ele>
        <time>2021-10-26T13:32:51Z</time>
      </trkpt>
      <trkpt lat="44.96602" lon="5.76193">
        <ele>1229.4</ele>
        <time>2021-10-26T13:32:54Z</time>
      </trkpt>
      <trkpt lat="44.96601" lon="5.76194">
        <ele>1229</ele>
        <time>2021-10-26T13:32:59Z</time>
      </trkpt>
      <trkpt lat="44.96599" lon="5.76195">
        <ele>1228.6</ele>
        <time>2021-10-26T13:33:03Z</time>
      </trkpt>
      <trkpt lat="44.96597" lon="5.76196">
        <ele>1227.5</ele>
        <time>2021-10-26T13:33:07Z</time>
      </trkpt>
      <trkpt lat="44.96595" lon="5.76197">
        <ele>1226.9</ele>
        <time>2021-10-26T13:33:10Z</time>
      </trkpt>
      <trkpt lat="44.96593" lon="5.76197">
        <ele>1225.7</ele>
        <time>2021-10-26T13:33:14Z</time>
      </trkpt>
      <trkpt lat="44.9659" lon="5.76198">
        <ele>1226.1</ele>
        <time>2021-10-26T13:33:18Z</time>
      </trkpt>
      <trkpt lat="44.96588" lon="5.76197">
        <ele>1225.4</ele>
        <time>2021-10-26T13:33:22Z</time>
      </trkpt>
      <trkpt lat="44.96586" lon="5.76199">
        <ele>1225.2</ele>
        <time>2021-10-26T13:33:25Z</time>
      </trkpt>
      <trkpt lat="44.96584" lon="5.762">
        <ele>1224.2</ele>
        <time>2021-10-26T13:33:29Z</time>
      </trkpt>
      <trkpt lat="44.96583" lon="5.76202">
        <ele>1222.7</ele>
        <time>2021-10-26T13:33:32Z</time>
      </trkpt>
      <trkpt lat="44.96581" lon="5.76203">
        <ele>1222.8</ele>
        <time>2021-10-26T13:33:37Z</time>
      </trkpt>
      <trkpt lat="44.9658" lon="5.76205">
        <ele>1221.9</ele>
        <time>2021-10-26T13:33:42Z</time>
      </trkpt>
      <trkpt lat="44.96578" lon="5.76207">
        <ele>1221.3</ele>
        <time>2021-10-26T13:33:45Z</time>
      </trkpt>
      <trkpt lat="44.96577" lon="5.76209">
        <ele>1221.1</ele>
        <time>2021-10-26T13:33:49Z</time>
      </trkpt>
      <trkpt lat="44.96574" lon="5.7621">
        <ele>1220.5</ele>
        <time>2021-10-26T13:33:52Z</time>
      </trkpt>
      <trkpt lat="44.96572" lon="5.76209">
        <ele>1220.5</ele>
        <time>2021-10-26T13:33:55Z</time>
      </trkpt>
      <trkpt lat="44.9657" lon="5.76209">
        <ele>1220.2</ele>
        <time>2021-10-26T13:33:58Z</time>
      </trkpt>
      <trkpt lat="44.96569" lon="5.76207">
        <ele>1219.9</ele>
        <time>2021-10-26T13:34:05Z</time>
      </trkpt>
      <trkpt lat="44.96567" lon="5.76206">
        <ele>1219</ele>
        <time>2021-10-26T13:34:14Z</time>
      </trkpt>
      <trkpt lat="44.96568" lon="5.76209">
        <ele>1219.4</ele>
        <time>2021-10-26T13:34:37Z</time>
      </trkpt>
      <trkpt lat="44.96567" lon="5.76212">
        <ele>1217.5</ele>
        <time>2021-10-26T13:35:23Z</time>
      </trkpt>
      <trkpt lat="44.96566" lon="5.76214">
        <ele>1217.6</ele>
        <time>2021-10-26T13:35:26Z</time>
      </trkpt>
      <trkpt lat="44.96566" lon="5.76217">
        <ele>1217.3</ele>
        <time>2021-10-26T13:35:29Z</time>
      </trkpt>
      <trkpt lat="44.96565" lon="5.76221">
        <ele>1217.1</ele>
        <time>2021-10-26T13:35:32Z</time>
      </trkpt>
      <trkpt lat="44.96565" lon="5.76224">
        <ele>1216.9</ele>
        <time>2021-10-26T13:35:35Z</time>
      </trkpt>
      <trkpt lat="44.96564" lon="5.76227">
        <ele>1216.1</ele>
        <time>2021-10-26T13:35:38Z</time>
      </trkpt>
      <trkpt lat="44.96563" lon="5.7623">
        <ele>1215.6</ele>
        <time>2021-10-26T13:35:41Z</time>
      </trkpt>
      <trkpt lat="44.96562" lon="5.76233">
        <ele>1214.9</ele>
        <time>2021-10-26T13:35:45Z</time>
      </trkpt>
      <trkpt lat="44.96561" lon="5.76237">
        <ele>1214.6</ele>
        <time>2021-10-26T13:35:48Z</time>
      </trkpt>
      <trkpt lat="44.96561" lon="5.7624">
        <ele>1214</ele>
        <time>2021-10-26T13:35:51Z</time>
      </trkpt>
      <trkpt lat="44.9656" lon="5.76243">
        <ele>1213.7</ele>
        <time>2021-10-26T13:35:54Z</time>
      </trkpt>
      <trkpt lat="44.9656" lon="5.76246">
        <ele>1212.9</ele>
        <time>2021-10-26T13:35:57Z</time>
      </trkpt>
      <trkpt lat="44.96559" lon="5.76249">
        <ele>1212.2</ele>
        <time>2021-10-26T13:36:00Z</time>
      </trkpt>
      <trkpt lat="44.96558" lon="5.76252">
        <ele>1211.9</ele>
        <time>2021-10-26T13:36:02Z</time>
      </trkpt>
      <trkpt lat="44.96557" lon="5.76255">
        <ele>1211.3</ele>
        <time>2021-10-26T13:36:05Z</time>
      </trkpt>
      <trkpt lat="44.96556" lon="5.76258">
        <ele>1210.7</ele>
        <time>2021-10-26T13:36:07Z</time>
      </trkpt>
      <trkpt lat="44.96555" lon="5.7626">
        <ele>1210.7</ele>
        <time>2021-10-26T13:36:09Z</time>
      </trkpt>
      <trkpt lat="44.96554" lon="5.76262">
        <ele>1210.2</ele>
        <time>2021-10-26T13:36:11Z</time>
      </trkpt>
      <trkpt lat="44.96552" lon="5.76265">
        <ele>1209.6</ele>
        <time>2021-10-26T13:36:14Z</time>
      </trkpt>
      <trkpt lat="44.96551" lon="5.76267">
        <ele>1209.2</ele>
        <time>2021-10-26T13:36:16Z</time>
      </trkpt>
      <trkpt lat="44.96549" lon="5.7627">
        <ele>1207.9</ele>
        <time>2021-10-26T13:36:19Z</time>
      </trkpt>
      <trkpt lat="44.96548" lon="5.76272">
        <ele>1208.6</ele>
        <time>2021-10-26T13:36:21Z</time>
      </trkpt>
      <trkpt lat="44.96546" lon="5.76273">
        <ele>1208.1</ele>
        <time>2021-10-26T13:36:23Z</time>
      </trkpt>
      <trkpt lat="44.96544" lon="5.76275">
        <ele>1208.2</ele>
        <time>2021-10-26T13:36:26Z</time>
      </trkpt>
      <trkpt lat="44.96542" lon="5.76277">
        <ele>1208</ele>
        <time>2021-10-26T13:36:29Z</time>
      </trkpt>
      <trkpt lat="44.9654" lon="5.76279">
        <ele>1207.5</ele>
        <time>2021-10-26T13:36:32Z</time>
      </trkpt>
      <trkpt lat="44.96538" lon="5.7628">
        <ele>1206.8</ele>
        <time>2021-10-26T13:36:35Z</time>
      </trkpt>
      <trkpt lat="44.96536" lon="5.76282">
        <ele>1206.2</ele>
        <time>2021-10-26T13:36:38Z</time>
      </trkpt>
      <trkpt lat="44.96534" lon="5.76284">
        <ele>1205.9</ele>
        <time>2021-10-26T13:36:41Z</time>
      </trkpt>
      <trkpt lat="44.96532" lon="5.76285">
        <ele>1205.8</ele>
        <time>2021-10-26T13:36:44Z</time>
      </trkpt>
      <trkpt lat="44.9653" lon="5.76287">
        <ele>1205.3</ele>
        <time>2021-10-26T13:36:46Z</time>
      </trkpt>
      <trkpt lat="44.96528" lon="5.76289">
        <ele>1204</ele>
        <time>2021-10-26T13:36:49Z</time>
      </trkpt>
      <trkpt lat="44.96526" lon="5.76291">
        <ele>1203.4</ele>
        <time>2021-10-26T13:36:52Z</time>
      </trkpt>
      <trkpt lat="44.96525" lon="5.76293">
        <ele>1202.6</ele>
        <time>2021-10-26T13:36:55Z</time>
      </trkpt>
      <trkpt lat="44.96523" lon="5.76295">
        <ele>1202.8</ele>
        <time>2021-10-26T13:36:58Z</time>
      </trkpt>
      <trkpt lat="44.96522" lon="5.76297">
        <ele>1202.4</ele>
        <time>2021-10-26T13:37:01Z</time>
      </trkpt>
      <trkpt lat="44.9652" lon="5.76299">
        <ele>1202.1</ele>
        <time>2021-10-26T13:37:04Z</time>
      </trkpt>
      <trkpt lat="44.96519" lon="5.76301">
        <ele>1201.5</ele>
        <time>2021-10-26T13:37:07Z</time>
      </trkpt>
      <trkpt lat="44.96517" lon="5.76304">
        <ele>1200.8</ele>
        <time>2021-10-26T13:37:10Z</time>
      </trkpt>
      <trkpt lat="44.96515" lon="5.76306">
        <ele>1200.9</ele>
        <time>2021-10-26T13:37:13Z</time>
      </trkpt>
      <trkpt lat="44.96514" lon="5.76308">
        <ele>1200.1</ele>
        <time>2021-10-26T13:37:16Z</time>
      </trkpt>
      <trkpt lat="44.96512" lon="5.76311">
        <ele>1199.9</ele>
        <time>2021-10-26T13:37:19Z</time>
      </trkpt>
      <trkpt lat="44.96511" lon="5.76313">
        <ele>1199.7</ele>
        <time>2021-10-26T13:37:22Z</time>
      </trkpt>
      <trkpt lat="44.9651" lon="5.76315">
        <ele>1199.3</ele>
        <time>2021-10-26T13:37:25Z</time>
      </trkpt>
      <trkpt lat="44.96508" lon="5.76318">
        <ele>1198.9</ele>
        <time>2021-10-26T13:37:28Z</time>
      </trkpt>
      <trkpt lat="44.96506" lon="5.7632">
        <ele>1198.4</ele>
        <time>2021-10-26T13:37:31Z</time>
      </trkpt>
      <trkpt lat="44.96504" lon="5.76322">
        <ele>1198</ele>
        <time>2021-10-26T13:37:34Z</time>
      </trkpt>
      <trkpt lat="44.96503" lon="5.76324">
        <ele>1197.3</ele>
        <time>2021-10-26T13:37:37Z</time>
      </trkpt>
      <trkpt lat="44.96501" lon="5.76325">
        <ele>1197.4</ele>
        <time>2021-10-26T13:37:40Z</time>
      </trkpt>
      <trkpt lat="44.96499" lon="5.76327">
        <ele>1196.2</ele>
        <time>2021-10-26T13:37:44Z</time>
      </trkpt>
      <trkpt lat="44.96497" lon="5.76329">
        <ele>1195.6</ele>
        <time>2021-10-26T13:37:47Z</time>
      </trkpt>
      <trkpt lat="44.96495" lon="5.76331">
        <ele>1194.7</ele>
        <time>2021-10-26T13:37:50Z</time>
      </trkpt>
      <trkpt lat="44.96494" lon="5.76332">
        <ele>1195.2</ele>
        <time>2021-10-26T13:37:53Z</time>
      </trkpt>
      <trkpt lat="44.96491" lon="5.76333">
        <ele>1194.8</ele>
        <time>2021-10-26T13:37:56Z</time>
      </trkpt>
      <trkpt lat="44.9649" lon="5.76334">
        <ele>1194.8</ele>
        <time>2021-10-26T13:37:58Z</time>
      </trkpt>
      <trkpt lat="44.96488" lon="5.76335">
        <ele>1194.6</ele>
        <time>2021-10-26T13:38:00Z</time>
      </trkpt>
      <trkpt lat="44.96486" lon="5.76336">
        <ele>1194.2</ele>
        <time>2021-10-26T13:38:03Z</time>
      </trkpt>
      <trkpt lat="44.96484" lon="5.76338">
        <ele>1193.5</ele>
        <time>2021-10-26T13:38:06Z</time>
      </trkpt>
      <trkpt lat="44.96482" lon="5.7634">
        <ele>1193</ele>
        <time>2021-10-26T13:38:09Z</time>
      </trkpt>
      <trkpt lat="44.9648" lon="5.76341">
        <ele>1192.8</ele>
        <time>2021-10-26T13:38:12Z</time>
      </trkpt>
      <trkpt lat="44.96478" lon="5.76342">
        <ele>1192.4</ele>
        <time>2021-10-26T13:38:14Z</time>
      </trkpt>
      <trkpt lat="44.96476" lon="5.76344">
        <ele>1192.1</ele>
        <time>2021-10-26T13:38:16Z</time>
      </trkpt>
      <trkpt lat="44.96474" lon="5.76345">
        <ele>1192</ele>
        <time>2021-10-26T13:38:19Z</time>
      </trkpt>
      <trkpt lat="44.96472" lon="5.76347">
        <ele>1191.9</ele>
        <time>2021-10-26T13:38:22Z</time>
      </trkpt>
      <trkpt lat="44.9647" lon="5.76349">
        <ele>1191.5</ele>
        <time>2021-10-26T13:38:25Z</time>
      </trkpt>
      <trkpt lat="44.96467" lon="5.7635">
        <ele>1191.3</ele>
        <time>2021-10-26T13:38:27Z</time>
      </trkpt>
      <trkpt lat="44.96465" lon="5.76351">
        <ele>1191</ele>
        <time>2021-10-26T13:38:29Z</time>
      </trkpt>
      <trkpt lat="44.96463" lon="5.76352">
        <ele>1191</ele>
        <time>2021-10-26T13:38:31Z</time>
      </trkpt>
      <trkpt lat="44.96461" lon="5.76353">
        <ele>1191</ele>
        <time>2021-10-26T13:38:33Z</time>
      </trkpt>
      <trkpt lat="44.96458" lon="5.76354">
        <ele>1191</ele>
        <time>2021-10-26T13:38:35Z</time>
      </trkpt>
      <trkpt lat="44.96456" lon="5.76355">
        <ele>1191</ele>
        <time>2021-10-26T13:38:37Z</time>
      </trkpt>
      <trkpt lat="44.96454" lon="5.76356">
        <ele>1191</ele>
        <time>2021-10-26T13:38:39Z</time>
      </trkpt>
      <trkpt lat="44.96452" lon="5.76358">
        <ele>1190.9</ele>
        <time>2021-10-26T13:38:41Z</time>
      </trkpt>
      <trkpt lat="44.9645" lon="5.76359">
        <ele>1190.8</ele>
        <time>2021-10-26T13:38:43Z</time>
      </trkpt>
      <trkpt lat="44.96448" lon="5.7636">
        <ele>1190.6</ele>
        <time>2021-10-26T13:38:45Z</time>
      </trkpt>
      <trkpt lat="44.96445" lon="5.76361">
        <ele>1189.6</ele>
        <time>2021-10-26T13:38:48Z</time>
      </trkpt>
      <trkpt lat="44.96443" lon="5.76363">
        <ele>1190</ele>
        <time>2021-10-26T13:38:51Z</time>
      </trkpt>
      <trkpt lat="44.96441" lon="5.76364">
        <ele>1189.4</ele>
        <time>2021-10-26T13:38:54Z</time>
      </trkpt>
      <trkpt lat="44.96438" lon="5.76366">
        <ele>1189.5</ele>
        <time>2021-10-26T13:38:56Z</time>
      </trkpt>
      <trkpt lat="44.96437" lon="5.76366">
        <ele>1189.1</ele>
        <time>2021-10-26T13:38:58Z</time>
      </trkpt>
      <trkpt lat="44.96435" lon="5.76368">
        <ele>1188.9</ele>
        <time>2021-10-26T13:39:01Z</time>
      </trkpt>
      <trkpt lat="44.96433" lon="5.76369">
        <ele>1188.5</ele>
        <time>2021-10-26T13:39:04Z</time>
      </trkpt>
      <trkpt lat="44.96431" lon="5.7637">
        <ele>1188.3</ele>
        <time>2021-10-26T13:39:07Z</time>
      </trkpt>
      <trkpt lat="44.96429" lon="5.76371">
        <ele>1187.8</ele>
        <time>2021-10-26T13:39:09Z</time>
      </trkpt>
      <trkpt lat="44.96427" lon="5.76373">
        <ele>1188</ele>
        <time>2021-10-26T13:39:11Z</time>
      </trkpt>
      <trkpt lat="44.96426" lon="5.76374">
        <ele>1187.6</ele>
        <time>2021-10-26T13:39:13Z</time>
      </trkpt>
      <trkpt lat="44.96424" lon="5.76375">
        <ele>1187.5</ele>
        <time>2021-10-26T13:39:16Z</time>
      </trkpt>
      <trkpt lat="44.96422" lon="5.76378">
        <ele>1187.3</ele>
        <time>2021-10-26T13:39:19Z</time>
      </trkpt>
      <trkpt lat="44.9642" lon="5.7638">
        <ele>1186.8</ele>
        <time>2021-10-26T13:39:22Z</time>
      </trkpt>
      <trkpt lat="44.96418" lon="5.76382">
        <ele>1186</ele>
        <time>2021-10-26T13:39:25Z</time>
      </trkpt>
      <trkpt lat="44.96417" lon="5.76383">
        <ele>1185.4</ele>
        <time>2021-10-26T13:39:28Z</time>
      </trkpt>
      <trkpt lat="44.96415" lon="5.76385">
        <ele>1184.6</ele>
        <time>2021-10-26T13:39:31Z</time>
      </trkpt>
      <trkpt lat="44.96413" lon="5.76387">
        <ele>1184.9</ele>
        <time>2021-10-26T13:39:34Z</time>
      </trkpt>
      <trkpt lat="44.96411" lon="5.76388">
        <ele>1184.5</ele>
        <time>2021-10-26T13:39:37Z</time>
      </trkpt>
      <trkpt lat="44.96409" lon="5.7639">
        <ele>1183.9</ele>
        <time>2021-10-26T13:39:40Z</time>
      </trkpt>
      <trkpt lat="44.96406" lon="5.7639">
        <ele>1183.4</ele>
        <time>2021-10-26T13:39:43Z</time>
      </trkpt>
      <trkpt lat="44.96404" lon="5.76391">
        <ele>1183.1</ele>
        <time>2021-10-26T13:39:45Z</time>
      </trkpt>
      <trkpt lat="44.96402" lon="5.76393">
        <ele>1182.2</ele>
        <time>2021-10-26T13:39:50Z</time>
      </trkpt>
      <trkpt lat="44.96401" lon="5.76395">
        <ele>1182.1</ele>
        <time>2021-10-26T13:39:53Z</time>
      </trkpt>
      <trkpt lat="44.96399" lon="5.76397">
        <ele>1182</ele>
        <time>2021-10-26T13:39:56Z</time>
      </trkpt>
      <trkpt lat="44.96398" lon="5.76399">
        <ele>1182</ele>
        <time>2021-10-26T13:39:59Z</time>
      </trkpt>
      <trkpt lat="44.96396" lon="5.76402">
        <ele>1181</ele>
        <time>2021-10-26T13:40:02Z</time>
      </trkpt>
      <trkpt lat="44.96394" lon="5.76403">
        <ele>1180.8</ele>
        <time>2021-10-26T13:40:05Z</time>
      </trkpt>
      <trkpt lat="44.96392" lon="5.76404">
        <ele>1180.3</ele>
        <time>2021-10-26T13:40:08Z</time>
      </trkpt>
      <trkpt lat="44.9639" lon="5.76405">
        <ele>1180.2</ele>
        <time>2021-10-26T13:40:11Z</time>
      </trkpt>
      <trkpt lat="44.96387" lon="5.76407">
        <ele>1179.9</ele>
        <time>2021-10-26T13:40:14Z</time>
      </trkpt>
      <trkpt lat="44.96386" lon="5.76408">
        <ele>1179.5</ele>
        <time>2021-10-26T13:40:16Z</time>
      </trkpt>
      <trkpt lat="44.96384" lon="5.7641">
        <ele>1179.2</ele>
        <time>2021-10-26T13:40:19Z</time>
      </trkpt>
      <trkpt lat="44.96382" lon="5.76411">
        <ele>1178.9</ele>
        <time>2021-10-26T13:40:21Z</time>
      </trkpt>
      <trkpt lat="44.96381" lon="5.76412">
        <ele>1179</ele>
        <time>2021-10-26T13:40:24Z</time>
      </trkpt>
      <trkpt lat="44.96379" lon="5.76414">
        <ele>1178.7</ele>
        <time>2021-10-26T13:40:26Z</time>
      </trkpt>
      <trkpt lat="44.96377" lon="5.76416">
        <ele>1178.6</ele>
        <time>2021-10-26T13:40:29Z</time>
      </trkpt>
      <trkpt lat="44.96375" lon="5.76416">
        <ele>1178.6</ele>
        <time>2021-10-26T13:40:31Z</time>
      </trkpt>
      <trkpt lat="44.96373" lon="5.76418">
        <ele>1178.3</ele>
        <time>2021-10-26T13:40:34Z</time>
      </trkpt>
      <trkpt lat="44.96371" lon="5.76419">
        <ele>1177.8</ele>
        <time>2021-10-26T13:40:37Z</time>
      </trkpt>
      <trkpt lat="44.96368" lon="5.76421">
        <ele>1177.1</ele>
        <time>2021-10-26T13:40:40Z</time>
      </trkpt>
      <trkpt lat="44.96366" lon="5.76423">
        <ele>1176.5</ele>
        <time>2021-10-26T13:40:43Z</time>
      </trkpt>
      <trkpt lat="44.96365" lon="5.76424">
        <ele>1176.1</ele>
        <time>2021-10-26T13:40:46Z</time>
      </trkpt>
      <trkpt lat="44.96363" lon="5.76425">
        <ele>1175.7</ele>
        <time>2021-10-26T13:40:48Z</time>
      </trkpt>
      <trkpt lat="44.96361" lon="5.76427">
        <ele>1175.4</ele>
        <time>2021-10-26T13:40:52Z</time>
      </trkpt>
      <trkpt lat="44.96358" lon="5.76428">
        <ele>1174.9</ele>
        <time>2021-10-26T13:40:55Z</time>
      </trkpt>
      <trkpt lat="44.96357" lon="5.76431">
        <ele>1174.6</ele>
        <time>2021-10-26T13:40:59Z</time>
      </trkpt>
      <trkpt lat="44.96355" lon="5.76433">
        <ele>1174.4</ele>
        <time>2021-10-26T13:41:03Z</time>
      </trkpt>
      <trkpt lat="44.96352" lon="5.76434">
        <ele>1173.9</ele>
        <time>2021-10-26T13:41:06Z</time>
      </trkpt>
      <trkpt lat="44.9635" lon="5.76436">
        <ele>1173.2</ele>
        <time>2021-10-26T13:41:09Z</time>
      </trkpt>
      <trkpt lat="44.96349" lon="5.76437">
        <ele>1173</ele>
        <time>2021-10-26T13:41:11Z</time>
      </trkpt>
      <trkpt lat="44.96347" lon="5.76439">
        <ele>1172.9</ele>
        <time>2021-10-26T13:41:14Z</time>
      </trkpt>
      <trkpt lat="44.96345" lon="5.7644">
        <ele>1172.3</ele>
        <time>2021-10-26T13:41:17Z</time>
      </trkpt>
      <trkpt lat="44.96344" lon="5.76442">
        <ele>1172.2</ele>
        <time>2021-10-26T13:41:20Z</time>
      </trkpt>
      <trkpt lat="44.96342" lon="5.76443">
        <ele>1171.8</ele>
        <time>2021-10-26T13:41:23Z</time>
      </trkpt>
      <trkpt lat="44.96339" lon="5.76444">
        <ele>1171.3</ele>
        <time>2021-10-26T13:41:26Z</time>
      </trkpt>
      <trkpt lat="44.96337" lon="5.76444">
        <ele>1171</ele>
        <time>2021-10-26T13:41:29Z</time>
      </trkpt>
      <trkpt lat="44.96334" lon="5.76444">
        <ele>1170.2</ele>
        <time>2021-10-26T13:41:31Z</time>
      </trkpt>
      <trkpt lat="44.96332" lon="5.76444">
        <ele>1170.1</ele>
        <time>2021-10-26T13:41:33Z</time>
      </trkpt>
      <trkpt lat="44.9633" lon="5.76445">
        <ele>1169.7</ele>
        <time>2021-10-26T13:41:36Z</time>
      </trkpt>
      <trkpt lat="44.96327" lon="5.76445">
        <ele>1169.1</ele>
        <time>2021-10-26T13:41:39Z</time>
      </trkpt>
      <trkpt lat="44.96326" lon="5.76447">
        <ele>1169</ele>
        <time>2021-10-26T13:41:42Z</time>
      </trkpt>
      <trkpt lat="44.96324" lon="5.76447">
        <ele>1169.1</ele>
        <time>2021-10-26T13:41:44Z</time>
      </trkpt>
      <trkpt lat="44.96321" lon="5.76448">
        <ele>1168.2</ele>
        <time>2021-10-26T13:41:47Z</time>
      </trkpt>
      <trkpt lat="44.96319" lon="5.76448">
        <ele>1168.4</ele>
        <time>2021-10-26T13:41:50Z</time>
      </trkpt>
      <trkpt lat="44.96317" lon="5.7645">
        <ele>1168</ele>
        <time>2021-10-26T13:41:53Z</time>
      </trkpt>
      <trkpt lat="44.96315" lon="5.76451">
        <ele>1167.6</ele>
        <time>2021-10-26T13:41:57Z</time>
      </trkpt>
      <trkpt lat="44.96313" lon="5.76452">
        <ele>1167</ele>
        <time>2021-10-26T13:42:01Z</time>
      </trkpt>
      <trkpt lat="44.96311" lon="5.76453">
        <ele>1166.4</ele>
        <time>2021-10-26T13:42:03Z</time>
      </trkpt>
      <trkpt lat="44.96309" lon="5.76454">
        <ele>1165.2</ele>
        <time>2021-10-26T13:42:06Z</time>
      </trkpt>
      <trkpt lat="44.96307" lon="5.76455">
        <ele>1165.4</ele>
        <time>2021-10-26T13:42:09Z</time>
      </trkpt>
      <trkpt lat="44.96306" lon="5.76456">
        <ele>1165.3</ele>
        <time>2021-10-26T13:42:12Z</time>
      </trkpt>
      <trkpt lat="44.96304" lon="5.76457">
        <ele>1165.1</ele>
        <time>2021-10-26T13:42:14Z</time>
      </trkpt>
      <trkpt lat="44.96301" lon="5.76458">
        <ele>1164.9</ele>
        <time>2021-10-26T13:42:17Z</time>
      </trkpt>
      <trkpt lat="44.96299" lon="5.76458">
        <ele>1164.9</ele>
        <time>2021-10-26T13:42:19Z</time>
      </trkpt>
      <trkpt lat="44.96296" lon="5.7646">
        <ele>1164.9</ele>
        <time>2021-10-26T13:42:22Z</time>
      </trkpt>
      <trkpt lat="44.96294" lon="5.7646">
        <ele>1164.5</ele>
        <time>2021-10-26T13:42:24Z</time>
      </trkpt>
      <trkpt lat="44.96291" lon="5.7646">
        <ele>1164.5</ele>
        <time>2021-10-26T13:42:27Z</time>
      </trkpt>
      <trkpt lat="44.96289" lon="5.7646">
        <ele>1164.6</ele>
        <time>2021-10-26T13:42:29Z</time>
      </trkpt>
      <trkpt lat="44.96287" lon="5.76461">
        <ele>1164.3</ele>
        <time>2021-10-26T13:42:32Z</time>
      </trkpt>
      <trkpt lat="44.96285" lon="5.76462">
        <ele>1164.4</ele>
        <time>2021-10-26T13:42:35Z</time>
      </trkpt>
      <trkpt lat="44.96282" lon="5.76463">
        <ele>1164.4</ele>
        <time>2021-10-26T13:42:37Z</time>
      </trkpt>
      <trkpt lat="44.9628" lon="5.76463">
        <ele>1164.3</ele>
        <time>2021-10-26T13:42:39Z</time>
      </trkpt>
      <trkpt lat="44.96278" lon="5.76463">
        <ele>1163.9</ele>
        <time>2021-10-26T13:42:42Z</time>
      </trkpt>
      <trkpt lat="44.96276" lon="5.76463">
        <ele>1163.5</ele>
        <time>2021-10-26T13:42:45Z</time>
      </trkpt>
      <trkpt lat="44.96274" lon="5.76464">
        <ele>1163</ele>
        <time>2021-10-26T13:42:49Z</time>
      </trkpt>
      <trkpt lat="44.96272" lon="5.76464">
        <ele>1162.6</ele>
        <time>2021-10-26T13:42:54Z</time>
      </trkpt>
      <trkpt lat="44.9627" lon="5.76465">
        <ele>1162.7</ele>
        <time>2021-10-26T13:43:01Z</time>
      </trkpt>
      <trkpt lat="44.96268" lon="5.76465">
        <ele>1162.9</ele>
        <time>2021-10-26T13:43:06Z</time>
      </trkpt>
      <trkpt lat="44.9627" lon="5.76467">
        <ele>1162.6</ele>
        <time>2021-10-26T13:43:19Z</time>
      </trkpt>
      <trkpt lat="44.9627" lon="5.7647">
        <ele>1161.8</ele>
        <time>2021-10-26T13:43:25Z</time>
      </trkpt>
      <trkpt lat="44.96269" lon="5.76473">
        <ele>1161.8</ele>
        <time>2021-10-26T13:43:29Z</time>
      </trkpt>
      <trkpt lat="44.96268" lon="5.76475">
        <ele>1161.5</ele>
        <time>2021-10-26T13:43:32Z</time>
      </trkpt>
      <trkpt lat="44.96266" lon="5.76478">
        <ele>1160.9</ele>
        <time>2021-10-26T13:43:36Z</time>
      </trkpt>
      <trkpt lat="44.96264" lon="5.7648">
        <ele>1160.1</ele>
        <time>2021-10-26T13:43:40Z</time>
      </trkpt>
      <trkpt lat="44.96263" lon="5.76482">
        <ele>1159.6</ele>
        <time>2021-10-26T13:43:44Z</time>
      </trkpt>
      <trkpt lat="44.96263" lon="5.76485">
        <ele>1160.1</ele>
        <time>2021-10-26T13:43:48Z</time>
      </trkpt>
      <trkpt lat="44.96262" lon="5.76487">
        <ele>1159.3</ele>
        <time>2021-10-26T13:43:51Z</time>
      </trkpt>
      <trkpt lat="44.9626" lon="5.76489">
        <ele>1159.4</ele>
        <time>2021-10-26T13:43:56Z</time>
      </trkpt>
      <trkpt lat="44.96258" lon="5.76489">
        <ele>1160.3</ele>
        <time>2021-10-26T13:43:58Z</time>
      </trkpt>
      <trkpt lat="44.96256" lon="5.76491">
        <ele>1159.9</ele>
        <time>2021-10-26T13:44:03Z</time>
      </trkpt>
      <trkpt lat="44.96255" lon="5.76494">
        <ele>1159.9</ele>
        <time>2021-10-26T13:44:06Z</time>
      </trkpt>
      <trkpt lat="44.96255" lon="5.76497">
        <ele>1160</ele>
        <time>2021-10-26T13:44:09Z</time>
      </trkpt>
      <trkpt lat="44.96254" lon="5.76499">
        <ele>1158.9</ele>
        <time>2021-10-26T13:44:13Z</time>
      </trkpt>
      <trkpt lat="44.96252" lon="5.76501">
        <ele>1157.4</ele>
        <time>2021-10-26T13:44:15Z</time>
      </trkpt>
      <trkpt lat="44.9625" lon="5.76503">
        <ele>1158.4</ele>
        <time>2021-10-26T13:44:16Z</time>
      </trkpt>
      <trkpt lat="44.9625" lon="5.76499">
        <ele>1158.8</ele>
        <time>2021-10-26T13:44:20Z</time>
      </trkpt>
      <trkpt lat="44.96248" lon="5.76497">
        <ele>1159.6</ele>
        <time>2021-10-26T13:44:25Z</time>
      </trkpt>
      <trkpt lat="44.96247" lon="5.76499">
        <ele>1160.7</ele>
        <time>2021-10-26T13:44:30Z</time>
      </trkpt>
      <trkpt lat="44.96247" lon="5.76501">
        <ele>1160</ele>
        <time>2021-10-26T13:44:46Z</time>
      </trkpt>
      <trkpt lat="44.96248" lon="5.76499">
        <ele>1160.3</ele>
        <time>2021-10-26T13:45:04Z</time>
      </trkpt>
      <trkpt lat="44.96249" lon="5.76497">
        <ele>1160</ele>
        <time>2021-10-26T13:45:07Z</time>
      </trkpt>
      <trkpt lat="44.96247" lon="5.76497">
        <ele>1159.2</ele>
        <time>2021-10-26T13:45:20Z</time>
      </trkpt>
      <trkpt lat="44.96247" lon="5.765">
        <ele>1159.2</ele>
        <time>2021-10-26T13:45:26Z</time>
      </trkpt>
      <trkpt lat="44.96246" lon="5.76502">
        <ele>1159.2</ele>
        <time>2021-10-26T13:45:30Z</time>
      </trkpt>
      <trkpt lat="44.96245" lon="5.76504">
        <ele>1159.1</ele>
        <time>2021-10-26T13:45:33Z</time>
      </trkpt>
      <trkpt lat="44.96243" lon="5.76506">
        <ele>1158.4</ele>
        <time>2021-10-26T13:45:38Z</time>
      </trkpt>
      <trkpt lat="44.96242" lon="5.76507">
        <ele>1158.3</ele>
        <time>2021-10-26T13:45:41Z</time>
      </trkpt>
      <trkpt lat="44.9624" lon="5.76508">
        <ele>1158.1</ele>
        <time>2021-10-26T13:45:43Z</time>
      </trkpt>
      <trkpt lat="44.96237" lon="5.76509">
        <ele>1157.8</ele>
        <time>2021-10-26T13:45:46Z</time>
      </trkpt>
      <trkpt lat="44.96235" lon="5.7651">
        <ele>1157.9</ele>
        <time>2021-10-26T13:45:49Z</time>
      </trkpt>
      <trkpt lat="44.96233" lon="5.76511">
        <ele>1158.1</ele>
        <time>2021-10-26T13:45:53Z</time>
      </trkpt>
      <trkpt lat="44.96231" lon="5.76512">
        <ele>1157.8</ele>
        <time>2021-10-26T13:45:56Z</time>
      </trkpt>
      <trkpt lat="44.96229" lon="5.76513">
        <ele>1157.2</ele>
        <time>2021-10-26T13:45:59Z</time>
      </trkpt>
      <trkpt lat="44.96227" lon="5.76515">
        <ele>1156.8</ele>
        <time>2021-10-26T13:46:06Z</time>
      </trkpt>
      <trkpt lat="44.96225" lon="5.76515">
        <ele>1156.7</ele>
        <time>2021-10-26T13:46:08Z</time>
      </trkpt>
      <trkpt lat="44.96223" lon="5.76516">
        <ele>1156.5</ele>
        <time>2021-10-26T13:46:10Z</time>
      </trkpt>
      <trkpt lat="44.9622" lon="5.76516">
        <ele>1156.3</ele>
        <time>2021-10-26T13:46:12Z</time>
      </trkpt>
      <trkpt lat="44.96217" lon="5.76517">
        <ele>1156.2</ele>
        <time>2021-10-26T13:46:14Z</time>
      </trkpt>
      <trkpt lat="44.96215" lon="5.76517">
        <ele>1155.9</ele>
        <time>2021-10-26T13:46:16Z</time>
      </trkpt>
      <trkpt lat="44.96213" lon="5.76517">
        <ele>1156.1</ele>
        <time>2021-10-26T13:46:18Z</time>
      </trkpt>
      <trkpt lat="44.9621" lon="5.76517">
        <ele>1156.1</ele>
        <time>2021-10-26T13:46:20Z</time>
      </trkpt>
      <trkpt lat="44.96208" lon="5.76517">
        <ele>1156.1</ele>
        <time>2021-10-26T13:46:22Z</time>
      </trkpt>
      <trkpt lat="44.96205" lon="5.76517">
        <ele>1156.3</ele>
        <time>2021-10-26T13:46:25Z</time>
      </trkpt>
      <trkpt lat="44.96202" lon="5.76518">
        <ele>1155.9</ele>
        <time>2021-10-26T13:46:27Z</time>
      </trkpt>
      <trkpt lat="44.962" lon="5.76518">
        <ele>1155.7</ele>
        <time>2021-10-26T13:46:30Z</time>
      </trkpt>
      <trkpt lat="44.96198" lon="5.76519">
        <ele>1155.7</ele>
        <time>2021-10-26T13:46:31Z</time>
      </trkpt>
      <trkpt lat="44.96195" lon="5.7652">
        <ele>1155.8</ele>
        <time>2021-10-26T13:46:33Z</time>
      </trkpt>
      <trkpt lat="44.96192" lon="5.76522">
        <ele>1155.8</ele>
        <time>2021-10-26T13:46:35Z</time>
      </trkpt>
      <trkpt lat="44.96191" lon="5.76519">
        <ele>1154.7</ele>
        <time>2021-10-26T13:46:40Z</time>
      </trkpt>
      <trkpt lat="44.96188" lon="5.76517">
        <ele>1154.7</ele>
        <time>2021-10-26T13:46:42Z</time>
      </trkpt>
      <trkpt lat="44.96185" lon="5.76517">
        <ele>1154.6</ele>
        <time>2021-10-26T13:46:44Z</time>
      </trkpt>
      <trkpt lat="44.96179" lon="5.76518">
        <ele>1153</ele>
        <time>2021-10-26T13:46:46Z</time>
      </trkpt>
      <trkpt lat="44.96164" lon="5.76522">
        <ele>1153.2</ele>
        <time>2021-10-26T13:46:51Z</time>
      </trkpt>
      <trkpt lat="44.96165" lon="5.76524">
        <ele>1153.2</ele>
        <time>2021-10-26T13:46:56Z</time>
      </trkpt>
      <trkpt lat="44.96163" lon="5.76526">
        <ele>1153.3</ele>
        <time>2021-10-26T13:47:01Z</time>
      </trkpt>
      <trkpt lat="44.9616" lon="5.76528">
        <ele>1153.3</ele>
        <time>2021-10-26T13:47:07Z</time>
      </trkpt>
      <trkpt lat="44.96157" lon="5.76528">
        <ele>1153.1</ele>
        <time>2021-10-26T13:47:10Z</time>
      </trkpt>
      <trkpt lat="44.96155" lon="5.7653">
        <ele>1152.3</ele>
        <time>2021-10-26T13:47:14Z</time>
      </trkpt>
      <trkpt lat="44.96153" lon="5.76532">
        <ele>1151.6</ele>
        <time>2021-10-26T13:47:18Z</time>
      </trkpt>
      <trkpt lat="44.96152" lon="5.76534">
        <ele>1151.6</ele>
        <time>2021-10-26T13:47:22Z</time>
      </trkpt>
      <trkpt lat="44.96151" lon="5.76537">
        <ele>1150.9</ele>
        <time>2021-10-26T13:47:26Z</time>
      </trkpt>
      <trkpt lat="44.96149" lon="5.76539">
        <ele>1150.7</ele>
        <time>2021-10-26T13:47:29Z</time>
      </trkpt>
      <trkpt lat="44.96148" lon="5.76541">
        <ele>1150.5</ele>
        <time>2021-10-26T13:47:32Z</time>
      </trkpt>
      <trkpt lat="44.96146" lon="5.76543">
        <ele>1150.1</ele>
        <time>2021-10-26T13:47:35Z</time>
      </trkpt>
      <trkpt lat="44.96144" lon="5.76545">
        <ele>1149.4</ele>
        <time>2021-10-26T13:47:38Z</time>
      </trkpt>
      <trkpt lat="44.96142" lon="5.76547">
        <ele>1149.3</ele>
        <time>2021-10-26T13:47:41Z</time>
      </trkpt>
      <trkpt lat="44.96141" lon="5.76549">
        <ele>1149.4</ele>
        <time>2021-10-26T13:47:43Z</time>
      </trkpt>
      <trkpt lat="44.96139" lon="5.7655">
        <ele>1148.7</ele>
        <time>2021-10-26T13:47:45Z</time>
      </trkpt>
      <trkpt lat="44.96137" lon="5.76552">
        <ele>1148.2</ele>
        <time>2021-10-26T13:47:48Z</time>
      </trkpt>
      <trkpt lat="44.96136" lon="5.76553">
        <ele>1148.7</ele>
        <time>2021-10-26T13:47:50Z</time>
      </trkpt>
      <trkpt lat="44.96134" lon="5.76555">
        <ele>1148.5</ele>
        <time>2021-10-26T13:47:53Z</time>
      </trkpt>
      <trkpt lat="44.96132" lon="5.76557">
        <ele>1148.4</ele>
        <time>2021-10-26T13:47:56Z</time>
      </trkpt>
      <trkpt lat="44.96129" lon="5.76559">
        <ele>1148</ele>
        <time>2021-10-26T13:47:59Z</time>
      </trkpt>
      <trkpt lat="44.96127" lon="5.76561">
        <ele>1147.8</ele>
        <time>2021-10-26T13:48:01Z</time>
      </trkpt>
      <trkpt lat="44.96126" lon="5.76563">
        <ele>1147.1</ele>
        <time>2021-10-26T13:48:04Z</time>
      </trkpt>
      <trkpt lat="44.96124" lon="5.76565">
        <ele>1146.2</ele>
        <time>2021-10-26T13:48:07Z</time>
      </trkpt>
      <trkpt lat="44.96122" lon="5.76567">
        <ele>1145.4</ele>
        <time>2021-10-26T13:48:10Z</time>
      </trkpt>
      <trkpt lat="44.96119" lon="5.76569">
        <ele>1144.4</ele>
        <time>2021-10-26T13:48:13Z</time>
      </trkpt>
      <trkpt lat="44.96118" lon="5.7657">
        <ele>1143.7</ele>
        <time>2021-10-26T13:48:15Z</time>
      </trkpt>
      <trkpt lat="44.96116" lon="5.76572">
        <ele>1143.5</ele>
        <time>2021-10-26T13:48:17Z</time>
      </trkpt>
      <trkpt lat="44.96114" lon="5.76573">
        <ele>1143.1</ele>
        <time>2021-10-26T13:48:19Z</time>
      </trkpt>
      <trkpt lat="44.96112" lon="5.76574">
        <ele>1143.2</ele>
        <time>2021-10-26T13:48:21Z</time>
      </trkpt>
      <trkpt lat="44.9611" lon="5.76575">
        <ele>1143.4</ele>
        <time>2021-10-26T13:48:23Z</time>
      </trkpt>
      <trkpt lat="44.96109" lon="5.76577">
        <ele>1143.7</ele>
        <time>2021-10-26T13:48:26Z</time>
      </trkpt>
      <trkpt lat="44.96107" lon="5.7658">
        <ele>1143.6</ele>
        <time>2021-10-26T13:48:30Z</time>
      </trkpt>
      <trkpt lat="44.96105" lon="5.76581">
        <ele>1143.6</ele>
        <time>2021-10-26T13:48:32Z</time>
      </trkpt>
      <trkpt lat="44.96103" lon="5.76582">
        <ele>1142.9</ele>
        <time>2021-10-26T13:48:34Z</time>
      </trkpt>
      <trkpt lat="44.96101" lon="5.76583">
        <ele>1142.6</ele>
        <time>2021-10-26T13:48:36Z</time>
      </trkpt>
      <trkpt lat="44.96098" lon="5.76584">
        <ele>1142.6</ele>
        <time>2021-10-26T13:48:38Z</time>
      </trkpt>
      <trkpt lat="44.96096" lon="5.76585">
        <ele>1142.6</ele>
        <time>2021-10-26T13:48:40Z</time>
      </trkpt>
      <trkpt lat="44.96094" lon="5.76587">
        <ele>1142.4</ele>
        <time>2021-10-26T13:48:43Z</time>
      </trkpt>
      <trkpt lat="44.96092" lon="5.76588">
        <ele>1142</ele>
        <time>2021-10-26T13:48:46Z</time>
      </trkpt>
      <trkpt lat="44.9609" lon="5.7659">
        <ele>1142</ele>
        <time>2021-10-26T13:48:48Z</time>
      </trkpt>
      <trkpt lat="44.96089" lon="5.76592">
        <ele>1141.2</ele>
        <time>2021-10-26T13:48:51Z</time>
      </trkpt>
      <trkpt lat="44.96086" lon="5.76593">
        <ele>1140.6</ele>
        <time>2021-10-26T13:48:53Z</time>
      </trkpt>
      <trkpt lat="44.96084" lon="5.76594">
        <ele>1140.3</ele>
        <time>2021-10-26T13:48:56Z</time>
      </trkpt>
      <trkpt lat="44.96082" lon="5.76595">
        <ele>1140.2</ele>
        <time>2021-10-26T13:48:58Z</time>
      </trkpt>
      <trkpt lat="44.9608" lon="5.76596">
        <ele>1139.8</ele>
        <time>2021-10-26T13:49:01Z</time>
      </trkpt>
      <trkpt lat="44.96077" lon="5.76598">
        <ele>1139.7</ele>
        <time>2021-10-26T13:49:04Z</time>
      </trkpt>
      <trkpt lat="44.96075" lon="5.76599">
        <ele>1139.6</ele>
        <time>2021-10-26T13:49:06Z</time>
      </trkpt>
      <trkpt lat="44.96073" lon="5.76599">
        <ele>1139.4</ele>
        <time>2021-10-26T13:49:08Z</time>
      </trkpt>
      <trkpt lat="44.96072" lon="5.76601">
        <ele>1139.1</ele>
        <time>2021-10-26T13:49:10Z</time>
      </trkpt>
      <trkpt lat="44.9607" lon="5.76602">
        <ele>1138.9</ele>
        <time>2021-10-26T13:49:12Z</time>
      </trkpt>
      <trkpt lat="44.96068" lon="5.76603">
        <ele>1138.6</ele>
        <time>2021-10-26T13:49:14Z</time>
      </trkpt>
      <trkpt lat="44.96066" lon="5.76604">
        <ele>1138.2</ele>
        <time>2021-10-26T13:49:17Z</time>
      </trkpt>
      <trkpt lat="44.96064" lon="5.76606">
        <ele>1137.4</ele>
        <time>2021-10-26T13:49:20Z</time>
      </trkpt>
      <trkpt lat="44.96062" lon="5.76607">
        <ele>1136.3</ele>
        <time>2021-10-26T13:49:23Z</time>
      </trkpt>
      <trkpt lat="44.96059" lon="5.76609">
        <ele>1136.2</ele>
        <time>2021-10-26T13:49:26Z</time>
      </trkpt>
      <trkpt lat="44.96058" lon="5.7661">
        <ele>1136.2</ele>
        <time>2021-10-26T13:49:28Z</time>
      </trkpt>
      <trkpt lat="44.96056" lon="5.76612">
        <ele>1135.9</ele>
        <time>2021-10-26T13:49:31Z</time>
      </trkpt>
      <trkpt lat="44.96053" lon="5.76613">
        <ele>1134.9</ele>
        <time>2021-10-26T13:49:34Z</time>
      </trkpt>
      <trkpt lat="44.96052" lon="5.76613">
        <ele>1135</ele>
        <time>2021-10-26T13:49:36Z</time>
      </trkpt>
      <trkpt lat="44.9605" lon="5.76614">
        <ele>1134.7</ele>
        <time>2021-10-26T13:49:39Z</time>
      </trkpt>
      <trkpt lat="44.96048" lon="5.76615">
        <ele>1134.6</ele>
        <time>2021-10-26T13:49:41Z</time>
      </trkpt>
      <trkpt lat="44.96046" lon="5.76615">
        <ele>1134.5</ele>
        <time>2021-10-26T13:49:42Z</time>
      </trkpt>
      <trkpt lat="44.96044" lon="5.76616">
        <ele>1133.8</ele>
        <time>2021-10-26T13:49:44Z</time>
      </trkpt>
      <trkpt lat="44.96042" lon="5.76616">
        <ele>1133.9</ele>
        <time>2021-10-26T13:49:47Z</time>
      </trkpt>
      <trkpt lat="44.9604" lon="5.76617">
        <ele>1133.4</ele>
        <time>2021-10-26T13:49:51Z</time>
      </trkpt>
      <trkpt lat="44.96038" lon="5.76619">
        <ele>1133.2</ele>
        <time>2021-10-26T13:49:54Z</time>
      </trkpt>
      <trkpt lat="44.96035" lon="5.7662">
        <ele>1133.1</ele>
        <time>2021-10-26T13:49:58Z</time>
      </trkpt>
      <trkpt lat="44.96033" lon="5.76622">
        <ele>1133</ele>
        <time>2021-10-26T13:50:03Z</time>
      </trkpt>
      <trkpt lat="44.96032" lon="5.76624">
        <ele>1131.9</ele>
        <time>2021-10-26T13:50:07Z</time>
      </trkpt>
      <trkpt lat="44.9603" lon="5.76625">
        <ele>1131.4</ele>
        <time>2021-10-26T13:50:11Z</time>
      </trkpt>
      <trkpt lat="44.96027" lon="5.76626">
        <ele>1130.3</ele>
        <time>2021-10-26T13:50:16Z</time>
      </trkpt>
      <trkpt lat="44.96025" lon="5.76627">
        <ele>1130.6</ele>
        <time>2021-10-26T13:50:19Z</time>
      </trkpt>
      <trkpt lat="44.96024" lon="5.76629">
        <ele>1130.1</ele>
        <time>2021-10-26T13:50:23Z</time>
      </trkpt>
      <trkpt lat="44.9602" lon="5.76629">
        <ele>1128.8</ele>
        <time>2021-10-26T13:50:27Z</time>
      </trkpt>
      <trkpt lat="44.96018" lon="5.76628">
        <ele>1128.7</ele>
        <time>2021-10-26T13:50:31Z</time>
      </trkpt>
      <trkpt lat="44.96018" lon="5.7663">
        <ele>1127.8</ele>
        <time>2021-10-26T13:50:37Z</time>
      </trkpt>
      <trkpt lat="44.96015" lon="5.76631">
        <ele>1125.8</ele>
        <time>2021-10-26T13:50:46Z</time>
      </trkpt>
      <trkpt lat="44.96015" lon="5.76634">
        <ele>1125.8</ele>
        <time>2021-10-26T13:50:51Z</time>
      </trkpt>
      <trkpt lat="44.96016" lon="5.76637">
        <ele>1124.6</ele>
        <time>2021-10-26T13:50:55Z</time>
      </trkpt>
      <trkpt lat="44.96016" lon="5.76639">
        <ele>1123.7</ele>
        <time>2021-10-26T13:50:59Z</time>
      </trkpt>
      <trkpt lat="44.96016" lon="5.76642">
        <ele>1122.5</ele>
        <time>2021-10-26T13:51:03Z</time>
      </trkpt>
      <trkpt lat="44.96015" lon="5.76645">
        <ele>1122.3</ele>
        <time>2021-10-26T13:51:09Z</time>
      </trkpt>
      <trkpt lat="44.96014" lon="5.76647">
        <ele>1120.9</ele>
        <time>2021-10-26T13:51:13Z</time>
      </trkpt>
      <trkpt lat="44.96015" lon="5.76651">
        <ele>1120.8</ele>
        <time>2021-10-26T13:51:17Z</time>
      </trkpt>
      <trkpt lat="44.96014" lon="5.76653">
        <ele>1120.2</ele>
        <time>2021-10-26T13:51:19Z</time>
      </trkpt>
      <trkpt lat="44.96015" lon="5.76655">
        <ele>1118.3</ele>
        <time>2021-10-26T13:51:24Z</time>
      </trkpt>
      <trkpt lat="44.96016" lon="5.76658">
        <ele>1117.7</ele>
        <time>2021-10-26T13:51:26Z</time>
      </trkpt>
      <trkpt lat="44.96016" lon="5.76661">
        <ele>1117.6</ele>
        <time>2021-10-26T13:51:30Z</time>
      </trkpt>
      <trkpt lat="44.96016" lon="5.76664">
        <ele>1117.2</ele>
        <time>2021-10-26T13:51:34Z</time>
      </trkpt>
      <trkpt lat="44.96017" lon="5.76666">
        <ele>1117</ele>
        <time>2021-10-26T13:51:37Z</time>
      </trkpt>
      <trkpt lat="44.96019" lon="5.76669">
        <ele>1116.3</ele>
        <time>2021-10-26T13:51:40Z</time>
      </trkpt>
      <trkpt lat="44.96022" lon="5.76672">
        <ele>1115.5</ele>
        <time>2021-10-26T13:51:42Z</time>
      </trkpt>
      <trkpt lat="44.96023" lon="5.76675">
        <ele>1114.6</ele>
        <time>2021-10-26T13:51:45Z</time>
      </trkpt>
      <trkpt lat="44.96024" lon="5.76679">
        <ele>1113.7</ele>
        <time>2021-10-26T13:51:49Z</time>
      </trkpt>
      <trkpt lat="44.96026" lon="5.7668">
        <ele>1113.8</ele>
        <time>2021-10-26T13:51:50Z</time>
      </trkpt>
      <trkpt lat="44.96028" lon="5.76682">
        <ele>1113.3</ele>
        <time>2021-10-26T13:51:52Z</time>
      </trkpt>
      <trkpt lat="44.9603" lon="5.76684">
        <ele>1113.3</ele>
        <time>2021-10-26T13:51:54Z</time>
      </trkpt>
      <trkpt lat="44.96031" lon="5.76686">
        <ele>1112.6</ele>
        <time>2021-10-26T13:51:58Z</time>
      </trkpt>
      <trkpt lat="44.96032" lon="5.7669">
        <ele>1112</ele>
        <time>2021-10-26T13:52:03Z</time>
      </trkpt>
      <trkpt lat="44.96034" lon="5.76691">
        <ele>1111.6</ele>
        <time>2021-10-26T13:52:05Z</time>
      </trkpt>
      <trkpt lat="44.96035" lon="5.76693">
        <ele>1110.9</ele>
        <time>2021-10-26T13:52:09Z</time>
      </trkpt>
      <trkpt lat="44.96037" lon="5.76695">
        <ele>1110.6</ele>
        <time>2021-10-26T13:52:11Z</time>
      </trkpt>
      <trkpt lat="44.96038" lon="5.76697">
        <ele>1110.1</ele>
        <time>2021-10-26T13:52:13Z</time>
      </trkpt>
      <trkpt lat="44.96041" lon="5.76699">
        <ele>1109.4</ele>
        <time>2021-10-26T13:52:16Z</time>
      </trkpt>
      <trkpt lat="44.96042" lon="5.767">
        <ele>1108.1</ele>
        <time>2021-10-26T13:52:18Z</time>
      </trkpt>
      <trkpt lat="44.96045" lon="5.76701">
        <ele>1108.3</ele>
        <time>2021-10-26T13:52:20Z</time>
      </trkpt>
      <trkpt lat="44.96046" lon="5.76702">
        <ele>1107.7</ele>
        <time>2021-10-26T13:52:22Z</time>
      </trkpt>
      <trkpt lat="44.96048" lon="5.76705">
        <ele>1107.6</ele>
        <time>2021-10-26T13:52:26Z</time>
      </trkpt>
      <trkpt lat="44.96049" lon="5.76707">
        <ele>1106.8</ele>
        <time>2021-10-26T13:52:30Z</time>
      </trkpt>
      <trkpt lat="44.9605" lon="5.7671">
        <ele>1105.8</ele>
        <time>2021-10-26T13:52:33Z</time>
      </trkpt>
      <trkpt lat="44.96052" lon="5.76712">
        <ele>1105.8</ele>
        <time>2021-10-26T13:52:37Z</time>
      </trkpt>
      <trkpt lat="44.96054" lon="5.76714">
        <ele>1105.1</ele>
        <time>2021-10-26T13:52:41Z</time>
      </trkpt>
      <trkpt lat="44.96055" lon="5.76717">
        <ele>1103.9</ele>
        <time>2021-10-26T13:52:44Z</time>
      </trkpt>
      <trkpt lat="44.96057" lon="5.76718">
        <ele>1103.8</ele>
        <time>2021-10-26T13:52:46Z</time>
      </trkpt>
      <trkpt lat="44.96059" lon="5.76721">
        <ele>1103.6</ele>
        <time>2021-10-26T13:52:49Z</time>
      </trkpt>
      <trkpt lat="44.9606" lon="5.76723">
        <ele>1103.1</ele>
        <time>2021-10-26T13:52:51Z</time>
      </trkpt>
      <trkpt lat="44.96061" lon="5.76727">
        <ele>1102.5</ele>
        <time>2021-10-26T13:52:54Z</time>
      </trkpt>
      <trkpt lat="44.96061" lon="5.7673">
        <ele>1101.9</ele>
        <time>2021-10-26T13:52:57Z</time>
      </trkpt>
      <trkpt lat="44.96061" lon="5.76732">
        <ele>1101.6</ele>
        <time>2021-10-26T13:53:00Z</time>
      </trkpt>
      <trkpt lat="44.9606" lon="5.76736">
        <ele>1101</ele>
        <time>2021-10-26T13:53:02Z</time>
      </trkpt>
      <trkpt lat="44.9606" lon="5.7674">
        <ele>1100.4</ele>
        <time>2021-10-26T13:53:04Z</time>
      </trkpt>
      <trkpt lat="44.96061" lon="5.76742">
        <ele>1100.2</ele>
        <time>2021-10-26T13:53:07Z</time>
      </trkpt>
      <trkpt lat="44.96059" lon="5.76746">
        <ele>1099.2</ele>
        <time>2021-10-26T13:53:11Z</time>
      </trkpt>
      <trkpt lat="44.96059" lon="5.76749">
        <ele>1099.2</ele>
        <time>2021-10-26T13:53:14Z</time>
      </trkpt>
      <trkpt lat="44.96059" lon="5.76752">
        <ele>1099.6</ele>
        <time>2021-10-26T13:53:16Z</time>
      </trkpt>
      <trkpt lat="44.96057" lon="5.76754">
        <ele>1099.8</ele>
        <time>2021-10-26T13:53:18Z</time>
      </trkpt>
      <trkpt lat="44.96055" lon="5.76755">
        <ele>1099.9</ele>
        <time>2021-10-26T13:53:21Z</time>
      </trkpt>
      <trkpt lat="44.96053" lon="5.76757">
        <ele>1099.2</ele>
        <time>2021-10-26T13:53:26Z</time>
      </trkpt>
      <trkpt lat="44.96053" lon="5.7676">
        <ele>1097.7</ele>
        <time>2021-10-26T13:53:30Z</time>
      </trkpt>
      <trkpt lat="44.96052" lon="5.76762">
        <ele>1097.5</ele>
        <time>2021-10-26T13:53:34Z</time>
      </trkpt>
      <trkpt lat="44.9605" lon="5.76764">
        <ele>1097.6</ele>
        <time>2021-10-26T13:53:38Z</time>
      </trkpt>
      <trkpt lat="44.96048" lon="5.76765">
        <ele>1097.6</ele>
        <time>2021-10-26T13:53:41Z</time>
      </trkpt>
      <trkpt lat="44.96047" lon="5.76767">
        <ele>1097.3</ele>
        <time>2021-10-26T13:53:45Z</time>
      </trkpt>
      <trkpt lat="44.96045" lon="5.76769">
        <ele>1096.9</ele>
        <time>2021-10-26T13:53:49Z</time>
      </trkpt>
      <trkpt lat="44.96043" lon="5.76769">
        <ele>1096.4</ele>
        <time>2021-10-26T13:53:51Z</time>
      </trkpt>
      <trkpt lat="44.9604" lon="5.76769">
        <ele>1096</ele>
        <time>2021-10-26T13:53:54Z</time>
      </trkpt>
      <trkpt lat="44.96038" lon="5.7677">
        <ele>1095.5</ele>
        <time>2021-10-26T13:53:57Z</time>
      </trkpt>
      <trkpt lat="44.96035" lon="5.7677">
        <ele>1095.7</ele>
        <time>2021-10-26T13:54:00Z</time>
      </trkpt>
      <trkpt lat="44.96034" lon="5.76772">
        <ele>1094.7</ele>
        <time>2021-10-26T13:54:05Z</time>
      </trkpt>
      <trkpt lat="44.96032" lon="5.76772">
        <ele>1094.2</ele>
        <time>2021-10-26T13:54:06Z</time>
      </trkpt>
      <trkpt lat="44.9603" lon="5.76771">
        <ele>1093.4</ele>
        <time>2021-10-26T13:54:08Z</time>
      </trkpt>
      <trkpt lat="44.96028" lon="5.76772">
        <ele>1094.1</ele>
        <time>2021-10-26T13:54:11Z</time>
      </trkpt>
      <trkpt lat="44.96025" lon="5.76773">
        <ele>1094.3</ele>
        <time>2021-10-26T13:54:15Z</time>
      </trkpt>
      <trkpt lat="44.96023" lon="5.76773">
        <ele>1093</ele>
        <time>2021-10-26T13:54:19Z</time>
      </trkpt>
      <trkpt lat="44.96022" lon="5.76774">
        <ele>1092.6</ele>
        <time>2021-10-26T13:54:22Z</time>
      </trkpt>
      <trkpt lat="44.9602" lon="5.76775">
        <ele>1092.4</ele>
        <time>2021-10-26T13:54:25Z</time>
      </trkpt>
      <trkpt lat="44.96018" lon="5.76774">
        <ele>1091.5</ele>
        <time>2021-10-26T13:54:29Z</time>
      </trkpt>
      <trkpt lat="44.96016" lon="5.76774">
        <ele>1091.9</ele>
        <time>2021-10-26T13:54:32Z</time>
      </trkpt>
      <trkpt lat="44.96012" lon="5.76773">
        <ele>1091.7</ele>
        <time>2021-10-26T13:54:35Z</time>
      </trkpt>
      <trkpt lat="44.96011" lon="5.76773">
        <ele>1091.3</ele>
        <time>2021-10-26T13:54:37Z</time>
      </trkpt>
      <trkpt lat="44.96008" lon="5.76773">
        <ele>1091.1</ele>
        <time>2021-10-26T13:54:39Z</time>
      </trkpt>
      <trkpt lat="44.96006" lon="5.76774">
        <ele>1091</ele>
        <time>2021-10-26T13:54:42Z</time>
      </trkpt>
      <trkpt lat="44.96004" lon="5.76774">
        <ele>1091</ele>
        <time>2021-10-26T13:54:46Z</time>
      </trkpt>
      <trkpt lat="44.96003" lon="5.76775">
        <ele>1090.7</ele>
        <time>2021-10-26T13:54:49Z</time>
      </trkpt>
      <trkpt lat="44.96001" lon="5.76777">
        <ele>1090.4</ele>
        <time>2021-10-26T13:54:54Z</time>
      </trkpt>
      <trkpt lat="44.95999" lon="5.76779">
        <ele>1090.5</ele>
        <time>2021-10-26T13:55:05Z</time>
      </trkpt>
      <trkpt lat="44.96" lon="5.76781">
        <ele>1088.9</ele>
        <time>2021-10-26T13:55:37Z</time>
      </trkpt>
      <trkpt lat="44.96002" lon="5.76784">
        <ele>1088.9</ele>
        <time>2021-10-26T13:55:46Z</time>
      </trkpt>
      <trkpt lat="44.96" lon="5.76786">
        <ele>1088.2</ele>
        <time>2021-10-26T13:55:51Z</time>
      </trkpt>
      <trkpt lat="44.96002" lon="5.76788">
        <ele>1087.6</ele>
        <time>2021-10-26T13:55:55Z</time>
      </trkpt>
      <trkpt lat="44.96004" lon="5.76791">
        <ele>1086.3</ele>
        <time>2021-10-26T13:55:59Z</time>
      </trkpt>
      <trkpt lat="44.96006" lon="5.76792">
        <ele>1085.4</ele>
        <time>2021-10-26T13:56:04Z</time>
      </trkpt>
      <trkpt lat="44.96006" lon="5.76795">
        <ele>1084.5</ele>
        <time>2021-10-26T13:56:08Z</time>
      </trkpt>
      <trkpt lat="44.96008" lon="5.76798">
        <ele>1083.7</ele>
        <time>2021-10-26T13:56:12Z</time>
      </trkpt>
      <trkpt lat="44.96009" lon="5.76801">
        <ele>1083.7</ele>
        <time>2021-10-26T13:56:15Z</time>
      </trkpt>
      <trkpt lat="44.9601" lon="5.76803">
        <ele>1082.7</ele>
        <time>2021-10-26T13:56:20Z</time>
      </trkpt>
      <trkpt lat="44.96011" lon="5.76806">
        <ele>1082</ele>
        <time>2021-10-26T13:56:23Z</time>
      </trkpt>
      <trkpt lat="44.96012" lon="5.76809">
        <ele>1079.9</ele>
        <time>2021-10-26T13:56:32Z</time>
      </trkpt>
      <trkpt lat="44.96014" lon="5.7681">
        <ele>1079.6</ele>
        <time>2021-10-26T13:56:34Z</time>
      </trkpt>
      <trkpt lat="44.96016" lon="5.76812">
        <ele>1078.9</ele>
        <time>2021-10-26T13:56:36Z</time>
      </trkpt>
      <trkpt lat="44.96017" lon="5.76813">
        <ele>1078.6</ele>
        <time>2021-10-26T13:56:38Z</time>
      </trkpt>
      <trkpt lat="44.96018" lon="5.76816">
        <ele>1078.6</ele>
        <time>2021-10-26T13:56:40Z</time>
      </trkpt>
      <trkpt lat="44.96019" lon="5.76819">
        <ele>1077.8</ele>
        <time>2021-10-26T13:56:44Z</time>
      </trkpt>
      <trkpt lat="44.96021" lon="5.7682">
        <ele>1077.4</ele>
        <time>2021-10-26T13:56:50Z</time>
      </trkpt>
      <trkpt lat="44.96024" lon="5.76822">
        <ele>1077.6</ele>
        <time>2021-10-26T13:56:52Z</time>
      </trkpt>
      <trkpt lat="44.96025" lon="5.76823">
        <ele>1077.3</ele>
        <time>2021-10-26T13:56:54Z</time>
      </trkpt>
      <trkpt lat="44.96027" lon="5.76825">
        <ele>1076.7</ele>
        <time>2021-10-26T13:56:55Z</time>
      </trkpt>
      <trkpt lat="44.96029" lon="5.76828">
        <ele>1076</ele>
        <time>2021-10-26T13:56:58Z</time>
      </trkpt>
      <trkpt lat="44.96031" lon="5.76828">
        <ele>1075.5</ele>
        <time>2021-10-26T13:57:04Z</time>
      </trkpt>
      <trkpt lat="44.96033" lon="5.7683">
        <ele>1075</ele>
        <time>2021-10-26T13:57:07Z</time>
      </trkpt>
      <trkpt lat="44.96035" lon="5.7683">
        <ele>1074.6</ele>
        <time>2021-10-26T13:57:10Z</time>
      </trkpt>
      <trkpt lat="44.96038" lon="5.76831">
        <ele>1074.1</ele>
        <time>2021-10-26T13:57:12Z</time>
      </trkpt>
      <trkpt lat="44.9604" lon="5.76832">
        <ele>1074</ele>
        <time>2021-10-26T13:57:14Z</time>
      </trkpt>
      <trkpt lat="44.96042" lon="5.76833">
        <ele>1073</ele>
        <time>2021-10-26T13:57:19Z</time>
      </trkpt>
      <trkpt lat="44.96044" lon="5.76833">
        <ele>1072.8</ele>
        <time>2021-10-26T13:57:22Z</time>
      </trkpt>
      <trkpt lat="44.96047" lon="5.76833">
        <ele>1071.4</ele>
        <time>2021-10-26T13:57:29Z</time>
      </trkpt>
      <trkpt lat="44.96049" lon="5.76834">
        <ele>1070.7</ele>
        <time>2021-10-26T13:57:33Z</time>
      </trkpt>
      <trkpt lat="44.96051" lon="5.76835">
        <ele>1069.9</ele>
        <time>2021-10-26T13:57:39Z</time>
      </trkpt>
      <trkpt lat="44.96053" lon="5.76835">
        <ele>1069.4</ele>
        <time>2021-10-26T13:57:41Z</time>
      </trkpt>
      <trkpt lat="44.96056" lon="5.76835">
        <ele>1069.3</ele>
        <time>2021-10-26T13:57:45Z</time>
      </trkpt>
      <trkpt lat="44.96058" lon="5.76836">
        <ele>1068.8</ele>
        <time>2021-10-26T13:57:47Z</time>
      </trkpt>
      <trkpt lat="44.96061" lon="5.76836">
        <ele>1068.1</ele>
        <time>2021-10-26T13:57:50Z</time>
      </trkpt>
      <trkpt lat="44.96063" lon="5.76838">
        <ele>1066.5</ele>
        <time>2021-10-26T13:57:54Z</time>
      </trkpt>
      <trkpt lat="44.96065" lon="5.76838">
        <ele>1067</ele>
        <time>2021-10-26T13:57:58Z</time>
      </trkpt>
      <trkpt lat="44.96068" lon="5.7684">
        <ele>1066.6</ele>
        <time>2021-10-26T13:58:00Z</time>
      </trkpt>
      <trkpt lat="44.9607" lon="5.76841">
        <ele>1065.8</ele>
        <time>2021-10-26T13:58:04Z</time>
      </trkpt>
      <trkpt lat="44.96072" lon="5.76841">
        <ele>1065.7</ele>
        <time>2021-10-26T13:58:07Z</time>
      </trkpt>
      <trkpt lat="44.96074" lon="5.76842">
        <ele>1065.8</ele>
        <time>2021-10-26T13:58:10Z</time>
      </trkpt>
      <trkpt lat="44.96076" lon="5.76844">
        <ele>1065</ele>
        <time>2021-10-26T13:58:15Z</time>
      </trkpt>
      <trkpt lat="44.96078" lon="5.76846">
        <ele>1065.3</ele>
        <time>2021-10-26T13:58:18Z</time>
      </trkpt>
      <trkpt lat="44.96079" lon="5.76845">
        <ele>1059.7</ele>
        <time>2021-10-26T13:58:27Z</time>
      </trkpt>
      <trkpt lat="44.96081" lon="5.76847">
        <ele>1061.8</ele>
        <time>2021-10-26T13:58:30Z</time>
      </trkpt>
      <trkpt lat="44.96084" lon="5.76848">
        <ele>1063</ele>
        <time>2021-10-26T13:58:37Z</time>
      </trkpt>
      <trkpt lat="44.96085" lon="5.76851">
        <ele>1062.7</ele>
        <time>2021-10-26T13:58:41Z</time>
      </trkpt>
      <trkpt lat="44.96087" lon="5.76848">
        <ele>1062.2</ele>
        <time>2021-10-26T13:58:44Z</time>
      </trkpt>
      <trkpt lat="44.96088" lon="5.7685">
        <ele>1061.6</ele>
        <time>2021-10-26T13:58:49Z</time>
      </trkpt>
      <trkpt lat="44.9609" lon="5.76852">
        <ele>1061.2</ele>
        <time>2021-10-26T13:58:56Z</time>
      </trkpt>
      <trkpt lat="44.9609" lon="5.76854">
        <ele>1060.1</ele>
        <time>2021-10-26T13:59:00Z</time>
      </trkpt>
      <trkpt lat="44.96091" lon="5.76857">
        <ele>1060.2</ele>
        <time>2021-10-26T13:59:03Z</time>
      </trkpt>
      <trkpt lat="44.96091" lon="5.7686">
        <ele>1060</ele>
        <time>2021-10-26T13:59:09Z</time>
      </trkpt>
      <trkpt lat="44.9609" lon="5.76863">
        <ele>1059.5</ele>
        <time>2021-10-26T13:59:13Z</time>
      </trkpt>
      <trkpt lat="44.96088" lon="5.76865">
        <ele>1059</ele>
        <time>2021-10-26T13:59:17Z</time>
      </trkpt>
      <trkpt lat="44.96087" lon="5.76866">
        <ele>1058.4</ele>
        <time>2021-10-26T13:59:20Z</time>
      </trkpt>
      <trkpt lat="44.96084" lon="5.76867">
        <ele>1058.6</ele>
        <time>2021-10-26T13:59:23Z</time>
      </trkpt>
      <trkpt lat="44.96083" lon="5.76869">
        <ele>1057.5</ele>
        <time>2021-10-26T13:59:26Z</time>
      </trkpt>
      <trkpt lat="44.96082" lon="5.76871">
        <ele>1057.3</ele>
        <time>2021-10-26T13:59:30Z</time>
      </trkpt>
      <trkpt lat="44.9608" lon="5.76872">
        <ele>1057.1</ele>
        <time>2021-10-26T13:59:33Z</time>
      </trkpt>
      <trkpt lat="44.96079" lon="5.76874">
        <ele>1057.2</ele>
        <time>2021-10-26T13:59:37Z</time>
      </trkpt>
      <trkpt lat="44.96077" lon="5.76876">
        <ele>1056.6</ele>
        <time>2021-10-26T13:59:40Z</time>
      </trkpt>
      <trkpt lat="44.96075" lon="5.76878">
        <ele>1055.8</ele>
        <time>2021-10-26T13:59:45Z</time>
      </trkpt>
      <trkpt lat="44.96073" lon="5.7688">
        <ele>1055.2</ele>
        <time>2021-10-26T13:59:50Z</time>
      </trkpt>
      <trkpt lat="44.96071" lon="5.76881">
        <ele>1055.5</ele>
        <time>2021-10-26T13:59:53Z</time>
      </trkpt>
      <trkpt lat="44.96069" lon="5.76882">
        <ele>1055</ele>
        <time>2021-10-26T13:59:58Z</time>
      </trkpt>
      <trkpt lat="44.96068" lon="5.76884">
        <ele>1054.2</ele>
        <time>2021-10-26T14:00:02Z</time>
      </trkpt>
      <trkpt lat="44.96066" lon="5.76886">
        <ele>1053.7</ele>
        <time>2021-10-26T14:00:07Z</time>
      </trkpt>
      <trkpt lat="44.96064" lon="5.76887">
        <ele>1053.7</ele>
        <time>2021-10-26T14:00:10Z</time>
      </trkpt>
      <trkpt lat="44.96061" lon="5.76889">
        <ele>1053</ele>
        <time>2021-10-26T14:00:13Z</time>
      </trkpt>
      <trkpt lat="44.9606" lon="5.76891">
        <ele>1052.2</ele>
        <time>2021-10-26T14:00:17Z</time>
      </trkpt>
      <trkpt lat="44.96058" lon="5.76892">
        <ele>1052.1</ele>
        <time>2021-10-26T14:00:20Z</time>
      </trkpt>
      <trkpt lat="44.96057" lon="5.76894">
        <ele>1052.4</ele>
        <time>2021-10-26T14:00:24Z</time>
      </trkpt>
      <trkpt lat="44.96056" lon="5.76896">
        <ele>1050.8</ele>
        <time>2021-10-26T14:00:31Z</time>
      </trkpt>
      <trkpt lat="44.96055" lon="5.76898">
        <ele>1050.9</ele>
        <time>2021-10-26T14:00:35Z</time>
      </trkpt>
      <trkpt lat="44.96054" lon="5.76901">
        <ele>1050.2</ele>
        <time>2021-10-26T14:00:41Z</time>
      </trkpt>
      <trkpt lat="44.96052" lon="5.76903">
        <ele>1049</ele>
        <time>2021-10-26T14:00:46Z</time>
      </trkpt>
      <trkpt lat="44.96051" lon="5.76906">
        <ele>1049.1</ele>
        <time>2021-10-26T14:00:48Z</time>
      </trkpt>
      <trkpt lat="44.96051" lon="5.76909">
        <ele>1049</ele>
        <time>2021-10-26T14:00:51Z</time>
      </trkpt>
      <trkpt lat="44.96051" lon="5.76912">
        <ele>1048.8</ele>
        <time>2021-10-26T14:00:54Z</time>
      </trkpt>
      <trkpt lat="44.96049" lon="5.76914">
        <ele>1048.3</ele>
        <time>2021-10-26T14:00:58Z</time>
      </trkpt>
      <trkpt lat="44.96048" lon="5.76916">
        <ele>1048.1</ele>
        <time>2021-10-26T14:01:02Z</time>
      </trkpt>
      <trkpt lat="44.96046" lon="5.76916">
        <ele>1047.2</ele>
        <time>2021-10-26T14:01:08Z</time>
      </trkpt>
      <trkpt lat="44.96045" lon="5.76918">
        <ele>1046.9</ele>
        <time>2021-10-26T14:01:18Z</time>
      </trkpt>
      <trkpt lat="44.96044" lon="5.7692">
        <ele>1046</ele>
        <time>2021-10-26T14:01:22Z</time>
      </trkpt>
      <trkpt lat="44.96042" lon="5.76922">
        <ele>1046.8</ele>
        <time>2021-10-26T14:01:27Z</time>
      </trkpt>
      <trkpt lat="44.96042" lon="5.76924">
        <ele>1046.9</ele>
        <time>2021-10-26T14:01:33Z</time>
      </trkpt>
      <trkpt lat="44.96041" lon="5.76927">
        <ele>1045.9</ele>
        <time>2021-10-26T14:01:39Z</time>
      </trkpt>
      <trkpt lat="44.9604" lon="5.7693">
        <ele>1046.1</ele>
        <time>2021-10-26T14:01:43Z</time>
      </trkpt>
      <trkpt lat="44.96039" lon="5.76932">
        <ele>1046.2</ele>
        <time>2021-10-26T14:01:48Z</time>
      </trkpt>
      <trkpt lat="44.96038" lon="5.76934">
        <ele>1045.5</ele>
        <time>2021-10-26T14:01:51Z</time>
      </trkpt>
      <trkpt lat="44.96036" lon="5.76935">
        <ele>1045.9</ele>
        <time>2021-10-26T14:01:55Z</time>
      </trkpt>
      <trkpt lat="44.96033" lon="5.76936">
        <ele>1045.2</ele>
        <time>2021-10-26T14:01:59Z</time>
      </trkpt>
      <trkpt lat="44.96032" lon="5.76938">
        <ele>1044.5</ele>
        <time>2021-10-26T14:02:02Z</time>
      </trkpt>
      <trkpt lat="44.9603" lon="5.7694">
        <ele>1044.6</ele>
        <time>2021-10-26T14:02:05Z</time>
      </trkpt>
      <trkpt lat="44.96028" lon="5.76942">
        <ele>1044.1</ele>
        <time>2021-10-26T14:02:08Z</time>
      </trkpt>
      <trkpt lat="44.96028" lon="5.76945">
        <ele>1043.1</ele>
        <time>2021-10-26T14:02:13Z</time>
      </trkpt>
      <trkpt lat="44.96026" lon="5.76947">
        <ele>1042.5</ele>
        <time>2021-10-26T14:02:16Z</time>
      </trkpt>
      <trkpt lat="44.96024" lon="5.76948">
        <ele>1042.5</ele>
        <time>2021-10-26T14:02:19Z</time>
      </trkpt>
      <trkpt lat="44.96021" lon="5.76949">
        <ele>1042.3</ele>
        <time>2021-10-26T14:02:22Z</time>
      </trkpt>
      <trkpt lat="44.96019" lon="5.76951">
        <ele>1042.3</ele>
        <time>2021-10-26T14:02:25Z</time>
      </trkpt>
      <trkpt lat="44.96016" lon="5.76952">
        <ele>1042</ele>
        <time>2021-10-26T14:02:27Z</time>
      </trkpt>
      <trkpt lat="44.96014" lon="5.76954">
        <ele>1040.9</ele>
        <time>2021-10-26T14:02:30Z</time>
      </trkpt>
      <trkpt lat="44.96012" lon="5.76956">
        <ele>1040.3</ele>
        <time>2021-10-26T14:02:33Z</time>
      </trkpt>
      <trkpt lat="44.96009" lon="5.76958">
        <ele>1040.2</ele>
        <time>2021-10-26T14:02:36Z</time>
      </trkpt>
      <trkpt lat="44.96006" lon="5.76959">
        <ele>1040.1</ele>
        <time>2021-10-26T14:02:38Z</time>
      </trkpt>
      <trkpt lat="44.96004" lon="5.7696">
        <ele>1039.9</ele>
        <time>2021-10-26T14:02:41Z</time>
      </trkpt>
      <trkpt lat="44.96002" lon="5.76962">
        <ele>1039.8</ele>
        <time>2021-10-26T14:02:44Z</time>
      </trkpt>
      <trkpt lat="44.96" lon="5.76963">
        <ele>1039.4</ele>
        <time>2021-10-26T14:02:46Z</time>
      </trkpt>
      <trkpt lat="44.95998" lon="5.76965">
        <ele>1039.1</ele>
        <time>2021-10-26T14:02:49Z</time>
      </trkpt>
      <trkpt lat="44.95996" lon="5.76966">
        <ele>1038.6</ele>
        <time>2021-10-26T14:02:52Z</time>
      </trkpt>
      <trkpt lat="44.95994" lon="5.76967">
        <ele>1038.2</ele>
        <time>2021-10-26T14:02:54Z</time>
      </trkpt>
      <trkpt lat="44.95992" lon="5.76969">
        <ele>1038</ele>
        <time>2021-10-26T14:02:56Z</time>
      </trkpt>
      <trkpt lat="44.9599" lon="5.7697">
        <ele>1037.5</ele>
        <time>2021-10-26T14:02:58Z</time>
      </trkpt>
      <trkpt lat="44.95988" lon="5.76971">
        <ele>1037.5</ele>
        <time>2021-10-26T14:03:00Z</time>
      </trkpt>
      <trkpt lat="44.95986" lon="5.76972">
        <ele>1037.6</ele>
        <time>2021-10-26T14:03:02Z</time>
      </trkpt>
      <trkpt lat="44.95984" lon="5.76973">
        <ele>1037</ele>
        <time>2021-10-26T14:03:05Z</time>
      </trkpt>
      <trkpt lat="44.95982" lon="5.76974">
        <ele>1036.8</ele>
        <time>2021-10-26T14:03:07Z</time>
      </trkpt>
      <trkpt lat="44.9598" lon="5.76976">
        <ele>1036.6</ele>
        <time>2021-10-26T14:03:10Z</time>
      </trkpt>
      <trkpt lat="44.95978" lon="5.76977">
        <ele>1035.9</ele>
        <time>2021-10-26T14:03:13Z</time>
      </trkpt>
      <trkpt lat="44.95976" lon="5.76978">
        <ele>1035.6</ele>
        <time>2021-10-26T14:03:15Z</time>
      </trkpt>
      <trkpt lat="44.95974" lon="5.76979">
        <ele>1035.6</ele>
        <time>2021-10-26T14:03:17Z</time>
      </trkpt>
      <trkpt lat="44.95972" lon="5.76981">
        <ele>1035.4</ele>
        <time>2021-10-26T14:03:20Z</time>
      </trkpt>
      <trkpt lat="44.9597" lon="5.76983">
        <ele>1035</ele>
        <time>2021-10-26T14:03:23Z</time>
      </trkpt>
      <trkpt lat="44.95968" lon="5.76984">
        <ele>1035</ele>
        <time>2021-10-26T14:03:25Z</time>
      </trkpt>
      <trkpt lat="44.95966" lon="5.76985">
        <ele>1035</ele>
        <time>2021-10-26T14:03:27Z</time>
      </trkpt>
      <trkpt lat="44.95964" lon="5.76986">
        <ele>1034.7</ele>
        <time>2021-10-26T14:03:29Z</time>
      </trkpt>
      <trkpt lat="44.95962" lon="5.76987">
        <ele>1034.7</ele>
        <time>2021-10-26T14:03:31Z</time>
      </trkpt>
      <trkpt lat="44.9596" lon="5.76988">
        <ele>1034.4</ele>
        <time>2021-10-26T14:03:33Z</time>
      </trkpt>
      <trkpt lat="44.95959" lon="5.76989">
        <ele>1034.1</ele>
        <time>2021-10-26T14:03:35Z</time>
      </trkpt>
      <trkpt lat="44.95957" lon="5.7699">
        <ele>1033.6</ele>
        <time>2021-10-26T14:03:38Z</time>
      </trkpt>
      <trkpt lat="44.95955" lon="5.76992">
        <ele>1032.8</ele>
        <time>2021-10-26T14:03:41Z</time>
      </trkpt>
      <trkpt lat="44.95953" lon="5.76992">
        <ele>1032.5</ele>
        <time>2021-10-26T14:03:43Z</time>
      </trkpt>
      <trkpt lat="44.95951" lon="5.76994">
        <ele>1032.1</ele>
        <time>2021-10-26T14:03:46Z</time>
      </trkpt>
      <trkpt lat="44.95949" lon="5.76995">
        <ele>1031.5</ele>
        <time>2021-10-26T14:03:49Z</time>
      </trkpt>
      <trkpt lat="44.95947" lon="5.76995">
        <ele>1031.3</ele>
        <time>2021-10-26T14:03:51Z</time>
      </trkpt>
      <trkpt lat="44.95945" lon="5.76996">
        <ele>1031.1</ele>
        <time>2021-10-26T14:03:53Z</time>
      </trkpt>
      <trkpt lat="44.95943" lon="5.76996">
        <ele>1030.7</ele>
        <time>2021-10-26T14:03:55Z</time>
      </trkpt>
      <trkpt lat="44.95941" lon="5.76996">
        <ele>1030.5</ele>
        <time>2021-10-26T14:03:57Z</time>
      </trkpt>
      <trkpt lat="44.95939" lon="5.76996">
        <ele>1030.4</ele>
        <time>2021-10-26T14:03:59Z</time>
      </trkpt>
      <trkpt lat="44.95937" lon="5.76997">
        <ele>1030.3</ele>
        <time>2021-10-26T14:04:01Z</time>
      </trkpt>
      <trkpt lat="44.95935" lon="5.76996">
        <ele>1029.9</ele>
        <time>2021-10-26T14:04:03Z</time>
      </trkpt>
      <trkpt lat="44.95933" lon="5.76996">
        <ele>1030.1</ele>
        <time>2021-10-26T14:04:05Z</time>
      </trkpt>
      <trkpt lat="44.95931" lon="5.76997">
        <ele>1029.6</ele>
        <time>2021-10-26T14:04:07Z</time>
      </trkpt>
      <trkpt lat="44.95929" lon="5.76997">
        <ele>1029.5</ele>
        <time>2021-10-26T14:04:09Z</time>
      </trkpt>
      <trkpt lat="44.95927" lon="5.76997">
        <ele>1029</ele>
        <time>2021-10-26T14:04:11Z</time>
      </trkpt>
      <trkpt lat="44.95924" lon="5.76996">
        <ele>1028.5</ele>
        <time>2021-10-26T14:04:14Z</time>
      </trkpt>
      <trkpt lat="44.95922" lon="5.76996">
        <ele>1028.3</ele>
        <time>2021-10-26T14:04:16Z</time>
      </trkpt>
      <trkpt lat="44.95921" lon="5.76994">
        <ele>1027.7</ele>
        <time>2021-10-26T14:04:20Z</time>
      </trkpt>
      <trkpt lat="44.95919" lon="5.76994">
        <ele>1027.1</ele>
        <time>2021-10-26T14:04:22Z</time>
      </trkpt>
      <trkpt lat="44.95917" lon="5.76994">
        <ele>1027</ele>
        <time>2021-10-26T14:04:24Z</time>
      </trkpt>
      <trkpt lat="44.95915" lon="5.76993">
        <ele>1026.4</ele>
        <time>2021-10-26T14:04:26Z</time>
      </trkpt>
      <trkpt lat="44.95913" lon="5.76993">
        <ele>1026.8</ele>
        <time>2021-10-26T14:04:28Z</time>
      </trkpt>
      <trkpt lat="44.9591" lon="5.76993">
        <ele>1027.3</ele>
        <time>2021-10-26T14:04:31Z</time>
      </trkpt>
      <trkpt lat="44.95907" lon="5.76992">
        <ele>1026.9</ele>
        <time>2021-10-26T14:04:34Z</time>
      </trkpt>
      <trkpt lat="44.95905" lon="5.76992">
        <ele>1026</ele>
        <time>2021-10-26T14:04:36Z</time>
      </trkpt>
      <trkpt lat="44.95903" lon="5.76991">
        <ele>1026</ele>
        <time>2021-10-26T14:04:38Z</time>
      </trkpt>
      <trkpt lat="44.95901" lon="5.76989">
        <ele>1026</ele>
        <time>2021-10-26T14:04:41Z</time>
      </trkpt>
      <trkpt lat="44.95898" lon="5.76988">
        <ele>1026</ele>
        <time>2021-10-26T14:04:44Z</time>
      </trkpt>
      <trkpt lat="44.95896" lon="5.76986">
        <ele>1025.7</ele>
        <time>2021-10-26T14:04:47Z</time>
      </trkpt>
      <trkpt lat="44.95893" lon="5.76985">
        <ele>1024.8</ele>
        <time>2021-10-26T14:04:50Z</time>
      </trkpt>
      <trkpt lat="44.95891" lon="5.76985">
        <ele>1024.8</ele>
        <time>2021-10-26T14:04:52Z</time>
      </trkpt>
      <trkpt lat="44.95889" lon="5.76984">
        <ele>1024.2</ele>
        <time>2021-10-26T14:04:55Z</time>
      </trkpt>
      <trkpt lat="44.95886" lon="5.76984">
        <ele>1024.3</ele>
        <time>2021-10-26T14:04:57Z</time>
      </trkpt>
      <trkpt lat="44.95884" lon="5.76983">
        <ele>1023.9</ele>
        <time>2021-10-26T14:05:00Z</time>
      </trkpt>
      <trkpt lat="44.95882" lon="5.76982">
        <ele>1023.1</ele>
        <time>2021-10-26T14:05:03Z</time>
      </trkpt>
      <trkpt lat="44.9588" lon="5.76982">
        <ele>1022.9</ele>
        <time>2021-10-26T14:05:05Z</time>
      </trkpt>
      <trkpt lat="44.95877" lon="5.76982">
        <ele>1023</ele>
        <time>2021-10-26T14:05:08Z</time>
      </trkpt>
      <trkpt lat="44.95875" lon="5.76981">
        <ele>1022.6</ele>
        <time>2021-10-26T14:05:11Z</time>
      </trkpt>
      <trkpt lat="44.95873" lon="5.7698">
        <ele>1021.9</ele>
        <time>2021-10-26T14:05:14Z</time>
      </trkpt>
      <trkpt lat="44.95872" lon="5.76979">
        <ele>1021.1</ele>
        <time>2021-10-26T14:05:17Z</time>
      </trkpt>
      <trkpt lat="44.9587" lon="5.76977">
        <ele>1020.6</ele>
        <time>2021-10-26T14:05:21Z</time>
      </trkpt>
      <trkpt lat="44.95868" lon="5.76978">
        <ele>1019.2</ele>
        <time>2021-10-26T14:05:25Z</time>
      </trkpt>
      <trkpt lat="44.95866" lon="5.76977">
        <ele>1018.6</ele>
        <time>2021-10-26T14:05:28Z</time>
      </trkpt>
      <trkpt lat="44.95864" lon="5.76976">
        <ele>1019.3</ele>
        <time>2021-10-26T14:05:32Z</time>
      </trkpt>
      <trkpt lat="44.95862" lon="5.76976">
        <ele>1019.1</ele>
        <time>2021-10-26T14:05:36Z</time>
      </trkpt>
      <trkpt lat="44.9586" lon="5.76975">
        <ele>1017.5</ele>
        <time>2021-10-26T14:05:39Z</time>
      </trkpt>
      <trkpt lat="44.9586" lon="5.76972">
        <ele>1016.2</ele>
        <time>2021-10-26T14:05:43Z</time>
      </trkpt>
      <trkpt lat="44.95858" lon="5.76973">
        <ele>1014.4</ele>
        <time>2021-10-26T14:06:03Z</time>
      </trkpt>
      <trkpt lat="44.95857" lon="5.76976">
        <ele>1013.2</ele>
        <time>2021-10-26T14:06:08Z</time>
      </trkpt>
      <trkpt lat="44.95856" lon="5.76978">
        <ele>1012.7</ele>
        <time>2021-10-26T14:06:11Z</time>
      </trkpt>
      <trkpt lat="44.95854" lon="5.76982">
        <ele>1011.3</ele>
        <time>2021-10-26T14:06:17Z</time>
      </trkpt>
      <trkpt lat="44.95855" lon="5.76984">
        <ele>1011.4</ele>
        <time>2021-10-26T14:06:20Z</time>
      </trkpt>
      <trkpt lat="44.95855" lon="5.76987">
        <ele>1011.3</ele>
        <time>2021-10-26T14:06:23Z</time>
      </trkpt>
      <trkpt lat="44.95856" lon="5.76989">
        <ele>1010.7</ele>
        <time>2021-10-26T14:06:25Z</time>
      </trkpt>
      <trkpt lat="44.95856" lon="5.76992">
        <ele>1010.2</ele>
        <time>2021-10-26T14:06:28Z</time>
      </trkpt>
      <trkpt lat="44.95857" lon="5.76995">
        <ele>1009.9</ele>
        <time>2021-10-26T14:06:31Z</time>
      </trkpt>
      <trkpt lat="44.95858" lon="5.76997">
        <ele>1008.9</ele>
        <time>2021-10-26T14:06:35Z</time>
      </trkpt>
      <trkpt lat="44.95859" lon="5.77">
        <ele>1008.3</ele>
        <time>2021-10-26T14:06:39Z</time>
      </trkpt>
      <trkpt lat="44.95859" lon="5.77004">
        <ele>1007.5</ele>
        <time>2021-10-26T14:06:43Z</time>
      </trkpt>
      <trkpt lat="44.9586" lon="5.77008">
        <ele>1007.3</ele>
        <time>2021-10-26T14:06:46Z</time>
      </trkpt>
      <trkpt lat="44.9586" lon="5.7701">
        <ele>1006.5</ele>
        <time>2021-10-26T14:06:49Z</time>
      </trkpt>
      <trkpt lat="44.9586" lon="5.77013">
        <ele>1006.1</ele>
        <time>2021-10-26T14:06:52Z</time>
      </trkpt>
      <trkpt lat="44.95859" lon="5.77016">
        <ele>1005.7</ele>
        <time>2021-10-26T14:06:55Z</time>
      </trkpt>
      <trkpt lat="44.9586" lon="5.77019">
        <ele>1004.7</ele>
        <time>2021-10-26T14:06:59Z</time>
      </trkpt>
      <trkpt lat="44.9586" lon="5.77022">
        <ele>1004</ele>
        <time>2021-10-26T14:07:02Z</time>
      </trkpt>
      <trkpt lat="44.9586" lon="5.77025">
        <ele>1003.1</ele>
        <time>2021-10-26T14:07:06Z</time>
      </trkpt>
      <trkpt lat="44.95861" lon="5.77028">
        <ele>1003.1</ele>
        <time>2021-10-26T14:07:09Z</time>
      </trkpt>
      <trkpt lat="44.95861" lon="5.77031">
        <ele>1003.3</ele>
        <time>2021-10-26T14:07:12Z</time>
      </trkpt>
      <trkpt lat="44.95861" lon="5.77034">
        <ele>1002.7</ele>
        <time>2021-10-26T14:07:15Z</time>
      </trkpt>
      <trkpt lat="44.95861" lon="5.77036">
        <ele>1002.4</ele>
        <time>2021-10-26T14:07:17Z</time>
      </trkpt>
      <trkpt lat="44.95861" lon="5.77039">
        <ele>1001.9</ele>
        <time>2021-10-26T14:07:19Z</time>
      </trkpt>
      <trkpt lat="44.95862" lon="5.77043">
        <ele>1001.7</ele>
        <time>2021-10-26T14:07:21Z</time>
      </trkpt>
      <trkpt lat="44.95863" lon="5.77046">
        <ele>1000.9</ele>
        <time>2021-10-26T14:07:24Z</time>
      </trkpt>
      <trkpt lat="44.95863" lon="5.77049">
        <ele>1000.3</ele>
        <time>2021-10-26T14:07:27Z</time>
      </trkpt>
      <trkpt lat="44.95862" lon="5.77052">
        <ele>999.2</ele>
        <time>2021-10-26T14:07:31Z</time>
      </trkpt>
      <trkpt lat="44.95862" lon="5.77054">
        <ele>999.2</ele>
        <time>2021-10-26T14:07:34Z</time>
      </trkpt>
      <trkpt lat="44.95862" lon="5.77057">
        <ele>998.9</ele>
        <time>2021-10-26T14:07:38Z</time>
      </trkpt>
      <trkpt lat="44.95862" lon="5.7706">
        <ele>998.1</ele>
        <time>2021-10-26T14:07:42Z</time>
      </trkpt>
      <trkpt lat="44.95862" lon="5.77063">
        <ele>997.7</ele>
        <time>2021-10-26T14:07:45Z</time>
      </trkpt>
      <trkpt lat="44.95861" lon="5.77066">
        <ele>994</ele>
        <time>2021-10-26T14:07:49Z</time>
      </trkpt>
      <trkpt lat="44.95861" lon="5.77069">
        <ele>995.2</ele>
        <time>2021-10-26T14:07:52Z</time>
      </trkpt>
      <trkpt lat="44.95862" lon="5.77071">
        <ele>996</ele>
        <time>2021-10-26T14:07:54Z</time>
      </trkpt>
      <trkpt lat="44.95862" lon="5.77075">
        <ele>995.7</ele>
        <time>2021-10-26T14:07:57Z</time>
      </trkpt>
      <trkpt lat="44.95862" lon="5.77078">
        <ele>995.1</ele>
        <time>2021-10-26T14:07:59Z</time>
      </trkpt>
      <trkpt lat="44.95862" lon="5.77081">
        <ele>995.6</ele>
        <time>2021-10-26T14:08:02Z</time>
      </trkpt>
      <trkpt lat="44.95862" lon="5.77084">
        <ele>995</ele>
        <time>2021-10-26T14:08:05Z</time>
      </trkpt>
      <trkpt lat="44.95862" lon="5.77089">
        <ele>994.3</ele>
        <time>2021-10-26T14:08:09Z</time>
      </trkpt>
      <trkpt lat="44.95862" lon="5.77091">
        <ele>993.9</ele>
        <time>2021-10-26T14:08:12Z</time>
      </trkpt>
      <trkpt lat="44.95862" lon="5.77094">
        <ele>992.1</ele>
        <time>2021-10-26T14:08:15Z</time>
      </trkpt>
      <trkpt lat="44.95863" lon="5.77097">
        <ele>992.6</ele>
        <time>2021-10-26T14:08:18Z</time>
      </trkpt>
      <trkpt lat="44.95862" lon="5.771">
        <ele>992.8</ele>
        <time>2021-10-26T14:08:22Z</time>
      </trkpt>
      <trkpt lat="44.95859" lon="5.77105">
        <ele>992.9</ele>
        <time>2021-10-26T14:08:23Z</time>
      </trkpt>
      <trkpt lat="44.95856" lon="5.77109">
        <ele>992.7</ele>
        <time>2021-10-26T14:08:24Z</time>
      </trkpt>
      <trkpt lat="44.95852" lon="5.77112">
        <ele>992</ele>
        <time>2021-10-26T14:08:25Z</time>
      </trkpt>
      <trkpt lat="44.95846" lon="5.77114">
        <ele>991.9</ele>
        <time>2021-10-26T14:08:26Z</time>
      </trkpt>
      <trkpt lat="44.95837" lon="5.77119">
        <ele>992</ele>
        <time>2021-10-26T14:08:27Z</time>
      </trkpt>
      <trkpt lat="44.95831" lon="5.77121">
        <ele>991.7</ele>
        <time>2021-10-26T14:08:28Z</time>
      </trkpt>
      <trkpt lat="44.95824" lon="5.77125">
        <ele>991</ele>
        <time>2021-10-26T14:08:30Z</time>
      </trkpt>
      <trkpt lat="44.95844" lon="5.77123">
        <ele>991.4</ele>
        <time>2021-10-26T14:08:33Z</time>
      </trkpt>
      <trkpt lat="44.95849" lon="5.77122">
        <ele>991.3</ele>
        <time>2021-10-26T14:08:34Z</time>
      </trkpt>
      <trkpt lat="44.95851" lon="5.77123">
        <ele>991.2</ele>
        <time>2021-10-26T14:08:35Z</time>
      </trkpt>
      <trkpt lat="44.95853" lon="5.77121">
        <ele>991.2</ele>
        <time>2021-10-26T14:08:36Z</time>
      </trkpt>
      <trkpt lat="44.95856" lon="5.77122">
        <ele>991.2</ele>
        <time>2021-10-26T14:08:37Z</time>
      </trkpt>
      <trkpt lat="44.95858" lon="5.7712">
        <ele>991</ele>
        <time>2021-10-26T14:08:38Z</time>
      </trkpt>
      <trkpt lat="44.95858" lon="5.77118">
        <ele>990.7</ele>
        <time>2021-10-26T14:08:43Z</time>
      </trkpt>
      <trkpt lat="44.9586" lon="5.77119">
        <ele>990.6</ele>
        <time>2021-10-26T14:08:51Z</time>
      </trkpt>
      <trkpt lat="44.95862" lon="5.77119">
        <ele>990.1</ele>
        <time>2021-10-26T14:08:58Z</time>
      </trkpt>
      <trkpt lat="44.95865" lon="5.77118">
        <ele>990.9</ele>
        <time>2021-10-26T14:09:05Z</time>
      </trkpt>
      <trkpt lat="44.95863" lon="5.77118">
        <ele>990.7</ele>
        <time>2021-10-26T14:09:28Z</time>
      </trkpt>
      <trkpt lat="44.95861" lon="5.7712">
        <ele>991</ele>
        <time>2021-10-26T14:09:40Z</time>
      </trkpt>
      <trkpt lat="44.95861" lon="5.77123">
        <ele>990.3</ele>
        <time>2021-10-26T14:09:52Z</time>
      </trkpt>
      <trkpt lat="44.9586" lon="5.77126">
        <ele>990.4</ele>
        <time>2021-10-26T14:09:59Z</time>
      </trkpt>
      <trkpt lat="44.95859" lon="5.77128">
        <ele>990</ele>
        <time>2021-10-26T14:10:03Z</time>
      </trkpt>
      <trkpt lat="44.95858" lon="5.7713">
        <ele>989.9</ele>
        <time>2021-10-26T14:10:07Z</time>
      </trkpt>
      <trkpt lat="44.95856" lon="5.77133">
        <ele>989.3</ele>
        <time>2021-10-26T14:10:11Z</time>
      </trkpt>
      <trkpt lat="44.95854" lon="5.77134">
        <ele>989.1</ele>
        <time>2021-10-26T14:10:14Z</time>
      </trkpt>
      <trkpt lat="44.95853" lon="5.77137">
        <ele>988.7</ele>
        <time>2021-10-26T14:10:17Z</time>
      </trkpt>
      <trkpt lat="44.95851" lon="5.77138">
        <ele>988.2</ele>
        <time>2021-10-26T14:10:22Z</time>
      </trkpt>
      <trkpt lat="44.95848" lon="5.7714">
        <ele>987.8</ele>
        <time>2021-10-26T14:10:25Z</time>
      </trkpt>
      <trkpt lat="44.95846" lon="5.77142">
        <ele>987.5</ele>
        <time>2021-10-26T14:10:28Z</time>
      </trkpt>
      <trkpt lat="44.95845" lon="5.77144">
        <ele>987.2</ele>
        <time>2021-10-26T14:10:31Z</time>
      </trkpt>
      <trkpt lat="44.95843" lon="5.77146">
        <ele>986.8</ele>
        <time>2021-10-26T14:10:33Z</time>
      </trkpt>
      <trkpt lat="44.95841" lon="5.77145">
        <ele>986.7</ele>
        <time>2021-10-26T14:10:36Z</time>
      </trkpt>
      <trkpt lat="44.95839" lon="5.77147">
        <ele>986.4</ele>
        <time>2021-10-26T14:10:39Z</time>
      </trkpt>
      <trkpt lat="44.95838" lon="5.77149">
        <ele>986.3</ele>
        <time>2021-10-26T14:10:41Z</time>
      </trkpt>
      <trkpt lat="44.95836" lon="5.77151">
        <ele>985.9</ele>
        <time>2021-10-26T14:10:44Z</time>
      </trkpt>
      <trkpt lat="44.95834" lon="5.77152">
        <ele>985.5</ele>
        <time>2021-10-26T14:10:47Z</time>
      </trkpt>
      <trkpt lat="44.95831" lon="5.77154">
        <ele>985.1</ele>
        <time>2021-10-26T14:10:50Z</time>
      </trkpt>
      <trkpt lat="44.95829" lon="5.77155">
        <ele>984.4</ele>
        <time>2021-10-26T14:10:53Z</time>
      </trkpt>
      <trkpt lat="44.95827" lon="5.77154">
        <ele>984.6</ele>
        <time>2021-10-26T14:10:56Z</time>
      </trkpt>
      <trkpt lat="44.95825" lon="5.77153">
        <ele>984.3</ele>
        <time>2021-10-26T14:11:05Z</time>
      </trkpt>
      <trkpt lat="44.95823" lon="5.77155">
        <ele>984.2</ele>
        <time>2021-10-26T14:11:08Z</time>
      </trkpt>
      <trkpt lat="44.95821" lon="5.77156">
        <ele>983.9</ele>
        <time>2021-10-26T14:11:10Z</time>
      </trkpt>
      <trkpt lat="44.95819" lon="5.77157">
        <ele>984</ele>
        <time>2021-10-26T14:11:13Z</time>
      </trkpt>
      <trkpt lat="44.95818" lon="5.77159">
        <ele>983.4</ele>
        <time>2021-10-26T14:11:17Z</time>
      </trkpt>
      <trkpt lat="44.95816" lon="5.7716">
        <ele>983.3</ele>
        <time>2021-10-26T14:11:19Z</time>
      </trkpt>
      <trkpt lat="44.95814" lon="5.77162">
        <ele>983.1</ele>
        <time>2021-10-26T14:11:21Z</time>
      </trkpt>
      <trkpt lat="44.95812" lon="5.77163">
        <ele>982.5</ele>
        <time>2021-10-26T14:11:24Z</time>
      </trkpt>
      <trkpt lat="44.9581" lon="5.77164">
        <ele>982.6</ele>
        <time>2021-10-26T14:11:27Z</time>
      </trkpt>
      <trkpt lat="44.95808" lon="5.77166">
        <ele>981.7</ele>
        <time>2021-10-26T14:11:31Z</time>
      </trkpt>
      <trkpt lat="44.95807" lon="5.77167">
        <ele>982</ele>
        <time>2021-10-26T14:11:34Z</time>
      </trkpt>
      <trkpt lat="44.95805" lon="5.77169">
        <ele>981.2</ele>
        <time>2021-10-26T14:11:37Z</time>
      </trkpt>
      <trkpt lat="44.95802" lon="5.77171">
        <ele>981.1</ele>
        <time>2021-10-26T14:11:40Z</time>
      </trkpt>
      <trkpt lat="44.95799" lon="5.77173">
        <ele>980.1</ele>
        <time>2021-10-26T14:11:44Z</time>
      </trkpt>
      <trkpt lat="44.95797" lon="5.77174">
        <ele>979.3</ele>
        <time>2021-10-26T14:11:47Z</time>
      </trkpt>
      <trkpt lat="44.95795" lon="5.77176">
        <ele>979.1</ele>
        <time>2021-10-26T14:11:50Z</time>
      </trkpt>
      <trkpt lat="44.95793" lon="5.77176">
        <ele>979.3</ele>
        <time>2021-10-26T14:11:52Z</time>
      </trkpt>
      <trkpt lat="44.95791" lon="5.77178">
        <ele>979.4</ele>
        <time>2021-10-26T14:11:54Z</time>
      </trkpt>
      <trkpt lat="44.95788" lon="5.77178">
        <ele>978.5</ele>
        <time>2021-10-26T14:11:57Z</time>
      </trkpt>
      <trkpt lat="44.95786" lon="5.7718">
        <ele>978.6</ele>
        <time>2021-10-26T14:12:00Z</time>
      </trkpt>
      <trkpt lat="44.95784" lon="5.77181">
        <ele>978.8</ele>
        <time>2021-10-26T14:12:02Z</time>
      </trkpt>
      <trkpt lat="44.95782" lon="5.77182">
        <ele>978.7</ele>
        <time>2021-10-26T14:12:04Z</time>
      </trkpt>
      <trkpt lat="44.9578" lon="5.77183">
        <ele>977.9</ele>
        <time>2021-10-26T14:12:06Z</time>
      </trkpt>
      <trkpt lat="44.95777" lon="5.77185">
        <ele>977.6</ele>
        <time>2021-10-26T14:12:08Z</time>
      </trkpt>
      <trkpt lat="44.95775" lon="5.77187">
        <ele>977.5</ele>
        <time>2021-10-26T14:12:11Z</time>
      </trkpt>
      <trkpt lat="44.95773" lon="5.77188">
        <ele>977.2</ele>
        <time>2021-10-26T14:12:14Z</time>
      </trkpt>
      <trkpt lat="44.95772" lon="5.7719">
        <ele>977.3</ele>
        <time>2021-10-26T14:12:16Z</time>
      </trkpt>
      <trkpt lat="44.9577" lon="5.77192">
        <ele>977</ele>
        <time>2021-10-26T14:12:20Z</time>
      </trkpt>
      <trkpt lat="44.95769" lon="5.77193">
        <ele>976.5</ele>
        <time>2021-10-26T14:12:23Z</time>
      </trkpt>
      <trkpt lat="44.95767" lon="5.77195">
        <ele>976.1</ele>
        <time>2021-10-26T14:12:26Z</time>
      </trkpt>
      <trkpt lat="44.95763" lon="5.77195">
        <ele>975.7</ele>
        <time>2021-10-26T14:12:28Z</time>
      </trkpt>
      <trkpt lat="44.95761" lon="5.77195">
        <ele>975.3</ele>
        <time>2021-10-26T14:12:30Z</time>
      </trkpt>
      <trkpt lat="44.95759" lon="5.77196">
        <ele>975.4</ele>
        <time>2021-10-26T14:12:33Z</time>
      </trkpt>
      <trkpt lat="44.95757" lon="5.77197">
        <ele>975.3</ele>
        <time>2021-10-26T14:12:35Z</time>
      </trkpt>
      <trkpt lat="44.95755" lon="5.772">
        <ele>975.1</ele>
        <time>2021-10-26T14:12:38Z</time>
      </trkpt>
      <trkpt lat="44.95753" lon="5.772">
        <ele>974.7</ele>
        <time>2021-10-26T14:12:42Z</time>
      </trkpt>
      <trkpt lat="44.95751" lon="5.77201">
        <ele>974.5</ele>
        <time>2021-10-26T14:12:44Z</time>
      </trkpt>
      <trkpt lat="44.9575" lon="5.77203">
        <ele>974</ele>
        <time>2021-10-26T14:12:47Z</time>
      </trkpt>
      <trkpt lat="44.95748" lon="5.77206">
        <ele>973.8</ele>
        <time>2021-10-26T14:12:49Z</time>
      </trkpt>
      <trkpt lat="44.95748" lon="5.7721">
        <ele>973.6</ele>
        <time>2021-10-26T14:12:52Z</time>
      </trkpt>
      <trkpt lat="44.95747" lon="5.77213">
        <ele>972.8</ele>
        <time>2021-10-26T14:12:54Z</time>
      </trkpt>
      <trkpt lat="44.95746" lon="5.77215">
        <ele>973.1</ele>
        <time>2021-10-26T14:12:56Z</time>
      </trkpt>
      <trkpt lat="44.95746" lon="5.77218">
        <ele>973</ele>
        <time>2021-10-26T14:12:58Z</time>
      </trkpt>
      <trkpt lat="44.95745" lon="5.7722">
        <ele>973</ele>
        <time>2021-10-26T14:13:00Z</time>
      </trkpt>
      <trkpt lat="44.95744" lon="5.77223">
        <ele>972.5</ele>
        <time>2021-10-26T14:13:03Z</time>
      </trkpt>
      <trkpt lat="44.95743" lon="5.77226">
        <ele>972.5</ele>
        <time>2021-10-26T14:13:05Z</time>
      </trkpt>
      <trkpt lat="44.95742" lon="5.7723">
        <ele>972.1</ele>
        <time>2021-10-26T14:13:08Z</time>
      </trkpt>
      <trkpt lat="44.95742" lon="5.77233">
        <ele>972</ele>
        <time>2021-10-26T14:13:10Z</time>
      </trkpt>
      <trkpt lat="44.95741" lon="5.77235">
        <ele>971.8</ele>
        <time>2021-10-26T14:13:12Z</time>
      </trkpt>
      <trkpt lat="44.95739" lon="5.77239">
        <ele>971.3</ele>
        <time>2021-10-26T14:13:15Z</time>
      </trkpt>
      <trkpt lat="44.95738" lon="5.77241">
        <ele>971.5</ele>
        <time>2021-10-26T14:13:17Z</time>
      </trkpt>
      <trkpt lat="44.95737" lon="5.77244">
        <ele>971.1</ele>
        <time>2021-10-26T14:13:19Z</time>
      </trkpt>
      <trkpt lat="44.95736" lon="5.77246">
        <ele>970.5</ele>
        <time>2021-10-26T14:13:21Z</time>
      </trkpt>
      <trkpt lat="44.95734" lon="5.77249">
        <ele>970.4</ele>
        <time>2021-10-26T14:13:24Z</time>
      </trkpt>
      <trkpt lat="44.95734" lon="5.77251">
        <ele>969.9</ele>
        <time>2021-10-26T14:13:26Z</time>
      </trkpt>
      <trkpt lat="44.95732" lon="5.77254">
        <ele>969.7</ele>
        <time>2021-10-26T14:13:29Z</time>
      </trkpt>
      <trkpt lat="44.95733" lon="5.77257">
        <ele>969.2</ele>
        <time>2021-10-26T14:13:31Z</time>
      </trkpt>
      <trkpt lat="44.95733" lon="5.7726">
        <ele>969.1</ele>
        <time>2021-10-26T14:13:35Z</time>
      </trkpt>
      <trkpt lat="44.95733" lon="5.77262">
        <ele>969.7</ele>
        <time>2021-10-26T14:13:40Z</time>
      </trkpt>
      <trkpt lat="44.95731" lon="5.77265">
        <ele>969.3</ele>
        <time>2021-10-26T14:13:48Z</time>
      </trkpt>
      <trkpt lat="44.95729" lon="5.77266">
        <ele>968.9</ele>
        <time>2021-10-26T14:13:53Z</time>
      </trkpt>
      <trkpt lat="44.95729" lon="5.77269">
        <ele>968.8</ele>
        <time>2021-10-26T14:14:03Z</time>
      </trkpt>
      <trkpt lat="44.95728" lon="5.7727">
        <ele>969.4</ele>
        <time>2021-10-26T14:14:11Z</time>
      </trkpt>
      <trkpt lat="44.95727" lon="5.77272">
        <ele>969.4</ele>
        <time>2021-10-26T14:14:23Z</time>
      </trkpt>
      <trkpt lat="44.95726" lon="5.77275">
        <ele>968.5</ele>
        <time>2021-10-26T14:14:35Z</time>
      </trkpt>
      <trkpt lat="44.95728" lon="5.77277">
        <ele>963.5</ele>
        <time>2021-10-26T14:15:22Z</time>
      </trkpt>
      <trkpt lat="44.95726" lon="5.77277">
        <ele>955.8</ele>
        <time>2021-10-26T14:15:27Z</time>
      </trkpt>
      <trkpt lat="44.95728" lon="5.77276">
        <ele>969</ele>
        <time>2021-10-26T14:15:30Z</time>
      </trkpt>
      <trkpt lat="44.95728" lon="5.77273">
        <ele>956.3</ele>
        <time>2021-10-26T14:15:36Z</time>
      </trkpt>
      <trkpt lat="44.95729" lon="5.77275">
        <ele>977.9</ele>
        <time>2021-10-26T14:15:49Z</time>
      </trkpt>
      <trkpt lat="44.9573" lon="5.77273">
        <ele>967.4</ele>
        <time>2021-10-26T14:15:56Z</time>
      </trkpt>
      <trkpt lat="44.95733" lon="5.77271">
        <ele>963.4</ele>
        <time>2021-10-26T14:16:05Z</time>
      </trkpt>
      <trkpt lat="44.95735" lon="5.77269">
        <ele>965.3</ele>
        <time>2021-10-26T14:16:07Z</time>
      </trkpt>
      <trkpt lat="44.95736" lon="5.77266">
        <ele>970.5</ele>
        <time>2021-10-26T14:16:08Z</time>
      </trkpt>
      <trkpt lat="44.95738" lon="5.77264">
        <ele>973.4</ele>
        <time>2021-10-26T14:16:09Z</time>
      </trkpt>
      <trkpt lat="44.95735" lon="5.77269">
        <ele>974.5</ele>
        <time>2021-10-26T14:16:14Z</time>
      </trkpt>
      <trkpt lat="44.95733" lon="5.77272">
        <ele>972</ele>
        <time>2021-10-26T14:16:16Z</time>
      </trkpt>
      <trkpt lat="44.95732" lon="5.77273">
        <ele>966.4</ele>
        <time>2021-10-26T14:16:19Z</time>
      </trkpt>
      <trkpt lat="44.95729" lon="5.77276">
        <ele>970</ele>
        <time>2021-10-26T14:16:23Z</time>
      </trkpt>
      <trkpt lat="44.95727" lon="5.77275">
        <ele>970.2</ele>
        <time>2021-10-26T14:16:30Z</time>
      </trkpt>
      <trkpt lat="44.95728" lon="5.77279">
        <ele>968.2</ele>
        <time>2021-10-26T14:16:49Z</time>
      </trkpt>
      <trkpt lat="44.95727" lon="5.77276">
        <ele>968.2</ele>
        <time>2021-10-26T14:16:57Z</time>
      </trkpt>
      <trkpt lat="44.95727" lon="5.77276">
        <ele>968.1</ele>
        <time>2021-10-26T14:16:57Z</time>
      </trkpt>
      <trkpt lat="44.95727" lon="5.77276">
        <ele>968.1</ele>
        <time>2021-10-26T14:16:57Z</time>
      </trkpt>
    </trkseg>
  </trk>
</gpx>